Date StartTime U_cm/s V_cm/s W_cm/s Ustd_cm/s Vstd_cm/s Wstd_cm/s Uvar_(cm/s)^2 Vvar_(cm/s)^2 Wvar_(cm/s)^2 KE_(m/s)^2 TurbulentKE_(m/s)^2 HorizWindSpeed_cm/s FrictionSpeec_cm/s DragCoef SpeedOfSound_m/s SonicTemperature_C Pressure_mb 
09/30/2013  00:00:00     -212.040     -143.100      -12.129      107.296      126.695       59.885    11512.510    16051.720     3586.185        4.836        1.558      255.810       60.463        0.056      340.963       15.344      860.633
09/30/2013  00:01:00     -305.594     -130.132      -10.956      176.931      133.431       65.165    31304.634    17803.714     4246.474        8.189        2.668      332.148       74.251        0.050      340.995       15.399      860.607
09/30/2013  00:02:00     -168.025      -95.403       -1.873       97.257      142.381       55.378     9458.921    20272.481     3066.736        3.506        1.640      193.221       59.072        0.093      341.002       15.411      860.595
09/30/2013  00:03:00     -300.167     -103.151      -17.064      115.888      124.023       66.121    13430.064    15381.750     4371.957        6.710        1.659      317.396       66.763        0.044      341.009       15.423      860.592
09/30/2013  00:04:00     -296.121     -155.038      -13.962      140.033      132.107       63.036    19609.317    17452.208     3973.576        7.647        2.052      334.252       72.891        0.048      341.071       15.526      860.617
09/30/2013  00:05:00     -346.873     -219.589      -13.261      177.166      119.750       57.317    31387.943    14339.953     3285.258       10.885        2.451      410.537       60.105        0.021      341.092       15.561      860.601
09/30/2013  00:06:00     -295.930     -124.435       -7.404      121.758      101.078       54.916    14824.978    10216.856     3015.785        6.558        1.403      321.028       45.289        0.020      341.084       15.547      860.600
09/30/2013  00:07:00     -208.401     -217.599        7.066      141.817      120.989       73.798    20112.141    14638.356     5446.164        6.551        2.010      301.298       84.477        0.079      341.126       15.620      860.604
09/30/2013  00:08:00     -245.142     -120.596        4.380      163.677      123.155       61.698    26790.112    15167.239     3806.629        6.020        2.288      273.200       65.761        0.058      341.135       15.637      860.573
09/30/2013  00:09:00     -263.084      -94.005       -6.769      106.025      116.905       63.927    11241.382    13666.798     4086.653        5.354        1.450      279.374       53.725        0.037      341.147       15.654      860.546
09/30/2013  00:10:00     -245.226      -66.163        7.040      157.328       93.671       67.473    24752.099     8774.291     4552.553        5.131        1.904      253.995       78.718        0.096      341.115       15.601      860.585
09/30/2013  00:11:00     -259.078     -162.174        3.385      137.347      103.217       69.185    18864.216    10653.852     4786.576        6.386        1.715      305.650       69.345        0.051      341.135       15.634      860.638
09/30/2013  00:12:00     -241.918     -161.746       -6.495      128.331      106.672       65.944    16468.842    11378.830     4348.647        5.846        1.610      291.009       59.173        0.041      341.087       15.554      860.621
09/30/2013  00:13:00     -412.215     -184.005      -26.320      220.570      118.277       84.921    48650.969    13989.510     7211.570       13.715        3.493      451.419       88.696        0.039      341.023       15.445      860.571
09/30/2013  00:14:00     -284.795     -205.047       -1.957      184.604      133.006       70.583    34078.639    17690.640     4981.993        8.994        2.838      350.931       78.611        0.050      341.006       15.416      860.549
09/30/2013  00:15:00     -202.660     -144.992        3.100      158.592       98.475       63.755    25151.303     9697.400     4064.688        5.050        1.946      249.187       80.146        0.103      341.000       15.407      860.568
09/30/2013  00:16:00     -305.456     -216.878       -6.347      203.792      133.941       81.967    41531.227    17940.259     6718.539       10.327        3.310      374.619       90.484        0.058      341.010       15.423      860.567
09/30/2013  00:17:00     -145.530      -52.385       -0.135      115.684      106.698       53.445    13382.756    11384.570     2856.416        2.577        1.381      154.671       55.328        0.128      340.940       15.306      860.567
09/30/2013  00:18:00     -265.672      -30.367       -6.053      142.728      112.237       64.552    20371.391    12597.054     4166.985        5.433        1.857      267.402       65.495        0.060      340.918       15.266      860.614
09/30/2013  00:19:00     -239.542     -121.289        1.987      121.099      105.500       53.836    14664.890    11130.184     2898.271        5.039        1.435      268.499       61.151        0.052      340.916       15.265      860.577
09/30/2013  00:20:00     -244.228     -116.776      -10.469      108.377       84.147       52.048    11745.512     7080.672     2708.986        4.746        1.077      270.710       46.894        0.030      340.904       15.242      860.565
09/30/2013  00:21:00     -304.703     -124.606      -20.585      150.072      134.766       72.492    22521.551    18161.932     5255.155        7.736        2.297      329.197       62.058        0.036      340.912       15.258      860.582
09/30/2013  00:22:00     -257.745      -83.022        3.497      126.086      129.134       62.204    15897.770    16675.477     3869.331        5.488        1.822      270.787       61.133        0.051      340.888       15.216      860.565
09/30/2013  00:23:00     -239.702     -135.725      -12.362      145.476       86.776       63.344    21163.211     7530.038     4012.483        5.436        1.635      275.460       65.565        0.057      340.897       15.231      860.536
09/30/2013  00:24:00     -333.712     -138.680        1.548      213.294      146.452       84.811    45494.537    21448.307     7192.903       10.235        3.707      361.381       98.681        0.075      340.944       15.311      860.537
09/30/2013  00:25:00     -406.462     -252.442      -16.129      153.586      132.057       66.680    23588.807    17439.023     4446.203       13.733        2.274      478.475       64.557        0.018      340.990       15.387      860.568
09/30/2013  00:26:00     -217.689     -160.076       -2.499      156.753      116.931       62.501    24571.460    13672.766     3906.339        5.758        2.108      270.209       64.131        0.056      340.916       15.264      860.567
09/30/2013  00:27:00     -220.921     -133.012       13.258      149.388      122.685       60.250    22316.721    15051.640     3630.099        5.383        2.050      257.873       68.012        0.070      340.918       15.268      860.560
09/30/2013  00:28:00     -183.795     -154.793        0.775      138.294      119.203       74.895    19125.152    14209.413     5609.310        4.834        1.947      240.295       74.293        0.096      340.894       15.226      860.570
09/30/2013  00:29:00     -252.460     -107.575        0.095      176.899      115.261       73.284    31293.356    13285.096     5370.503        6.262        2.497      274.424       92.883        0.115      340.849       15.150      860.569
09/30/2013  00:30:00     -335.617      -76.047      -16.959      220.857      122.094       76.598    48777.662    14906.910     5867.262        9.412        3.478      344.125      103.031        0.090      340.886       15.213      860.544
09/30/2013  00:31:00     -179.094      -89.572       10.284      129.294       78.867       67.017    16716.874     6220.040     4491.314        3.381        1.371      200.244       61.934        0.096      340.846       15.144      860.549
09/30/2013  00:32:00     -192.043     -140.789       10.612      201.324      166.540       88.941    40531.452    27735.696     7910.431        6.648        3.809      238.122      108.553        0.208      340.859       15.167      860.527
09/30/2013  00:33:00     -360.293     -138.346       -4.245      220.151      163.071       96.002    48466.677    26592.137     9216.300       11.660        4.214      385.941      103.573        0.072      340.862       15.173      860.505
09/30/2013  00:34:00     -215.581      -37.721       -2.165      140.808      120.956       70.733    19826.816    14630.403     5003.091        4.367        1.973      218.856       62.601        0.082      340.845       15.143      860.463
09/30/2013  00:35:00     -288.620     -146.824        6.324      189.030      149.257       88.500    35732.376    22277.626     7832.210        8.536        3.292      323.819       91.515        0.080      340.828       15.116      860.445
09/30/2013  00:36:00     -448.287      -65.551      -16.599      164.084      124.440       76.046    26923.652    15485.361     5782.968       12.685        2.410      453.054       86.021        0.036      340.822       15.103      860.405
09/30/2013  00:37:00     -422.982      -88.422      -25.457      187.941      155.446       81.902    35321.663    24163.532     6707.872       12.677        3.310      432.126       78.024        0.033      340.850       15.151      860.341
09/30/2013  00:38:00     -263.882     -129.141        6.422      210.811      158.914       81.402    44441.376    25253.516     6626.310        8.132        3.816      293.787       96.367        0.108      340.823       15.108      860.359
09/30/2013  00:39:00     -215.539     -138.391       10.088      170.687      132.410       79.131    29134.142    17532.372     6261.774        5.931        2.646      256.142       83.309        0.106      340.822       15.105      860.365
09/30/2013  00:40:00     -397.424     -201.968      -13.846      209.838      186.083       84.882    44031.883    34626.765     7204.891       14.238        4.293      445.799       93.749        0.044      340.858       15.164      860.357
09/30/2013  00:41:00     -336.120     -197.960       -6.701      234.893      205.354      115.475    55174.645    42170.367    13334.457       13.142        5.534      390.083      126.894        0.106      340.860       15.169      860.403
09/30/2013  00:42:00     -305.509     -100.727       19.111      215.262      146.540       81.117    46337.807    21474.042     6579.895        8.910        3.720      321.685       95.273        0.088      340.876       15.196      860.410
09/30/2013  00:43:00     -228.023     -128.741        6.946      192.324      136.346       78.448    36988.645    18590.317     6154.032        6.516        3.087      261.856       95.400        0.133      340.921       15.273      860.328
09/30/2013  00:44:00     -361.863     -153.270       -6.887      218.544      178.547       95.259    47761.372    31879.156     9074.294       12.158        4.436      392.984      104.373        0.071      341.047       15.486      860.310
09/30/2013  00:45:00     -228.239     -119.802       13.776      181.304      154.173       83.320    32871.012    23769.265     6942.285        6.510        3.179      257.770       90.248        0.123      341.004       15.414      860.392
09/30/2013  00:46:00     -454.980     -239.434      -11.828      252.306      163.702       89.304    63658.204    26798.411     7975.198       18.143        4.922      514.136      100.986        0.039      340.985       15.380      860.397
09/30/2013  00:47:00     -227.060     -178.860       13.510      162.013      116.430       80.588    26248.350    13555.838     6494.423        6.500        2.315      289.045       78.936        0.075      340.893       15.226      860.404
09/30/2013  00:48:00     -340.966     -148.673       -4.760      157.828      122.155       68.667    24909.620    14921.757     4715.225        9.146        2.227      371.970       70.384        0.036      340.864       15.176      860.434
09/30/2013  00:49:00     -153.545      -89.738       20.216      181.894      152.130       76.064    33085.405    23143.424     5785.741        4.701        3.101      177.846      101.102        0.323      340.818       15.098      860.405
09/30/2013  00:50:00     -168.817      -69.052        7.157      114.161      103.655       54.142    13032.758    10744.367     2931.310        3.001        1.335      182.393       45.061        0.061      340.797       15.063      860.383
09/30/2013  00:51:00     -303.506     -124.220       -2.572      184.961      174.542       96.751    34210.738    30465.021     9360.833        9.078        3.702      327.943       83.561        0.065      340.823       15.106      860.407
09/30/2013  00:52:00     -241.983     -102.151        3.997      206.047      155.562       80.475    42455.351    24199.503     6476.300        7.105        3.657      262.660       93.223        0.126      340.803       15.073      860.372
09/30/2013  00:53:00     -419.926     -178.611      -14.243      251.794      201.754      107.943    63399.982    40704.817    11651.607       16.208        5.788      456.333      126.207        0.076      340.892       15.223      860.332
09/30/2013  00:54:00     -302.118     -110.066      -20.707      157.268      144.167       64.800    24733.194    20784.150     4199.085        7.676        2.486      321.543       65.321        0.041      340.866       15.179      860.334
09/30/2013  00:55:00     -388.391     -291.189       -6.433      203.922      241.840      113.816    41584.206    58486.560    12954.184       17.433        5.651      485.427      121.091        0.062      340.812       15.087      860.350
09/30/2013  00:56:00     -341.321     -184.349       -0.650      224.344      193.187       99.285    50330.168    37321.157     9857.564       12.398        4.875      387.923      114.555        0.087      340.791       15.054      860.378
09/30/2013  00:57:00     -355.006     -100.987      -12.171      188.877      132.535       80.325    35674.499    17565.488     6452.090        9.802        2.985      369.090       87.634        0.056      340.786       15.042      860.434
09/30/2013  00:58:00     -335.534     -179.082      -11.724      212.642      175.470      100.132    45216.409    30789.626    10026.455       11.539        4.302      380.333      123.477        0.105      340.773       15.022      860.352
09/30/2013  00:59:00     -275.713     -163.964       -4.355      194.688      167.978      101.445    37903.388    28216.569    10291.167        8.965        3.821      320.783      114.279        0.127      340.772       15.021      860.271
09/30/2013  01:00:00     -512.594     -241.201      -11.313      251.666      207.436      112.557    63335.657    43029.720    12668.975       22.002        5.952      566.507      100.635        0.032      340.825       15.111      860.263
09/30/2013  01:01:00     -508.209     -309.479      -39.813      261.348      175.568      111.010    68302.708    30823.960    12323.303       23.352        5.572      595.024      119.444        0.040      340.821       15.103      860.290
09/30/2013  01:02:00     -497.042     -234.647      -12.176      273.868      174.136      102.461    75003.678    30323.376    10498.275       20.902        5.791      549.645      121.895        0.049      340.846       15.145      860.282
09/30/2013  01:03:00     -494.543     -228.580      -20.162      202.664      187.611       96.476    41072.791    35197.880     9307.665       19.139        4.279      544.813      104.946        0.037      340.889       15.217      860.210
09/30/2013  01:04:00     -459.354     -255.288      -29.993      140.975      132.911       82.789    19873.845    17665.226     6853.995       16.073        2.220      525.526       65.051        0.015      340.860       15.167      860.192
09/30/2013  01:05:00     -341.593     -165.791       10.849      259.540      155.594       98.391    67361.232    24209.494     9680.854       12.275        5.063      379.701      117.205        0.095      340.819       15.100      860.256
09/30/2013  01:06:00     -390.343     -233.109      -17.528      178.003      124.909       76.747    31684.915    15602.356     5890.074       13.009        2.659      454.651       77.705        0.029      340.824       15.106      860.162
09/30/2013  01:07:00     -271.453     -174.354        4.684      223.693      157.690      109.418    50038.481    24866.099    11972.346        9.547        4.344      322.623      133.835        0.172      340.797       15.064      860.197
09/30/2013  01:08:00     -445.250     -258.714       -4.957      204.671      163.247       94.611    41890.099    26649.444     8951.297       17.133        3.875      514.957       92.875        0.033      340.837       15.128      860.208
09/30/2013  01:09:00     -425.723     -230.339      -27.108      198.676      187.675       88.993    39472.094    35222.055     7919.729       15.881        4.131      484.042       89.667        0.034      340.857       15.165      860.213
09/30/2013  01:10:00     -433.121     -192.170       -4.620      283.364      225.223      102.482    80294.994    50725.196    10502.533       18.300        7.076      473.838      117.624        0.062      340.893       15.225      860.186
09/30/2013  01:11:00     -327.640     -224.595        1.788      176.830      158.640       84.998    31268.894    25166.678     7224.582       11.071        3.183      397.229       86.402        0.047      340.877       15.197      860.161
09/30/2013  01:12:00     -536.133     -271.158      -10.724      268.435      228.820      102.708    72057.206    52358.506    10548.895       24.800        6.748      600.804      117.271        0.038      340.908       15.250      860.179
09/30/2013  01:13:00     -365.349     -204.501       -4.241      275.900      224.874       94.031    76120.542    50568.271     8841.787       15.540        6.777      418.689      105.331        0.063      340.903       15.242      860.076
09/30/2013  01:14:00     -410.312     -259.802       10.660      276.423      229.306      117.765    76409.489    52581.092    13868.627       18.938        7.143      485.647      136.622        0.079      341.000       15.408      860.010
09/30/2013  01:15:00     -366.124     -246.797       -9.596      220.331      170.247       99.725    48545.837    28984.178     9945.048       14.124        4.374      441.537      116.613        0.070      340.994       15.397      860.048
09/30/2013  01:16:00     -270.411     -218.769       16.186      194.271      157.591      108.948    37741.096    24834.771    11869.737        9.783        3.722      347.825      116.672        0.113      340.945       15.312      860.022
09/30/2013  01:17:00     -271.343     -210.264       -3.449      198.215      216.689       95.288    39289.118    46954.085     9079.746       10.657        4.766      343.276      102.047        0.088      340.943       15.310      860.034
09/30/2013  01:18:00     -447.720     -178.058        4.071      241.826      170.938       94.475    58479.861    29219.843     8925.497       16.438        4.831      481.827       96.836        0.040      340.937       15.298      860.023
09/30/2013  01:19:00     -554.851     -301.928      -21.523      273.761      176.149      106.352    74945.246    31028.638    11310.840       25.836        5.864      631.680      114.508        0.033      340.972       15.356      860.041
09/30/2013  01:20:00     -545.141     -310.080      -18.590      254.211      172.166       93.962    64623.221    29641.210     8828.764       24.836        5.155      627.159       84.393        0.018      340.967       15.349      860.071
09/30/2013  01:21:00     -313.081     -232.268        9.348      188.604      159.917       88.055    35571.476    25573.517     7753.643       11.046        3.445      389.831       94.179        0.058      341.006       15.415      859.888
09/30/2013  01:22:00     -363.926     -239.658      -11.036      147.288      163.225       82.854    21693.657    26642.280     6864.862       12.259        2.760      435.750       85.802        0.039      340.985       15.380      860.010
09/30/2013  01:23:00     -477.911     -235.276       -8.460      280.723      192.537       93.073    78805.529    37070.630     8662.673       20.416        6.227      532.685      101.237        0.036      340.996       15.399      860.054
09/30/2013  01:24:00     -380.809     -213.070        6.295      250.902      259.927      129.608    62951.721    67562.289    16798.355       16.885        7.366      436.365      157.852        0.131      340.993       15.394      859.985
09/30/2013  01:25:00     -400.156     -248.446       -4.741      224.631      163.715       92.178    50459.036    26802.679     8496.702       15.380        4.288      471.010       98.916        0.044      340.982       15.376      859.875
09/30/2013  01:26:00     -416.489     -283.816       -0.248      238.102      183.526       97.956    56692.602    33681.964     9595.426       17.697        4.998      503.998      103.883        0.042      340.956       15.331      859.965
09/30/2013  01:27:00     -415.811     -277.677       -7.821      248.362      190.484      103.869    61683.887    36284.189    10788.806       17.939        5.438      500.003      107.365        0.046      340.955       15.329      859.995
09/30/2013  01:28:00     -310.884     -278.805       -4.341      196.162      191.313       80.031    38479.447    36600.774     6404.885       12.793        4.074      417.590       63.284        0.023      340.954       15.328      859.941
09/30/2013  01:29:00     -436.009     -351.157      -15.097      220.978      181.505      117.130    48831.317    32944.200    13719.465       20.455        4.775      559.835      122.609        0.048      340.950       15.321      859.874
09/30/2013  01:30:00     -362.298     -290.796       17.401      234.415      205.388      125.432    54950.292    42184.072    15733.185       16.447        5.643      464.567      129.558        0.078      340.934       15.294      859.897
09/30/2013  01:31:00     -577.809     -336.655      -12.682      310.413      198.485      105.958    96356.508    39396.211    11227.013       29.714        7.349      668.730      134.028        0.040      340.965       15.345      859.843
09/30/2013  01:32:00     -475.017     -290.727      -15.993      195.417      168.564      106.756    38187.841    28413.707    11396.924       19.419        3.900      556.923      107.018        0.037      340.970       15.354      859.859
09/30/2013  01:33:00     -411.488     -311.910        5.876      277.951      220.959      116.583    77256.774    48822.964    13591.652       20.313        6.984      516.343      140.257        0.074      340.964       15.346      859.827
09/30/2013  01:34:00     -523.184     -307.467        2.077      298.348      289.847      139.251    89011.532    84011.033    19390.850       28.030        9.621      606.842      160.718        0.070      340.950       15.320      859.775
09/30/2013  01:35:00     -475.542     -314.097       -2.636      293.460      231.273      113.367    86118.603    53487.323    12852.160       23.860        7.623      569.909      139.938        0.060      340.982       15.378      859.803
09/30/2013  01:36:00     -483.270     -405.988      -17.764      247.217      179.600      117.592    61116.355    32256.194    13827.944       25.292        5.360      631.171      123.520        0.038      341.002       15.411      859.732
09/30/2013  01:37:00     -530.930     -309.557       -8.275      242.900      192.351      105.104    59000.614    36998.975    11046.855       24.239        5.352      614.583       93.331        0.023      340.988       15.385      859.674
09/30/2013  01:38:00     -423.596     -274.463        7.028      291.339      225.792      112.064    84878.433    50982.250    12558.417       20.159        7.421      504.741      137.261        0.074      340.981       15.374      859.723
09/30/2013  01:39:00     -405.405     -301.190      -10.745      218.101      204.035      104.501    47568.067    41630.106    10920.397       17.763        5.006      505.043      114.049        0.051      340.969       15.353      859.688
09/30/2013  01:40:00     -376.282     -129.847        4.264      237.902      187.838       99.822    56597.466    35283.107     9964.424       13.013        5.092      398.055      115.271        0.084      340.962       15.341      859.715
09/30/2013  01:41:00     -447.703     -346.639      -17.101      234.523      211.959      106.275    55000.914    44926.619    11294.455       21.603        5.561      566.212      115.528        0.042      341.000       15.406      859.677
09/30/2013  01:42:00     -441.800     -279.761       -5.883      199.841      142.571       87.057    39936.297    20326.371     7579.002       17.065        3.392      522.927       97.565        0.035      341.005       15.415      859.663
09/30/2013  01:43:00     -386.623     -222.389        1.505      184.487      146.908       87.225    34035.420    21581.912     7608.177       13.107        3.161      446.021       94.324        0.045      340.967       15.350      859.679
09/30/2013  01:44:00     -355.050     -299.954        5.382      226.527      189.306      119.625    51314.561    35836.636    14310.242       15.874        5.073      464.793      132.179        0.081      340.953       15.326      859.743
09/30/2013  01:45:00     -212.155     -156.277       23.352      188.617      125.746       85.140    35576.264    15811.949     7248.784        6.430        2.932      263.501       83.508        0.100      340.917       15.265      859.691
09/30/2013  01:46:00     -367.278     -218.034        2.256      217.751      151.357       80.885    47415.569    22908.964     6542.341       12.964        3.843      427.121       92.231        0.047      340.886       15.212      859.652
09/30/2013  01:47:00     -480.963     -320.308      -24.665      221.779      146.722       96.219    49186.134    21527.202     9258.119       20.724        3.999      577.860       96.424        0.028      340.929       15.285      859.759
09/30/2013  01:48:00     -550.582     -363.893      -27.153      235.686      247.576      113.584    55547.702    61293.679    12901.320       28.299        6.487      659.969      130.207        0.039      340.911       15.255      859.743
09/30/2013  01:49:00     -553.467     -435.358      -20.118      292.197      224.625      137.875    85379.299    50456.384    19009.571       32.552        7.742      704.175      144.822        0.042      340.918       15.268      859.602
09/30/2013  01:50:00     -394.720     -301.742       22.631      297.065      190.444      121.121    88247.609    36268.803    14670.401       19.325        6.959      496.842      146.084        0.086      340.974       15.362      859.531
09/30/2013  01:51:00     -570.766     -468.182      -13.310      274.093      203.504      143.594    75127.077    41414.006    20619.297       34.112        6.858      738.219      152.619        0.043      340.977       15.367      859.613
09/30/2013  01:52:00     -402.679     -366.057        3.442      240.362      191.773      118.277    57773.663    36776.911    13989.395       20.233        5.427      544.195      127.666        0.055      340.925       15.278      859.619
09/30/2013  01:53:00     -397.205     -151.789      -13.235      191.136      194.904       92.398    36533.062    37987.674     8537.369       13.201        4.153      425.220       96.296        0.051      340.945       15.313      859.546
09/30/2013  01:54:00     -482.343     -211.169      -11.558      252.411      168.102       98.052    63711.524    28258.412     9614.105       18.946        5.079      526.543      103.508        0.039      340.986       15.383      859.571
09/30/2013  01:55:00     -425.785     -241.918        0.975      239.420      158.644       93.967    57322.121    25168.010     8829.866       16.555        4.566      489.711      116.805        0.057      341.015       15.432      859.634
09/30/2013  01:56:00     -409.453     -302.032      -20.287      213.780      203.826      109.181    45702.046    41545.240    11920.488       17.921        4.958      508.798      122.816        0.058      341.006       15.415      859.563
09/30/2013  01:57:00     -465.118     -380.086      -22.928      247.748      194.829      119.788    61378.881    37958.199    14349.255       23.748        5.684      600.666      127.204        0.045      341.034       15.462      859.503
09/30/2013  01:58:00     -476.694     -278.639      -10.200      268.359      185.104      107.864    72016.662    34263.372    11634.565       21.142        5.896      552.156      118.925        0.046      340.975       15.364      859.551
09/30/2013  01:59:00     -401.155     -229.909      -15.165      202.615      213.896      106.126    41053.020    45751.508    11262.677       15.602        4.903      462.367      108.293        0.055      340.923       15.275      859.589
09/30/2013  02:00:00     -414.200     -234.942       -7.890      168.847      152.677       90.689    28509.170    23310.399     8224.414       14.342        3.002      476.193       94.190        0.039      340.918       15.267      859.533
09/30/2013  02:01:00     -381.900     -228.639       19.957      269.728      214.314      108.143    72753.012    45930.643    11694.803       16.442        6.519      445.111      131.326        0.087      340.897       15.232      859.554
09/30/2013  02:02:00     -573.550     -327.052      -17.232      288.018      264.299      128.316    82954.587    69854.197    16465.020       30.271        8.464      660.244      139.972        0.045      340.869       15.184      859.563
09/30/2013  02:03:00     -514.712     -343.943       13.640      302.649      252.772      149.421    91596.595    63893.780    22326.578       28.058        8.891      619.052      175.586        0.080      340.839       15.133      859.586
09/30/2013  02:04:00     -599.355     -298.902      -26.758      267.118      209.141      125.348    71352.186    43739.781    15712.105       29.002        6.540      669.753      131.714        0.039      340.909       15.252      859.570
09/30/2013  02:05:00     -301.792     -198.681        9.281      168.766      159.692       82.841    28482.019    25501.564     6862.558        9.573        3.042      361.320       71.078        0.039      340.927       15.281      859.440
09/30/2013  02:06:00     -369.339     -234.502      -31.220      199.455      162.352       88.712    39782.142    26358.233     7869.883       13.318        3.701      437.496       97.369        0.050      340.919       15.268      859.487
09/30/2013  02:07:00     -271.983     -152.614       -2.475      186.322      161.672       63.536    34715.704    26137.698     4036.834        8.107        3.245      311.875       82.384        0.070      340.871       15.189      859.604
09/30/2013  02:08:00     -327.016     -180.096        2.460      207.775      168.054       90.127    43170.635    28242.096     8122.819       10.944        3.977      373.328       91.341        0.060      340.898       15.234      859.583
09/30/2013  02:09:00     -258.787     -150.813       -0.764      201.009      119.315       67.635    40404.439    14236.085     4574.468        7.445        2.961      299.525       54.689        0.033      340.894       15.226      859.564
09/30/2013  02:10:00     -414.138     -198.436      -23.901      159.046      142.575       87.864    25295.708    20327.664     7720.082       13.239        2.667      459.224       84.148        0.034      340.882       15.207      859.594
09/30/2013  02:11:00     -393.824     -167.560      -15.598      207.183      158.123      104.313    42924.626    25002.730    10881.158       13.110        3.940      427.987      106.874        0.062      340.889       15.217      859.597
09/30/2013  02:12:00     -330.371     -126.928       -6.481      227.001      162.427       86.352    51529.312    26382.557     7456.601       10.532        4.268      353.915       88.715        0.063      340.861       15.171      859.632
09/30/2013  02:13:00     -316.167     -128.328       -3.917      258.642      158.693       99.791    66895.587    25183.580     9958.281       10.922        5.102      341.218      114.446        0.112      340.835       15.128      859.564
09/30/2013  02:14:00     -289.116     -171.682       10.558      215.986      187.125       82.971    46650.149    35015.701     6884.180       10.084        4.428      336.248      101.111        0.090      340.878       15.200      859.417
09/30/2013  02:15:00     -400.222     -237.731       -8.463      174.509      137.624       85.814    30453.328    18940.429     7364.121       13.675        2.838      465.504       97.606        0.044      340.887       15.214      859.598
09/30/2013  02:16:00     -331.022     -215.865      -10.327      177.055      155.602       78.020    31348.591    24212.107     6087.134       10.895        3.082      395.188       86.518        0.048      340.872       15.189      859.626
09/30/2013  02:17:00     -531.637     -375.366      -20.156      269.917      166.104       95.476    72855.217    27590.515     9115.605       26.673        5.478      650.798      106.118        0.027      340.951       15.324      859.469
09/30/2013  02:18:00     -407.095     -225.619       -7.505      188.499      129.960       78.059    35531.895    16889.607     6093.187       13.759        2.926      465.435       89.448        0.037      341.014       15.429      859.481
09/30/2013  02:19:00     -212.955     -145.398        7.411      146.403      116.927       77.522    21433.708    13671.951     6009.736        5.382        2.056      257.857       73.560        0.081      340.966       15.349      859.495
09/30/2013  02:20:00     -231.829     -199.586       -7.108      173.685      144.323       71.834    30166.516    20829.188     5160.129        7.488        2.808      305.907       86.780        0.080      340.926       15.280      859.563
09/30/2013  02:21:00     -313.436     -228.837       -5.643      170.530      137.086       68.190    29080.324    18792.490     4649.904       10.157        2.626      388.084       78.403        0.041      340.903       15.241      859.527
09/30/2013  02:22:00     -363.934     -122.872      -11.591      144.879      127.654       71.908    20989.807    16295.499     5170.801        9.506        2.123      384.116       72.661        0.036      340.904       15.242      859.419
09/30/2013  02:23:00     -537.591     -208.335      -42.624      204.593      187.216       95.188    41858.129    35050.010     9060.716       21.008        4.298      576.548       99.222        0.030      341.058       15.504      859.503
09/30/2013  02:24:00     -432.916     -234.033       -8.565      197.172      221.749      100.117    38876.947    49172.590    10023.348       17.015        4.904      492.126      104.040        0.045      340.951       15.324      859.498
09/30/2013  02:25:00     -213.307     -236.115       13.078      160.840      151.454       97.954    25869.506    22938.443     9595.019        7.990        2.920      318.198       96.159        0.091      340.960       15.337      859.442
09/30/2013  02:26:00     -253.849     -223.153        1.108      136.167      103.190       65.255    18541.561    10648.155     4258.187        7.384        1.672      337.989       76.598        0.051      340.921       15.273      859.405
09/30/2013  02:27:00     -278.196     -206.856        3.776      247.401      177.178      107.749    61207.382    31391.887    11609.819       11.218        5.210      346.674      124.152        0.128      340.914       15.260      859.590
09/30/2013  02:28:00     -448.212     -327.015      -38.059      282.869      179.199      102.202    80014.866    32112.103    10445.328       21.590        6.129      554.827      122.532        0.049      340.948       15.318      859.529
09/30/2013  02:29:00     -355.540     -246.675        1.219      192.096      138.852       77.590    36900.998    19279.807     6020.211       12.472        3.110      432.732       91.944        0.045      340.898       15.233      859.457
09/30/2013  02:30:00     -443.059     -245.668      -26.529      166.044      100.088       69.909    27570.581    10017.569     4887.234       14.991        2.124      506.611       65.592        0.017      340.892       15.223      859.513
09/30/2013  02:31:00     -282.854     -180.334      -15.517      129.278      179.911       64.265    16712.888    32367.820     4130.017        8.298        2.661      335.450       66.218        0.039      340.852       15.156      859.635
09/30/2013  02:32:00     -288.280     -201.920       -0.742      156.311      152.770       72.031    24433.176    23338.730     5188.399        8.841        2.648      351.962       76.243        0.047      340.847       15.146      859.523
09/30/2013  02:33:00     -278.837     -221.380       -4.446      153.960      128.003       63.732    23703.822    16384.704     4061.792        8.546        2.208      356.032       70.470        0.039      340.840       15.134      859.556
09/30/2013  02:34:00     -386.911     -112.738      -14.459      266.120      127.140       67.908    70819.835    16164.460     4611.526       12.709        4.580      403.002       90.220        0.050      340.841       15.139      859.501
09/30/2013  02:35:00     -285.465     -117.133        8.849      120.731      112.486       60.175    14576.034    12653.189     3620.980        6.306        1.543      308.562       57.858        0.035      340.805       15.076      859.384
09/30/2013  02:36:00     -411.550     -240.124      -16.561      164.385      107.542       73.773    27022.566    11565.279     5442.459       13.566        2.202      476.480       74.994        0.025      340.830       15.117      859.520
09/30/2013  02:37:00     -447.860     -231.813      -10.462      174.410      191.679       95.350    30418.827    36740.994     9091.618       16.532        3.813      504.297       79.529        0.025      340.984       15.379      859.354
09/30/2013  02:38:00     -563.987     -204.889      -19.691      195.873      183.786       85.005    38366.079    33777.193     7225.905       21.989        3.968      600.051       94.923        0.025      340.992       15.393      859.343
09/30/2013  02:39:00     -254.523     -150.245        4.735      203.524      171.337       92.424    41422.007    29356.228     8542.264        8.333        3.966      295.560      102.474        0.120      340.929       15.286      859.471
09/30/2013  02:40:00     -188.380     -149.273       10.219      220.661      139.295       82.330    48691.382    19403.208     6778.150        6.636        3.744      240.353      103.097        0.184      340.836       15.129      859.323
09/30/2013  02:41:00     -232.562     -190.404       -9.898      133.775      117.323       67.372    17895.688    13764.727     4539.015        6.331        1.810      300.564       77.750        0.067      340.838       15.131      859.362
09/30/2013  02:42:00     -492.296     -238.065      -32.019      255.917      169.362       86.205    65493.287    28683.496     7431.325       20.081        5.080      546.836       94.205        0.030      340.895       15.229      859.408
09/30/2013  02:43:00     -373.989     -252.436       -5.965      237.410      170.470       99.762    56363.361    29060.153     9952.546       14.948        4.769      451.211      111.908        0.062      340.857       15.163      859.483
09/30/2013  02:44:00     -490.161     -249.339      -20.345      235.945      182.992      102.383    55670.153    33486.206    10482.299       20.122        4.982      549.934      101.107        0.034      340.813       15.090      859.391
09/30/2013  02:45:00     -359.149      -82.697      -38.104      162.523      173.049       79.086    26413.728    29946.008     6254.527        9.993        3.131      368.547       74.251        0.041      340.863       15.174      859.208
09/30/2013  02:46:00     -278.994     -236.584      -10.380      211.324      141.235       92.773    44657.710    19947.250     8606.829       10.355        3.661      365.800       97.291        0.071      340.904       15.244      859.331
09/30/2013  02:47:00     -347.230     -209.758       -4.940      225.424      152.215       91.895    50815.924    23169.408     8444.648       12.349        4.121      405.668      103.265        0.065      340.941       15.305      859.494
09/30/2013  02:48:00     -194.941     -180.241       -0.349      174.385      163.580       76.147    30410.172    26758.572     5798.391        6.672        3.148      265.498       88.138        0.110      340.907       15.251      859.412
09/30/2013  02:49:00     -353.824     -184.552       -9.339      200.830      128.562       87.572    40332.711    16528.067     7668.810       11.192        3.226      399.063       93.096        0.054      340.881       15.204      859.312
09/30/2013  02:50:00     -385.019     -219.264       -8.119      232.500      166.492       94.685    54056.388    27719.714     8965.270       14.354        4.537      443.076      118.222        0.071      340.874       15.192      859.335
09/30/2013  02:51:00     -377.170     -283.935      -15.997      197.694      180.705       88.796    39082.976    32654.160     7884.760       15.136        3.981      472.098      101.817        0.047      340.862       15.173      859.365
09/30/2013  02:52:00     -303.904     -169.278       -6.019      160.111      150.140       78.948    25635.665    22542.118     6232.767        8.772        2.721      347.869       89.557        0.066      340.876       15.195      859.425
09/30/2013  02:53:00     -337.290     -144.785       -2.319      209.434      150.837       83.627    43862.467    22751.827     6993.487       10.416        3.680      367.052       92.941        0.064      340.872       15.189      859.431
09/30/2013  02:54:00     -290.073       16.235       -0.311      185.730      172.883       76.800    34495.698    29888.648     5898.292        7.733        3.514      290.527       75.944        0.068      340.900       15.236      859.384
09/30/2013  02:55:00     -296.669     -134.005      -16.579      204.927      186.936       90.248    41995.157    34944.998     8144.642        9.565        4.254      325.530      103.636        0.101      340.928       15.285      859.396
09/30/2013  02:56:00     -264.327     -150.800        8.447      181.420      149.230       86.763    32913.389    22269.704     7527.865        7.768        3.136      304.318       91.243        0.090      340.907       15.246      859.448
09/30/2013  02:57:00     -427.247     -288.333       -1.257      221.773      161.784       97.481    49183.426    26174.065     9502.588       17.525        4.243      515.438      111.411        0.047      340.920       15.270      859.523
09/30/2013  02:58:00     -309.898     -143.124       -7.520      218.716      134.697       84.225    47836.584    18143.340     7093.805        9.481        3.654      341.352       96.614        0.080      340.942       15.309      859.465
09/30/2013  02:59:00     -354.216     -145.538      -16.185      205.820      177.728       75.470    42361.891    31587.287     5695.742       11.326        3.982      382.949       81.315        0.045      340.948       15.317      859.279
09/30/2013  03:00:00     -186.990     -119.407        0.176      162.471      148.136       91.867    26396.861    21944.216     8439.563        5.299        2.839      221.864       82.235        0.137      340.939       15.302      859.339
09/30/2013  03:01:00     -228.352      -58.044       16.139      152.191      113.971       67.036    23162.029    12989.456     4493.803        4.820        2.032      235.613       70.791        0.090      340.970       15.356      859.315
09/30/2013  03:02:00     -318.871     -152.008        6.032      222.732      147.757       92.149    49609.615    21832.046     8491.467       10.236        3.997      353.250      103.147        0.085      341.110       15.591      859.245
09/30/2013  03:03:00     -197.723     -161.071       22.543      182.765      138.484       84.535    33403.106    19177.684     7146.126        6.262        2.986      255.026       87.010        0.116      341.076       15.536      859.324
09/30/2013  03:04:00     -440.292      -51.269       -9.533      289.794      200.388       75.492    83980.273    40155.173     5699.073       16.318        6.492      443.267       88.136        0.040      341.050       15.491      859.306
09/30/2013  03:05:00     -357.237     -243.497       -8.980      251.360      215.692       90.042    63181.986    46523.049     8107.529       15.238        5.891      432.330      110.702        0.066      341.061       15.509      859.236
09/30/2013  03:06:00     -269.602     -151.520        5.316      190.222      155.723       84.068    36184.469    24249.725     7067.505        8.157        3.375      309.264       82.234        0.071      341.026       15.451      859.263
09/30/2013  03:07:00     -266.330     -127.068       12.833      193.281      157.846       97.247    37357.714    24915.425     9456.964        7.947        3.587      295.090      110.451        0.140      341.035       15.465      859.287
09/30/2013  03:08:00     -292.056     -130.041       -8.601      174.440      154.710       70.451    30429.238    23935.036     4963.396        8.079        2.966      319.699       72.150        0.051      341.024       15.448      859.176
09/30/2013  03:09:00     -308.476     -228.471        6.787      252.866      177.014       96.298    63941.313    31333.960     9273.231       12.595        5.227      383.870      100.460        0.068      341.014       15.431      859.156
09/30/2013  03:10:00     -243.616     -195.915       35.590      252.848      159.599       99.330    63932.168    25471.970     9866.506        9.911        4.964      312.621      123.578        0.156      341.016       15.435      859.219
09/30/2013  03:11:00     -404.824     -197.652      -18.901      233.733      167.730       96.039    54631.246    28133.392     9223.546       14.763        4.599      450.498       96.909        0.046      341.038       15.470      859.230
09/30/2013  03:12:00     -390.195     -243.170      -11.006      232.726      168.636      106.828    54161.558    28438.088    11412.119       15.274        4.701      459.765      110.122        0.057      341.092       15.562      859.281
09/30/2013  03:13:00     -361.003     -240.064      -31.912      223.793      196.128      106.984    50083.435    38466.321    11445.671       14.446        5.000      433.536      105.413        0.059      341.064       15.514      859.291
09/30/2013  03:14:00     -266.463     -154.915        5.389      227.121      176.641       82.855    51583.949    31202.028     6865.024        9.232        4.483      308.223      117.764        0.146      341.026       15.449      859.224
09/30/2013  03:15:00     -562.811     -221.844      -45.591      193.109      153.094       95.555    37291.059    23437.668     9130.712       21.894        3.493      604.956       72.080        0.014      341.047       15.487      859.341
09/30/2013  03:16:00     -407.725     -214.664      -32.134      193.912      163.841       86.528    37601.918    26843.855     7487.059       14.263        3.597      460.783       68.232        0.022      341.018       15.436      859.290
09/30/2013  03:17:00     -204.608     -130.690       33.086      252.316      196.842      113.368    63663.339    38746.863    12852.209        8.763        5.763      242.785      149.932        0.381      340.996       15.399      859.184
09/30/2013  03:18:00     -445.384     -110.075      -11.132      192.670      198.608      101.926    37121.734    39445.244    10388.917       14.876        4.348      458.785      104.467        0.052      341.038       15.469      859.200
09/30/2013  03:19:00     -438.596      -64.084        5.471      249.934      184.602      110.033    62466.917    34077.954    12107.154       15.256        5.433      443.253      128.441        0.084      341.024       15.447      859.155
09/30/2013  03:20:00     -313.137     -100.566       -0.188      198.117      174.997       80.652    39250.196    30623.943     6504.732        9.226        3.819      328.890       96.855        0.087      341.042       15.478      859.140
09/30/2013  03:21:00     -424.021     -221.964       -0.445      188.006      178.794       75.842    35346.211    31967.241     5752.068       15.105        3.653      478.604       68.684        0.021      341.049       15.490      859.239
09/30/2013  03:22:00     -442.534     -160.498      -23.771      268.088      168.220       93.604    71871.415    28297.821     8761.779       16.552        5.447      470.739      119.149        0.064      341.026       15.451      859.279
09/30/2013  03:23:00     -344.062      -86.384      -14.256      236.943      155.999       83.847    56142.092    24335.716     7030.387       10.676        4.375      354.740       99.597        0.079      340.996       15.400      859.204
09/30/2013  03:24:00     -397.514     -148.159      -15.040      207.862      170.000       86.658    43206.664    28899.935     7509.682       12.989        3.981      424.227      101.676        0.057      340.988       15.386      859.295
09/30/2013  03:25:00     -325.403     -144.502       -6.051      189.411      110.944       74.044    35876.542    12308.617     5482.459        9.023        2.683      356.045       87.183        0.060      340.986       15.383      859.255
09/30/2013  03:26:00     -267.707     -167.174       -0.776      179.535      132.687       64.047    32232.905    17605.929     4101.984        7.677        2.697      315.617       75.157        0.057      340.975       15.362      859.174
09/30/2013  03:27:00     -197.158     -120.151       -4.063      180.179      109.067       63.611    32464.635    11895.568     4046.342        5.086        2.420      230.884       66.164        0.082      340.940       15.305      859.272
09/30/2013  03:28:00     -288.186     -237.783      -15.517      168.703      139.860       81.245    28460.577    19560.757     6600.783        9.722        2.731      373.620       85.375        0.052      340.959       15.336      859.256
09/30/2013  03:29:00     -319.588     -163.580        0.110      147.052      145.714       79.866    21624.222    21232.462     6378.579        8.906        2.462      359.019       89.178        0.062      340.942       15.307      859.209
09/30/2013  03:30:00     -195.123     -159.173        8.484      196.322      130.318       76.923    38542.239    16982.803     5917.215        6.245        3.072      251.811       98.068        0.152      340.961       15.342      859.307
09/30/2013  03:31:00     -316.653     -229.190       -1.712      232.410      144.685       89.018    54014.215    20933.721     7924.189       11.782        4.144      390.892      107.861        0.076      340.977       15.367      859.312
09/30/2013  03:32:00     -361.039     -165.595      -13.935      182.731      141.729       76.753    33390.678    20087.220     5891.014       10.865        2.968      397.204       74.735        0.035      340.966       15.348      859.328
09/30/2013  03:33:00     -130.238      -59.016       45.540      158.915      172.297       75.305    25253.933    29686.423     5670.830        4.155        3.031      142.986       73.562        0.265      341.012       15.427      859.407
09/30/2013  03:34:00     -191.177     -153.661      -10.362      185.240      150.165       63.988    34313.755    22549.650     4094.441        6.060        3.048      245.276       69.235        0.080      340.982       15.377      859.362
09/30/2013  03:35:00     -246.787     -101.333      -14.385       99.029       82.360       64.322     9806.820     6783.209     4137.327        4.605        1.036      266.781       48.783        0.033      341.011       15.424      859.391
09/30/2013  03:36:00     -148.186     -214.531       15.581      135.885      132.370       71.040    18464.774    17521.906     5046.653        5.462        2.052      260.735       71.407        0.075      341.031       15.458      859.446
09/30/2013  03:37:00     -233.506     -210.927       -5.384      118.625      112.972       69.346    14071.857    12762.621     4808.845        6.534        1.582      314.667       59.921        0.036      340.986       15.383      859.438
09/30/2013  03:38:00     -400.803       -9.380      -11.388      264.429      228.193       77.659    69922.684    52071.864     6030.892       14.442        6.401      400.913      110.704        0.076      340.942       15.308      859.339
09/30/2013  03:39:00     -487.599      -98.595      -22.104      190.368      175.320       74.863    36239.835    30737.151     5604.531       16.026        3.629      497.468       63.904        0.017      340.931       15.288      859.335
09/30/2013  03:40:00     -387.256      -93.202       -7.578      222.603      171.784       83.552    49552.228    29509.633     6980.907       12.236        4.302      398.314      108.319        0.074      340.921       15.272      859.276
09/30/2013  03:41:00     -330.471     -146.379      -17.047      259.125      136.278       91.175    67145.859    18571.746     8312.835       11.246        4.702      361.438      108.338        0.090      341.006       15.417      859.297
09/30/2013  03:42:00     -382.854     -200.197      -15.710      227.110      135.397       77.610    51578.993    18332.292     6023.328       13.140        3.797      432.037       96.730        0.050      341.004       15.414      859.310
09/30/2013  03:43:00     -481.199     -220.582       -4.471      265.334      161.475       96.091    70401.877    26074.299     9233.537       19.295        5.285      529.348       96.038        0.033      340.960       15.338      859.354
09/30/2013  03:44:00     -371.624     -223.319        2.617      189.081      144.633       84.417    35751.718    20918.762     7126.147       12.588        3.190      433.562       91.229        0.044      340.909       15.252      859.414
09/30/2013  03:45:00     -495.327      -63.636       -9.074      245.075      174.136      106.243    60061.772    30323.335    11287.652       17.556        5.084      499.398      123.787        0.061      340.911       15.256      859.306
09/30/2013  03:46:00     -329.401     -175.162      -14.063      135.431      155.450       77.628    18341.592    24164.700     6026.047        9.395        2.427      373.077       73.760        0.039      340.950       15.321      859.368
09/30/2013  03:47:00     -372.949     -172.002      -21.358      223.244      178.438       76.540    49837.949    31840.049     5858.370       12.832        4.377      410.702       85.657        0.043      340.894       15.226      859.460
09/30/2013  03:48:00     -520.416     -279.413       -5.000      269.343      175.994      115.103    72545.680    30973.742    13248.676       23.283        5.838      590.681      130.239        0.049      340.882       15.206      859.329
09/30/2013  03:49:00     -282.246      -87.687       -8.458      150.051      173.538       72.555    22515.371    30115.512     5264.197        7.265        2.895      295.553       67.564        0.052      340.852       15.156      859.317
09/30/2013  03:50:00     -300.400     -155.854      -17.780      221.930      141.846       93.351    49253.117    20120.207     8714.336        9.645        3.904      338.424       92.337        0.074      340.869       15.183      859.447
09/30/2013  03:51:00     -302.329      -79.217      -17.304      171.661      132.811       81.255    29467.457    17638.728     6602.362        7.583        2.685      312.535       77.900        0.062      340.883       15.206      859.326
09/30/2013  03:52:00     -278.934     -130.149       -6.854      182.486      153.898       81.746    33301.233    23684.717     6682.354        7.922        3.183      307.804       83.780        0.074      340.884       15.211      859.439
09/30/2013  03:53:00     -305.118     -204.829        6.948      228.773      201.892       92.038    52336.925    40760.506     8471.080       11.831        5.078      367.494      112.117        0.093      340.858       15.165      859.428
09/30/2013  03:54:00     -308.330     -200.257      -14.899      171.114      139.500       79.565    29279.956    19460.336     6330.608        9.522        2.754      367.655       83.992        0.052      340.840       15.135      859.264
09/30/2013  03:55:00     -453.575     -297.270        2.360      240.460      212.847      101.797    57820.779    45304.034    10362.691       20.377        5.674      542.310      108.925        0.040      340.959       15.335      859.403
09/30/2013  03:56:00     -494.718     -275.200      -12.352      337.400      212.073      121.055   113838.720    44974.985    14654.401       24.702        8.673      566.110      155.984        0.076      340.860       15.168      859.421
09/30/2013  03:57:00     -409.091      -94.261       -0.872      219.264      141.422       84.547    48076.678    20000.210     7148.209       12.572        3.761      419.810      101.119        0.058      340.787       15.047      859.291
09/30/2013  03:58:00     -306.188     -160.553       -4.191      224.920      190.070       98.299    50589.178    36126.660     9662.755       10.794        4.819      345.729      128.126        0.137      340.768       15.015      859.258
09/30/2013  03:59:00     -503.138     -253.786      -18.690      187.397      139.296       79.339    35117.570    19403.269     6294.646       18.935        3.041      563.520       75.220        0.018      340.770       15.017      859.208
09/30/2013  04:00:00     -424.840     -344.083       -1.757      236.509      194.442      132.169    55936.613    37807.523    17468.667       20.503        5.561      546.701      127.902        0.055      340.770       15.016      859.248
09/30/2013  04:01:00     -434.864     -306.851       -1.908      171.696      186.106      102.668    29479.581    34635.371    10540.690       17.895        3.733      532.226       93.322        0.031      340.771       15.018      859.334
09/30/2013  04:02:00     -351.960     -206.476       -9.934      203.714      146.292       78.893    41499.311    21401.413     6224.031       11.785        3.456      408.054       85.873        0.044      340.748       14.981      859.367
09/30/2013  04:03:00     -287.773     -165.055       -2.083      143.684      139.428       82.698    20645.091    19440.208     6838.894        7.848        2.346      331.747       77.018        0.054      340.706       14.907      859.332
09/30/2013  04:04:00     -456.950      -74.376      -23.422      265.170      148.535       86.029    70315.389    22062.664     7400.940       15.731        4.989      462.964       95.507        0.043      340.690       14.880      859.299
09/30/2013  04:05:00     -551.197     -104.500      -21.369      220.651      212.487      102.067    48686.837    45150.738    10417.740       20.970        5.213      561.016       96.177        0.029      340.703       14.904      859.379
09/30/2013  04:06:00     -299.716     -153.135       -8.939      184.663      148.468       81.323    34100.426    22042.625     6613.444        8.805        3.138      336.571       94.037        0.078      340.699       14.898      859.423
09/30/2013  04:07:00     -470.937     -296.428       -2.890      205.474      157.884      105.947    42219.412    24927.232    11224.848       19.400        3.919      556.463      107.267        0.037      340.695       14.891      859.497
09/30/2013  04:08:00     -303.089     -196.521       -6.306      246.852      191.663      105.349    60935.746    36734.600    11098.316       11.962        5.438      361.224      120.360        0.111      340.724       14.938      859.445
09/30/2013  04:09:00     -303.763     -231.322       13.000      255.386      201.198      114.098    65221.822    40480.798    13018.466       13.231        5.936      381.814      139.610        0.134      340.673       14.853      859.464
09/30/2013  04:10:00     -314.147      -96.041       14.625      260.969      156.984      107.527    68105.023    24643.998    11562.024       10.620        5.216      328.500      138.702        0.178      340.638       14.793      859.571
09/30/2013  04:11:00     -491.523     -240.756      -25.493      310.812      191.501      124.641    96604.301    36672.751    15535.381       22.448        7.441      547.319      124.259        0.052      340.644       14.802      859.604
09/30/2013  04:12:00     -558.669     -294.300      -38.025      226.839      183.658      104.262    51456.128    33730.100    10870.477       24.809        4.803      631.445      105.060        0.028      340.634       14.787      859.616
09/30/2013  04:13:00     -378.300     -250.667       -1.337      212.613      205.715       98.916    45204.384    42318.687     9784.462       15.161        4.865      453.812      110.402        0.059      340.630       14.779      859.645
09/30/2013  04:14:00     -333.908     -200.524        8.240      249.945      234.444      130.358    62472.342    54963.842    16993.095       14.307        6.721      389.493      149.525        0.147      340.617       14.758      859.561
09/30/2013  04:15:00     -238.470     -106.908       38.199      295.920      240.843      170.903    87568.889    58005.515    29207.833       12.223        8.739      261.337      183.093        0.491      340.621       14.766      859.509
09/30/2013  04:16:00     -433.911     -162.677       -5.021      187.050      220.219       97.561    34987.543    48496.442     9518.057       15.387        4.650      463.403       92.968        0.040      340.627       14.776      859.590
09/30/2013  04:17:00     -433.543     -120.132      -16.239      230.518      178.475      105.316    53138.571    31853.379    11091.446       14.935        4.804      449.879      110.029        0.060      340.611       14.747      859.537
09/30/2013  04:18:00     -448.992     -258.960      -14.331      231.390      185.927       92.232    53541.371    34568.832     8506.754       18.272        4.831      518.319      112.818        0.047      340.638       14.792      859.579
09/30/2013  04:19:00     -407.939     -175.391      -19.097      253.716      228.122      110.984    64371.642    52039.554    12317.460       16.311        6.436      444.045      119.937        0.073      340.617       14.757      859.555
09/30/2013  04:20:00     -289.888     -284.827        9.024      193.369      165.439      107.331    37391.620    27370.025    11520.024       12.075        3.814      406.401      120.394        0.088      340.604       14.735      859.573
09/30/2013  04:21:00     -283.994     -144.926        8.637      229.391      157.231      109.414    52620.085    24721.663    11971.348        9.550        4.466      318.836      123.716        0.151      340.586       14.705      859.548
09/30/2013  04:22:00     -384.140     -168.636       -7.696      273.415      196.527       93.889    74755.530    38622.959     8815.136       14.910        6.110      419.525      111.035        0.070      340.565       14.670      859.474
09/30/2013  04:23:00     -344.475     -146.049        3.924      250.905      153.204       92.212    62953.107    23471.453     8503.073       11.745        4.746      374.157      108.807        0.085      340.553       14.650      859.444
09/30/2013  04:24:00     -501.524     -231.873      -20.214      215.598      203.290      102.340    46482.508    41326.831    10473.399       20.197        4.914      552.532      108.040        0.038      340.544       14.635      859.473
09/30/2013  04:25:00     -484.809     -138.201       -5.825      263.362      244.064      130.925    69359.548    59567.245    17141.397       20.009        7.303      504.122      140.948        0.078      340.553       14.650      859.468
09/30/2013  04:26:00     -510.424     -245.445       -7.849      268.155      235.322      122.151    71907.122    55376.402    14920.919       23.149        7.110      566.371      143.166        0.064      340.561       14.662      859.538
09/30/2013  04:27:00     -476.084     -225.443      -17.998      310.849      216.042      111.321    96626.840    46674.100    12392.317       21.672        7.785      526.764      143.177        0.074      340.539       14.626      859.545
09/30/2013  04:28:00     -548.441     -272.540      -28.532      301.973      232.127      115.773    91187.528    53883.045    13403.446       26.714        7.924      612.426      116.178        0.036      340.561       14.662      859.418
09/30/2013  04:29:00     -309.874     -138.460       19.993      222.291      180.622      102.766    49413.493    32624.340    10560.754       10.408        4.630      339.401      119.573        0.124      340.547       14.640      859.457
09/30/2013  04:30:00     -353.782     -169.166        1.586      254.003      200.196      102.491    64517.272    40078.370    10504.462       13.442        5.755      392.146      133.726        0.116      340.551       14.646      859.514
09/30/2013  04:31:00     -448.379     -172.908      -21.354      244.989      176.031       99.578    60019.694    30986.809     9915.866       16.614        5.046      480.563      116.734        0.059      340.547       14.638      859.531
09/30/2013  04:32:00     -551.197     -292.120      -17.596      290.476      234.063      111.625    84376.532    54785.597    12460.212       27.051        7.581      623.820      124.641        0.040      340.554       14.652      859.590
09/30/2013  04:33:00     -453.226     -145.785      -19.976      258.301      142.932      103.033    66719.154    20429.435    10615.901       16.240        4.888      476.096      109.758        0.053      340.544       14.635      859.557
09/30/2013  04:34:00     -244.587     -173.364       33.418      232.648      179.341      110.578    54125.289    32163.284    12227.561        9.474        4.926      299.796      127.247        0.180      340.535       14.619      859.559
09/30/2013  04:35:00     -284.076     -171.985        9.749      258.484      219.458      125.762    66814.048    48161.694    15816.046       12.056        6.540      332.081      152.933        0.212      340.531       14.613      859.522
09/30/2013  04:36:00     -551.260     -253.817      -29.384      252.634      206.315      110.750    63823.714    42566.076    12265.478       24.389        5.933      606.886      118.421        0.038      340.525       14.602      859.466
09/30/2013  04:37:00     -533.559     -265.921       -7.122      258.773      206.098      121.242    66963.532    42476.226    14699.591       23.977        6.207      596.154      122.344        0.042      340.517       14.588      859.481
09/30/2013  04:38:00     -460.252     -242.993       -6.740      313.230      280.619      118.884    98113.316    78747.095    14133.378       23.092        9.550      520.459      134.458        0.067      340.512       14.582      859.499
09/30/2013  04:39:00     -495.579     -232.363      -36.240      253.391      217.759      105.805    64207.091    47419.124    11194.670       21.184        6.141      547.349      124.623        0.052      340.513       14.581      859.469
09/30/2013  04:40:00     -421.647     -203.975        1.303      284.493      181.436      115.119    80936.458    32919.186    13252.460       17.323        6.355      468.393      139.291        0.088      340.495       14.551      859.458
09/30/2013  04:41:00     -268.321     -238.893       15.073      197.373      172.442      106.593    38955.922    29736.364    11362.024       10.466        4.003      359.257      121.058        0.114      340.480       14.525      859.502
09/30/2013  04:42:00     -269.833     -237.996       22.122      246.157      215.603      120.677    60593.069    46484.592    14562.906       12.577        6.082      359.794      135.151        0.141      340.472       14.514      859.556
09/30/2013  04:43:00     -402.984     -269.519        6.353      290.297      232.465      121.692    84272.403    54040.076    14809.012       19.407        7.656      484.806      157.337        0.105      340.476       14.519      859.581
09/30/2013  04:44:00     -637.730     -315.674      -24.269      225.398      207.820       99.278    50804.394    43189.061     9856.088       30.537        5.192      711.582      117.149        0.027      340.495       14.552      859.573
09/30/2013  04:45:00     -406.449     -176.718       -7.776      250.444      171.537      106.875    62722.098    29425.007    11422.177       15.001        5.178      443.204      131.816        0.088      340.466       14.501      859.558
09/30/2013  04:46:00     -358.803      -76.338       -8.922      207.589      135.285       89.767    43093.118    18301.920     8058.101       10.204        3.473      366.834       91.169        0.062      340.454       14.483      859.600
09/30/2013  04:47:00     -559.989     -276.767      -14.749      249.516      224.239      112.673    62258.392    50283.043    12695.215       25.780        6.262      624.650      123.203        0.039      340.476       14.520      859.526
09/30/2013  04:48:00     -306.032      -54.380       14.794      238.137      157.495      105.921    56709.181    24804.664    11219.182        9.476        4.637      310.826      113.335        0.133      340.474       14.516      859.564
09/30/2013  04:49:00     -387.324     -138.289      -14.192      204.970      156.579       86.664    42012.744    24516.971     7510.699       12.168        3.702      411.271       93.966        0.052      340.493       14.547      859.545
09/30/2013  04:50:00     -171.848      -71.961       41.819      200.565      178.683      116.934    40226.307    31927.474    13673.519        6.113        4.291      186.307      107.744        0.334      340.589       14.710      859.491
09/30/2013  04:51:00     -393.214     -278.451      -23.683      188.259      182.278       98.848    35441.579    33225.340     9770.886       15.556        3.922      481.822      103.463        0.046      340.578       14.691      859.550
09/30/2013  04:52:00     -403.311     -291.577      -12.766      214.411      181.445      109.386    45971.982    32922.277    11965.351       16.933        4.543      497.672      113.882        0.052      340.557       14.656      859.541
09/30/2013  04:53:00     -386.979     -276.564      -19.842      218.258      224.319      112.409    47636.458    50318.803    12635.870       16.859        5.530      475.648      122.317        0.066      340.501       14.562      859.585
09/30/2013  04:54:00     -376.594     -198.956      -18.378      237.380      186.633      110.393    56349.031    34831.782    12186.525       14.254        5.168      425.919      127.230        0.089      340.487       14.538      859.545
09/30/2013  04:55:00     -529.925     -294.738      -39.229      269.338      177.287      115.595    72543.214    31430.739    13362.292       24.326        5.867      606.375      115.306        0.036      340.519       14.593      859.539
09/30/2013  04:56:00     -412.336     -221.080       -5.384      200.382      191.398       92.606    40153.139    36633.073     8575.887       15.213        4.268      467.865       99.685        0.045      340.508       14.574      859.480
09/30/2013  04:57:00     -345.961     -110.047      -13.360      227.615      155.678       89.874    51808.807    24235.731     8077.286       10.803        4.206      363.042      113.913        0.098      340.473       14.516      859.507
09/30/2013  04:58:00     -378.455     -175.348      -11.070      228.006      204.362      103.280    51986.641    41763.889    10666.822       13.924        5.221      417.103      109.032        0.068      340.463       14.497      859.406
09/30/2013  04:59:00     -398.652     -244.926      -18.864      229.325      184.343       92.568    52589.960    33982.293     8568.759       15.719        4.757      467.881      104.873        0.050      340.626       14.773      859.411
09/30/2013  05:00:00     -431.173     -331.117       -8.116      244.996      206.615      113.136    60022.911    42689.898    12799.834       20.554        5.776      543.644      131.697        0.059      340.645       14.805      859.426
09/30/2013  05:01:00     -471.887     -221.829      -10.159      271.925      176.866      110.678    73943.196    31281.704    12249.558       19.471        5.874      521.427      134.839        0.067      340.580       14.695      859.487
09/30/2013  05:02:00     -392.446     -307.805       -0.905      231.476      182.818      127.013    53581.212    33422.399    16132.389       17.593        5.157      498.756      123.670        0.061      340.517       14.589      859.519
09/30/2013  05:03:00     -416.298     -309.301      -22.415      239.259      171.324      102.413    57244.746    29351.865    10488.439       18.326        4.854      518.625      118.092        0.052      340.476       14.520      859.505
09/30/2013  05:04:00     -416.687     -249.054       -1.834      242.084      208.233      101.231    58604.902    43360.810    10247.651       17.391        5.611      485.444      119.607        0.061      340.461       14.493      859.476
09/30/2013  05:05:00     -484.066     -298.704       -8.255      230.408      225.914      104.126    53087.955    51036.911    10842.246       21.927        5.748      568.810      125.222        0.048      340.508       14.573      859.458
09/30/2013  05:06:00     -419.027     -184.054      -18.526      230.966      173.169       98.142    53345.425    29987.649     9631.804       15.137        4.648      457.668      115.631        0.064      340.572       14.682      859.444
09/30/2013  05:07:00     -396.259     -224.220      -10.915      207.545      178.620       99.909    43075.050    31904.959     9981.791       14.617        4.248      455.297      108.990        0.057      340.617       14.757      859.434
09/30/2013  05:08:00     -455.729     -256.041      -15.157      257.249      186.076      113.900    66176.925    34624.159    12973.269       19.360        5.689      522.729      126.616        0.059      340.510       14.578      859.408
09/30/2013  05:09:00     -428.500     -315.251      -26.551      224.012      164.090      119.049    50181.314    26925.577    14172.642       18.747        4.564      531.973      129.422        0.059      340.472       14.513      859.397
09/30/2013  05:10:00     -262.780     -194.221        8.097      202.725      144.593       91.196    41097.579    20907.266     8316.771        8.857        3.516      326.765      103.577        0.100      340.449       14.474      859.430
09/30/2013  05:11:00     -395.058     -236.765      -15.262      226.946      166.998       92.208    51504.624    27888.260     8502.334       15.011        4.395      460.574      106.611        0.054      340.501       14.563      859.454
09/30/2013  05:12:00     -510.392     -202.967      -37.381      222.398      219.564       98.976    49460.670    48208.554     9796.234       20.526        5.373      549.268       97.989        0.032      340.433       14.446      859.483
09/30/2013  05:13:00     -492.019     -249.535      -11.808      215.588      184.179      114.385    46478.300    33921.876    13084.016       19.897        4.674      551.680      108.037        0.038      340.404       14.398      859.471
09/30/2013  05:14:00     -408.263     -101.020       -7.048      192.975      159.052       91.115    37239.390    25297.518     8302.008       12.387        3.542      420.575       98.658        0.055      340.451       14.478      859.519
09/30/2013  05:15:00     -562.006     -204.944      -33.141      215.671      198.087      112.392    46513.773    39238.641    12631.880       22.865        4.919      598.208      112.798        0.036      340.433       14.447      859.569
09/30/2013  05:16:00     -424.487     -229.729      -20.421      203.317      171.880       96.481    41337.942    29542.717     9308.576       15.677        4.009      482.664       94.425        0.038      340.400       14.391      859.536
09/30/2013  05:17:00     -270.945     -184.359       -2.091      185.484      190.324      104.243    34404.233    36223.202    10866.615        9.443        4.075      327.719       97.594        0.089      340.395       14.384      859.602
09/30/2013  05:18:00     -347.691     -147.516       -5.904      218.530      156.351       99.182    47755.475    24445.685     9837.076       11.235        4.102      377.691      114.053        0.091      340.366       14.334      859.601
09/30/2013  05:19:00     -214.074     -193.285        2.234      209.404      129.269      100.015    43849.980    16710.542    10002.960        7.686        3.528      288.421      112.374        0.152      340.354       14.314      859.536
09/30/2013  05:20:00     -468.259     -277.935      -11.614      245.876      180.301      102.152    60455.059    32508.421    10435.120       20.000        5.170      544.531      113.267        0.043      340.370       14.340      859.474
09/30/2013  05:21:00     -339.635     -159.540       -7.468      218.245      130.540       93.946    47630.820    17040.717     8825.860       10.716        3.675      375.240      108.035        0.083      340.350       14.306      859.516
09/30/2013  05:22:00     -466.348     -228.639      -21.083      217.075      229.187      110.324    47121.413    52526.897    12171.396       19.099        5.591      519.381      113.446        0.048      340.376       14.349      859.520
09/30/2013  05:23:00     -308.218     -155.454        8.121      208.524      165.709      100.874    43482.452    27459.550    10175.468       10.016        4.056      345.202      111.104        0.104      340.405       14.399      859.413
09/30/2013  05:24:00     -296.613     -102.477        0.798      177.442      147.948       71.828    31485.589    21888.725     5159.218        7.850        2.927      313.817       71.142        0.051      340.452       14.478      859.523
09/30/2013  05:25:00     -351.694     -188.667       -9.533      236.947      168.498       82.884    56143.813    28391.500     6869.711       12.537        4.570      399.104      106.086        0.071      340.371       14.343      859.547
09/30/2013  05:26:00     -308.507     -266.989        3.494      209.970      154.679       90.940    44087.349    23925.550     8270.146       12.136        3.814      407.995      104.532        0.066      340.371       14.343      859.484
09/30/2013  05:27:00     -300.088     -138.654       -5.265      170.392      154.268       69.556    29033.555    23798.553     4838.096        8.348        2.884      330.572       76.128        0.053      340.344       14.298      859.508
09/30/2013  05:28:00     -393.832      -97.985      -22.706      160.753      115.571       75.153    25841.491    13356.629     5647.969       10.502        2.242      405.838       78.112        0.037      340.341       14.291      859.537
09/30/2013  05:29:00     -255.485      -88.917       -7.733      143.017      128.851       76.721    20453.909    16602.629     5886.077        5.808        2.147      270.516       81.314        0.090      340.357       14.319      859.626
09/30/2013  05:30:00     -244.682     -117.740        8.743      192.006      111.056       64.533    36866.198    12333.442     4164.465        6.358        2.668      271.536       81.050        0.089      340.316       14.250      859.703
09/30/2013  05:31:00     -402.734     -212.458      -36.564      190.089      162.084       74.359    36133.942    26271.132     5529.311       13.829        3.397      455.339       68.752        0.023      340.333       14.278      859.726
09/30/2013  05:32:00     -301.842     -157.077        4.234      174.281      167.992       89.410    30373.881    28221.432     7994.201        9.118        3.329      340.267       92.150        0.073      340.315       14.248      859.753
09/30/2013  05:33:00     -218.907     -183.634       10.602      171.912      137.514       93.028    29553.817    18909.967     8654.199        6.942        2.856      285.731      104.876        0.135      340.314       14.246      859.766
09/30/2013  05:34:00     -418.519     -228.901       -8.724      215.118      142.508       81.177    46275.554    20308.473     6589.650       15.039        3.659      477.026       93.994        0.039      340.318       14.251      859.807
09/30/2013  05:35:00     -409.286     -144.612      -19.850      244.242      225.509       99.529    59653.997    50854.277     9906.094       15.459        6.021      434.083      119.478        0.076      340.322       14.260      859.787
09/30/2013  05:36:00     -258.541     -198.346       -8.228      194.315      159.434       90.365    37758.448    25419.122     8165.787        8.878        3.567      325.860      103.213        0.100      340.328       14.271      859.745
09/30/2013  05:37:00     -445.928     -178.358      -20.773      190.323      133.813       74.259    36222.660    17905.796     5514.423       14.536        2.982      480.274       76.641        0.025      340.363       14.329      859.738
09/30/2013  05:38:00     -170.656     -124.211       19.794      173.964      150.655       76.310    30263.579    22696.879     5823.243        5.185        2.939      211.073       88.883        0.177      340.334       14.281      859.719
09/30/2013  05:39:00     -174.993      -55.913       -1.966      215.049      130.391       75.599    46246.195    17001.856     5715.281        5.134        3.448      183.708      104.378        0.323      340.303       14.228      859.646
09/30/2013  05:40:00     -419.243     -133.986      -17.461      204.605      183.257       90.646    41863.077    33583.015     8216.628       13.883        4.183      440.132       96.941        0.049      340.320       14.256      859.683
09/30/2013  05:41:00     -250.383     -174.697       15.846      238.695      155.711      103.063    56975.428    24246.048    10622.049        9.263        4.592      305.304      123.455        0.164      340.314       14.247      859.687
09/30/2013  05:42:00     -481.591     -231.740       -8.605      259.678      174.131       87.414    67432.568    30321.635     7641.280       19.553        5.270      534.446      112.776        0.045      340.344       14.296      859.698
09/30/2013  05:43:00     -428.640     -180.200      -17.154      189.291      200.831       98.890    35831.191    40332.989     9779.173       15.120        4.297      464.978       94.102        0.041      340.376       14.350      859.751
09/30/2013  05:44:00     -460.319     -165.747      -21.969      203.282      168.671       85.050    41323.419    28449.862     7233.534       15.841        3.850      489.250       98.271        0.040      340.356       14.317      859.830
09/30/2013  05:45:00     -334.174     -151.958      -20.427      221.645      145.027       88.092    49126.695    21032.855     7760.268       10.653        3.896      367.101      102.688        0.078      340.342       14.295      859.804
09/30/2013  05:46:00     -188.045      -95.040       27.691      179.585      141.152       80.703    32250.774    19923.938     6512.988        5.191        2.934      210.698       82.032        0.152      340.294       14.213      859.800
09/30/2013  05:47:00     -393.595     -189.247      -15.919      208.148      174.220       92.377    43325.550    30352.584     8533.434       13.658        4.111      436.728       96.369        0.049      340.321       14.258      859.749
09/30/2013  05:48:00     -414.028     -194.619       -3.518      234.945      180.287      104.614    55198.928    32503.423    10944.173       15.396        4.932      457.488      126.427        0.076      340.359       14.322      859.756
09/30/2013  05:49:00     -422.345     -169.877      -23.384      216.596      166.245       91.632    46914.013    27637.349     8396.431       14.535        4.147      455.229      100.498        0.049      340.343       14.295      859.800
09/30/2013  05:50:00     -491.933      -65.552       -5.581      242.580      189.746      107.067    58845.216    36003.731    11463.416       17.630        5.316      496.281      109.839        0.049      340.377       14.353      859.783
09/30/2013  05:51:00     -275.581     -113.912       18.392      224.822      196.000       92.391    50545.148    38416.106     8536.029        9.336        4.875      298.197      114.200        0.147      340.362       14.327      859.812
09/30/2013  05:52:00     -433.061     -158.600      -25.211      185.366      177.513       84.326    34360.518    31510.913     7110.815       14.314        3.649      461.190       77.489        0.028      340.425       14.434      859.881
09/30/2013  05:53:00     -314.906      -89.139        1.519      211.868      152.029       84.786    44888.182    23112.846     7188.616        9.114        3.759      327.279      107.945        0.109      340.376       14.351      859.923
09/30/2013  05:54:00     -285.899      -43.783      -15.832      132.571      115.704       71.009    17575.001    13387.491     5042.253        5.995        1.800      289.232       68.123        0.055      340.336       14.284      859.906
09/30/2013  05:55:00     -194.844      -58.156        2.964      120.355      139.873       72.895    14485.327    19564.364     5313.648        4.035        1.968      203.338       72.954        0.129      340.329       14.270      859.929
09/30/2013  05:56:00     -282.067     -156.450       -9.969      180.123      120.469       64.644    32444.434    14512.766     4178.816        7.763        2.557      322.550       65.512        0.041      340.352       14.312      859.957
09/30/2013  05:57:00     -353.260     -105.403       -5.835      174.735      133.095       79.659    30532.425    17714.319     6345.614        9.525        2.730      368.649       85.520        0.054      340.345       14.299      859.957
09/30/2013  05:58:00     -396.533     -141.166      -30.440      200.254      124.213       83.472    40101.765    15428.878     6967.568       12.028        3.125      420.911       88.188        0.044      340.337       14.286      859.976
09/30/2013  05:59:00     -297.468     -144.209        3.095      224.037      183.900       89.475    50192.373    33819.332     8005.842       10.064        4.601      330.580      101.192        0.094      340.284       14.194      859.967
09/30/2013  06:00:00     -415.317     -140.895      -30.407      266.557      126.489       83.404    71052.383    15999.467     6956.234       14.362        4.700      438.566       84.956        0.038      340.332       14.277      859.974
09/30/2013  06:01:00     -555.064      -56.109      -40.578      214.248      143.020       87.189    45902.237    20454.850     7601.922       19.341        3.698      557.893       82.548        0.022      340.324       14.262      859.958
09/30/2013  06:02:00     -429.706     -199.867      -19.360      210.593      161.582       93.973    44349.299    26108.683     8830.925       15.211        3.964      473.914       97.613        0.042      340.303       14.227      859.973
09/30/2013  06:03:00     -364.313     -193.089       -9.508      209.252      187.258       98.408    43786.226    35065.582     9684.038       12.930        4.427      412.319      112.112        0.074      340.307       14.234      860.003
09/30/2013  06:04:00     -244.976     -146.948        1.388      138.679      117.918       74.409    19231.822    13904.648     5536.765        6.013        1.934      285.669       75.686        0.070      340.319       14.256      860.089
09/30/2013  06:05:00     -275.512     -152.478       -1.488      180.945      137.833       73.415    32741.152    18998.022     5389.707        7.813        2.856      314.891       87.158        0.077      340.305       14.231      860.111
09/30/2013  06:06:00     -356.719     -111.098      -20.287      191.750      169.461       82.086    36768.106    28716.954     6738.085       10.610        3.611      373.619       74.681        0.040      340.293       14.208      860.105
09/30/2013  06:07:00     -405.485     -217.826       -8.254      257.121      204.088      106.965    66111.403    41651.962    11441.540       16.555        5.960      460.289      122.361        0.071      340.336       14.282      860.085
09/30/2013  06:08:00     -329.788     -206.741       -7.614      206.391      154.300       67.448    42597.050    23808.534     4549.251       11.124        3.548      389.233       45.239        0.014      340.315       14.248      860.091
09/30/2013  06:09:00     -260.413      -77.307        7.281      269.980      164.245       93.104    72889.264    26976.395     8668.266        9.117        5.427      271.645      113.238        0.174      340.282       14.193      860.063
09/30/2013  06:10:00     -352.673     -116.010      -18.530      259.898      166.942       88.824    67546.761    27869.639     7889.753       12.072        5.165      371.264      107.146        0.083      340.285       14.196      860.066
09/30/2013  06:11:00     -462.618      -72.160      -25.340      245.119      188.858       90.196    60083.331    35667.405     8135.376       16.185        5.194      468.212      101.491        0.047      340.306       14.232      860.105
09/30/2013  06:12:00     -405.462     -173.759       -9.247      210.825      171.682      108.844    44447.251    29474.629    11847.106       14.021        4.288      441.125      108.345        0.060      340.313       14.244      860.112
09/30/2013  06:13:00     -429.874     -128.167      -13.624      249.172      158.074       99.093    62086.906    24987.423     9819.452       14.913        4.845      448.574      106.025        0.056      340.315       14.248      860.086
09/30/2013  06:14:00     -354.140     -225.361       -6.153      243.359      201.559      102.258    59223.757    40625.987    10456.728       14.325        5.515      419.765      128.049        0.093      340.308       14.237      860.115
09/30/2013  06:15:00     -352.566     -153.787      -16.470      201.739      168.578       92.671    40698.698    28418.594     8587.977       11.295        3.885      384.646      100.610        0.068      340.324       14.263      860.165
09/30/2013  06:16:00     -369.239      -80.198       -7.649      211.472      185.848       79.244    44720.408    34539.492     6279.552       11.417        4.277      377.849       79.336        0.044      340.305       14.230      860.161
09/30/2013  06:17:00     -500.895     -143.154      -11.270      250.793      173.249       86.180    62897.378    30015.088     7427.060       18.591        5.017      520.950       90.274        0.030      340.346       14.300      860.201
09/30/2013  06:18:00     -396.714     -151.725       -9.961      230.667      162.234       84.691    53207.304    26319.965     7172.487       13.358        4.335      424.739      103.621        0.060      340.325       14.264      860.190
09/30/2013  06:19:00     -244.709     -192.041       10.056      197.998      147.300       91.298    39203.347    21697.287     8335.276        8.304        3.462      311.066      114.705        0.136      340.323       14.263      860.163
09/30/2013  06:20:00     -206.676     -156.706        0.639      125.911      119.696       57.286    15853.656    14327.029     3281.644        5.036        1.673      259.368       40.092        0.024      340.303       14.227      860.176
09/30/2013  06:21:00     -500.225      -85.851      -18.882      189.798      168.091       81.246    36023.140    28254.731     6600.844       16.440        3.544      507.539       92.344        0.033      340.305       14.231      860.146
09/30/2013  06:22:00     -502.692     -127.705      -33.020      282.368      169.885      109.008    79731.413    28860.901    11882.665       19.526        6.024      518.659      130.301        0.063      340.324       14.263      860.140
09/30/2013  06:23:00     -500.330     -131.427      -21.433      172.435      179.473       82.554    29733.697    32210.588     6815.153       16.840        3.438      517.304       72.994        0.020      340.353       14.311      860.137
09/30/2013  06:24:00     -269.827     -125.570        5.989      145.604      165.271       88.928    21200.398    27314.412     7908.180        7.251        2.821      297.614       87.465        0.086      340.328       14.269      860.144
09/30/2013  06:25:00     -284.133     -185.705      -14.207      216.625      162.054       98.322    46926.378    26261.498     9667.278        9.912        4.143      339.437      104.363        0.095      340.327       14.269      860.130
09/30/2013  06:26:00     -387.806     -241.558      -16.837      158.449      126.740       72.179    25106.034    16063.102     5209.746       12.769        2.319      456.885       77.951        0.029      340.327       14.269      860.154
09/30/2013  06:27:00     -392.922     -184.195       -5.696      183.421      128.453       84.112    33643.185    16500.257     7074.749       12.277        2.861      433.953       88.381        0.041      340.322       14.259      860.194
09/30/2013  06:28:00     -408.600     -225.795        3.249      202.127      159.274       98.755    40855.382    25368.225     9752.474       14.695        3.799      466.837      103.004        0.049      340.313       14.244      860.194
09/30/2013  06:29:00     -466.422     -245.247      -23.167      182.051      132.926       76.084    33142.586    17669.329     5788.761       16.741        2.830      526.968       76.417        0.021      340.304       14.227      860.162
09/30/2013  06:30:00     -326.166     -107.114      -13.783      199.411      137.571       79.494    39764.719    18925.810     6319.272        9.152        3.250      343.304       81.131        0.056      340.305       14.231      860.075
09/30/2013  06:31:00     -301.298     -131.555        0.603      197.418      185.518       82.839    38974.031    34416.783     6862.334        9.415        4.013      328.766       88.963        0.073      340.375       14.349      860.100
09/30/2013  06:32:00     -286.286     -212.543      -15.123      158.947      188.255       83.913    25264.206    35440.058     7041.342        9.754        3.387      356.558       98.762        0.077      340.475       14.520      860.161
09/30/2013  06:33:00     -446.278     -272.848      -17.301      227.944      173.176       88.433    51958.476    29989.986     7820.402       18.182        4.488      523.077       94.736        0.033      340.439       14.457      860.210
09/30/2013  06:34:00     -519.773     -174.506      -15.120      253.475      224.660       95.555    64249.813    50472.005     9130.818       21.232        6.193      548.285      119.406        0.047      340.399       14.390      860.231
09/30/2013  06:35:00     -200.709      -49.642       20.671      140.862      138.339       70.676    19841.985    19137.580     4995.067        4.357        2.199      206.757       67.918        0.108      340.367       14.335      860.226
09/30/2013  06:36:00     -329.673     -152.573      -17.217      217.621      147.921       92.808    47359.046    21880.497     8613.320       10.504        3.893      363.267       98.462        0.073      340.339       14.290      860.217
09/30/2013  06:37:00     -246.247     -192.627        8.134      153.054      165.638       86.602    23425.407    27436.042     7499.848        7.807        2.918      312.638       86.948        0.077      340.350       14.307      860.156
09/30/2013  06:38:00     -274.723     -203.951       -3.860      159.375      121.720       72.479    25400.329    14815.737     5253.226        8.127        2.273      342.153       84.383        0.061      340.308       14.236      860.191
09/30/2013  06:39:00     -291.796     -134.147       -4.452      151.543      135.136       68.502    22965.377    18261.762     4692.545        7.453        2.296      321.155       67.332        0.044      340.305       14.231      860.137
09/30/2013  06:40:00     -285.374     -164.562        9.628      226.942      168.149      100.285    51502.552    28274.205    10057.152        9.920        4.492      329.422      108.374        0.108      340.332       14.277      860.146
09/30/2013  06:41:00     -375.393     -263.163       -8.489      154.855      126.992       78.595    23980.023    16126.992     6177.225       12.826        2.314      458.448       83.873        0.033      340.394       14.381      860.214
09/30/2013  06:42:00     -231.678     -133.617       -0.215      138.907      102.541       64.743    19295.271    10514.701     4191.709        5.276        1.700      267.447       61.119        0.052      340.325       14.266      860.281
09/30/2013  06:43:00     -349.026     -235.142       -0.734      167.972      181.338      101.640    28214.570    32883.370    10330.641       12.426        3.571      420.845       92.524        0.048      340.334       14.280      860.268
09/30/2013  06:44:00     -279.937     -206.059       -7.293      244.564      169.450      102.508    59811.732    28713.213    10507.834       10.994        4.952      347.599      124.354        0.128      340.309       14.238      860.250
09/30/2013  06:45:00     -378.222     -155.296       -2.073      203.471      152.715       93.722    41400.271    23321.826     8783.722       12.032        3.675      408.863      102.464        0.063      340.317       14.252      860.232
09/30/2013  06:46:00     -347.602     -172.946        2.641      216.285      150.194       79.644    46779.152    22558.202     6343.210       11.320        3.784      388.249      100.794        0.067      340.330       14.274      860.202
09/30/2013  06:47:00     -370.935     -227.310       -3.649      194.413      158.730       98.142    37796.366    25195.322     9631.803       13.094        3.631      435.043      112.049        0.066      340.302       14.226      860.203
09/30/2013  06:48:00     -447.179      -97.504      -17.208      216.910      226.529       87.369    47049.876    51315.410     7633.337       15.786        5.300      457.685       99.817        0.048      340.331       14.275      860.177
09/30/2013  06:49:00     -429.779      -84.400      -10.830      235.387      177.239       98.491    55406.888    31413.523     9700.380       14.422        4.826      437.988      103.401        0.056      340.417       14.421      860.148
09/30/2013  06:50:00     -377.599     -274.004       -1.332      244.203      188.727       97.141    59634.981    35618.006     9436.365       16.115        5.234      466.540      116.295        0.062      340.537       14.622      860.216
09/30/2013  06:51:00     -379.019     -275.033        7.317      194.153      170.987      105.557    37695.318    29236.464    11142.330       14.870        3.904      468.293      111.911        0.057      340.484       14.535      860.259
09/30/2013  06:52:00     -262.306      -78.013       10.003      223.151      132.902       90.209    49796.488    17662.980     8137.727        7.528        3.780      273.661       91.776        0.112      340.421       14.427      860.306
09/30/2013  06:53:00     -397.790     -153.898      -10.290      181.495      165.576       95.654    32940.288    27415.406     9149.598       12.575        3.475      426.523       96.569        0.051      340.380       14.357      860.327
09/30/2013  06:54:00     -395.690     -169.326      -16.837      158.401      145.991       70.122    25090.809    21313.244     4917.073       11.841        2.566      430.397       58.286        0.018      340.353       14.313      860.328
09/30/2013  06:55:00     -274.821     -119.783        6.840      160.053      141.901       73.007    25617.056    20135.930     5329.957        7.049        2.554      299.791       59.319        0.039      340.304       14.230      860.329
09/30/2013  06:56:00     -438.101     -194.542        0.551      167.603      139.896       93.412    28090.850    19570.992     8725.836       14.307        2.819      479.353       88.910        0.034      340.346       14.300      860.327
09/30/2013  06:57:00     -319.437     -219.090      -18.038      208.279      144.135       89.842    43380.192    20774.766     8071.499       11.128        3.611      387.351       97.695        0.064      340.402       14.395      860.310
09/30/2013  06:58:00     -182.280      -98.470        1.236      131.879       99.488       71.371    17392.047     9897.823     5093.843        3.765        1.619      207.178       70.305        0.115      340.395       14.382      860.255
09/30/2013  06:59:00     -317.788     -190.179       -4.875      206.030      184.175       90.421    42448.397    33920.528     8175.927       11.085        4.227      370.348      112.845        0.093      340.377       14.351      860.270
09/30/2013  07:00:00     -347.958     -202.992       -5.425      165.833      128.752       75.835    27500.431    16577.024     5750.893       10.606        2.491      402.841       87.503        0.047      340.365       14.332      860.258
09/30/2013  07:01:00     -280.539     -197.847       -4.341      148.629      138.684       76.820    22090.566    19233.205     5901.329        8.254        2.361      343.286       69.443        0.041      340.381       14.359      860.269
09/30/2013  07:02:00     -289.782     -179.622       -7.936      149.655      141.744       70.438    22396.742    20091.301     4961.486        8.187        2.372      340.936       54.444        0.026      340.333       14.279      860.312
09/30/2013  07:03:00     -313.489     -142.541      -17.703      180.443      173.716       72.636    32559.512    30177.162     5275.925        9.345        3.401      344.373       81.367        0.056      340.330       14.273      860.377
09/30/2013  07:04:00     -198.698     -120.105       -7.650      141.008      147.111       68.772    19883.344    21641.743     4729.603        5.010        2.313      232.177       70.955        0.093      340.284       14.197      860.426
09/30/2013  07:05:00     -306.641     -193.940       -0.216      211.205      167.203      101.043    44607.523    27956.695    10209.636       10.719        4.139      362.824      108.709        0.090      340.346       14.300      860.427
09/30/2013  07:06:00     -243.929     -164.020        4.900      171.779      143.606       74.005    29507.927    20622.574     5476.670        7.101        2.780      293.946       83.144        0.080      340.301       14.224      860.450
09/30/2013  07:07:00     -123.716      -68.639        6.184      117.013      137.040       69.499    13691.936    18779.940     4830.043        2.867        1.865      141.482       63.896        0.204      340.311       14.243      860.441
09/30/2013  07:08:00     -214.603     -110.262       -7.325      126.357      118.408       67.326    15966.034    14020.339     4532.806        4.639        1.726      241.272       69.030        0.082      340.309       14.239      860.446
09/30/2013  07:09:00     -144.649      -31.261        6.222      146.008       88.305       61.039    21318.428     7797.852     3725.806        2.738        1.642      147.989       68.841        0.216      340.253       14.143      860.482
09/30/2013  07:10:00     -359.942      -77.929      -12.242      151.724      118.295       65.718    23020.065    13993.821     4318.872        8.855        2.067      368.281       57.957        0.025      340.329       14.271      860.493
09/30/2013  07:11:00     -369.525     -109.668      -11.988      191.602      155.705       86.163    36711.489    24244.022     7423.991       10.854        3.419      385.456       93.544        0.059      340.325       14.264      860.475
09/30/2013  07:12:00     -346.215     -145.624      -11.818      135.037      132.159       70.804    18234.885    17465.970     5013.211        9.095        2.036      375.594       61.171        0.027      340.326       14.266      860.506
09/30/2013  07:13:00     -297.345     -100.302       -6.242      150.795       97.074       59.656    22739.018     9423.347     3558.809        6.711        1.786      313.806       61.427        0.038      340.342       14.294      860.526
09/30/2013  07:14:00     -338.565      -38.344      -25.806      135.470      134.835       62.714    18352.182    18180.359     3932.998        7.861        2.023      340.730       53.342        0.025      340.336       14.282      860.499
09/30/2013  07:15:00     -249.509      -70.383       -3.158      148.854      135.921       69.312    22157.604    18474.447     4804.100        5.632        2.272      259.246       59.451        0.053      340.343       14.296      860.505
09/30/2013  07:16:00     -387.285      -31.706      -21.871      176.767      131.991       78.252    31246.522    17421.570     6123.390       10.312        2.740      388.580       79.070        0.041      340.366       14.333      860.516
09/30/2013  07:17:00     -384.062     -130.361       -7.612      220.157      153.964       97.943    48469.206    23705.066     9592.775       12.314        4.088      405.583      120.136        0.088      340.387       14.369      860.497
09/30/2013  07:18:00     -370.006     -101.321      -26.908      239.847      144.420       76.733    57526.719    20857.100     5887.881       11.607        4.214      383.628       96.927        0.064      340.414       14.415      860.508
09/30/2013  07:19:00     -403.947     -157.105        3.669      223.956      176.664       91.035    50156.327    31210.092     8287.398       13.874        4.483      433.423      114.903        0.070      340.389       14.373      860.578
09/30/2013  07:20:00     -232.628       -3.730       -4.161      174.592      142.562       70.400    30482.389    20323.945     4956.149        5.494        2.788      232.658       77.511        0.111      340.402       14.394      860.570
09/30/2013  07:21:00     -247.131     -236.373        7.909      176.038      138.281       85.368    30989.380    19121.509     7287.615        8.719        2.870      341.973       96.252        0.079      340.425       14.434      860.579
09/30/2013  07:22:00     -267.434      -59.241       -6.841      130.704      123.637       66.313    17083.458    15285.992     4397.414        5.591        1.838      273.917       62.819        0.053      340.440       14.459      860.585
09/30/2013  07:23:00     -258.993     -162.529        1.950      183.112      145.719       86.597    33530.151    21234.127     7498.969        7.787        3.113      305.766       87.115        0.081      340.458       14.490      860.631
09/30/2013  07:24:00     -206.341      -90.270      -11.204      141.232       86.611       57.682    19946.504     7501.510     3327.187        4.081        1.539      225.223       56.144        0.062      340.477       14.520      860.594
09/30/2013  07:25:00     -104.219      -90.398        3.991       93.581       66.858       38.490     8757.361     4469.931     1481.499        1.688        0.735      137.962       33.365        0.058      340.482       14.530      860.594
09/30/2013  07:26:00     -132.074      -80.753       20.197      117.651       77.965       49.151    13841.835     6078.548     2415.773        2.335        1.117      154.805       44.497        0.083      340.477       14.521      860.629
09/30/2013  07:27:00     -218.946     -155.866       -2.830      144.090      120.529       62.150    20761.792    14527.310     3862.581        5.569        1.958      268.759       73.820        0.075      340.514       14.584      860.667
09/30/2013  07:28:00     -170.604     -112.819       -9.490      108.191       74.354       48.774    11705.349     5528.462     2378.934        3.076        0.981      204.533       39.915        0.038      340.523       14.598      860.619
09/30/2013  07:29:00     -123.955     -128.065       -9.231       67.173       57.360       38.760     4512.189     3290.129     1502.323        2.058        0.465      178.229       33.250        0.035      340.530       14.613      860.617
09/30/2013  07:30:00     -269.978     -136.220      -16.061      125.169       64.685       54.940    15667.179     4184.157     3018.406        5.728        1.143      302.397       66.176        0.048      340.522       14.597      860.710
09/30/2013  07:31:00     -238.313     -128.733       -9.075       94.971       98.507       54.716     9019.460     9703.724     2993.876        4.758        1.086      270.860       58.420        0.047      340.498       14.558      860.709
09/30/2013  07:32:00     -160.223     -169.815       12.494      137.013       99.541       60.985    18772.576     9908.385     3719.188        4.353        1.620      233.470       62.937        0.073      340.500       14.559      860.701
09/30/2013  07:33:00     -140.240      -90.770        0.858       81.474       78.568       52.668     6637.950     6172.885     2773.899        2.174        0.779      167.052       51.663        0.096      340.477       14.521      860.715
09/30/2013  07:34:00     -222.064      -57.430        6.658      116.642       60.086       49.573    13605.324     3610.344     2457.515        3.616        0.984      229.370       50.536        0.049      340.460       14.491      860.716
09/30/2013  07:35:00     -187.245     -118.139       -2.175       91.678       97.848       47.933     8404.765     9574.224     2297.578        3.465        1.014      221.399       33.396        0.023      340.493       14.549      860.761
09/30/2013  07:36:00     -171.886      -63.376        0.743      123.579       95.441       49.355    15271.821     9109.006     2435.957        3.018        1.341      183.198       59.853        0.107      340.472       14.512      860.763
09/30/2013  07:37:00     -283.860     -109.585       -2.164      129.418       88.473       61.914    16748.936     7827.531     3833.351        6.049        1.420      304.278       59.035        0.038      340.614       14.753      860.801
09/30/2013  07:38:00     -202.640      -39.844       -6.047      106.314       99.099       44.575    11302.768     9820.666     1986.933        3.289        1.156      206.520       49.965        0.059      340.515       14.587      860.754
09/30/2013  07:39:00     -248.438      -42.893      -12.425      125.142       77.750       54.551    15660.566     6045.132     2975.804        4.419        1.234      252.114       57.008        0.051      340.528       14.607      860.736
09/30/2013  07:40:00     -200.638      -77.835       -4.917      128.072       80.630       62.887    16402.515     6501.146     3954.781        3.659        1.343      215.207       65.574        0.093      340.613       14.751      860.790
09/30/2013  07:41:00     -154.333     -120.298       -1.338      131.333      110.627       59.457    17248.381    12238.432     3535.088        3.565        1.651      195.679       68.684        0.123      340.629       14.777      860.822
09/30/2013  07:42:00     -259.025     -131.734      -11.350      163.946      118.705       63.622    26878.416    14090.850     4047.736        6.479        2.251      290.599       72.634        0.062      340.595       14.721      860.889
09/30/2013  07:43:00     -228.802      -81.766       -9.395      124.322       73.725       50.360    15455.908     5435.406     2536.160        4.127        1.171      242.973       49.964        0.042      340.571       14.681      860.880
09/30/2013  07:44:00     -301.280      -98.542       -6.436      145.811      118.304       62.391    21260.785    13995.845     3892.670        6.983        1.957      316.986       69.049        0.047      340.536       14.619      860.868
09/30/2013  07:45:00     -224.823     -115.273        8.092      122.353       84.112       59.251    14970.282     7074.824     3510.714        4.472        1.278      252.653       65.212        0.067      340.492       14.546      860.966
09/30/2013  07:46:00     -202.325       -1.921        2.860       96.862      107.648       56.754     9382.341    11588.173     3221.016        3.256        1.210      202.334       40.690        0.040      340.499       14.560      860.974
09/30/2013  07:47:00     -264.304     -145.335      -20.364      119.082      103.433       59.122    14180.497    10698.315     3495.431        5.988        1.419      301.627       61.864        0.042      340.512       14.581      860.906
09/30/2013  07:48:00     -327.242     -114.369       -2.224      151.787      136.291       65.460    23039.267    18575.360     4284.950        8.303        2.295      346.652       80.365        0.054      340.501       14.561      860.911
09/30/2013  07:49:00     -352.016      -89.882      -10.843      147.610      117.120       73.085    21788.697    13716.994     5341.412        8.647        2.042      363.310       71.155        0.038      340.510       14.577      860.919
09/30/2013  07:50:00     -240.885     -143.118        0.965      187.473      140.984       74.391    35146.084    19876.510     5534.033        6.952        3.028      280.193       82.345        0.086      340.513       14.582      860.888
09/30/2013  07:51:00     -180.947      -81.976       -7.134      100.520      108.339       60.171    10104.234    11737.379     3620.594        3.248        1.273      198.651       67.309        0.115      340.514       14.584      860.912
09/30/2013  07:52:00     -349.617     -217.149      -18.443      190.933      157.269       62.549    36455.257    24733.394     3912.381       11.740        3.255      411.566       70.801        0.030      340.542       14.631      860.985
09/30/2013  07:53:00     -267.715     -171.001       -4.667      146.355      135.810       68.611    21419.847    18444.257     4707.477        7.274        2.229      317.668       70.615        0.049      340.525       14.603      861.031
09/30/2013  07:54:00     -262.277      -90.470      -16.066      139.488      126.161       56.473    19456.887    15916.575     3189.173        5.789        1.928      277.442       59.917        0.047      340.516       14.589      861.017
09/30/2013  07:55:00     -208.865     -158.437        4.592      149.678      112.859       72.022    22403.526    12737.057     5187.134        5.453        2.016      262.158       80.114        0.093      340.548       14.642      860.954
09/30/2013  07:56:00     -271.523     -119.237        4.287      112.778       89.313       59.887    12718.959     7976.879     3586.437        5.612        1.214      296.550       59.335        0.040      340.558       14.658      860.966
09/30/2013  07:57:00     -185.649     -131.045        2.011      133.127      103.485       45.842    17722.768    10709.103     2101.461        4.108        1.527      227.241       50.838        0.050      340.565       14.670      861.003
09/30/2013  07:58:00     -215.434      -73.679      -17.614      100.127       95.814       54.156    10025.385     9180.268     2932.895        3.714        1.107      227.685       49.104        0.047      340.561       14.663      861.017
09/30/2013  07:59:00     -310.017      -79.644      -23.544      108.808       92.773       53.788    11839.079     8606.780     2893.178        6.317        1.167      320.084       48.114        0.023      340.543       14.632      861.089
09/30/2013  08:00:00     -282.402     -100.882      -18.107      188.574      122.591       68.601    35560.337    15028.479     4706.049        7.276        2.765      299.880       86.427        0.083      340.550       14.645      861.098
09/30/2013  08:01:00     -292.177      -85.399        7.585      181.818      128.155       79.193    33057.813    16423.800     6271.569        7.422        2.788      304.402       89.169        0.086      340.580       14.697      861.037
09/30/2013  08:02:00     -324.101     -117.839       -7.754      164.332      133.991       81.359    27004.952    17953.519     6619.335        8.527        2.579      344.859       74.824        0.047      340.600       14.729      861.048
09/30/2013  08:03:00     -299.032     -122.992       -5.548      159.212      109.688       62.772    25348.599    12031.480     3940.305        7.294        2.066      323.337       67.883        0.044      340.589       14.710      861.044
09/30/2013  08:04:00     -323.971      -76.852       -6.675      113.456       93.603       64.992    12872.339     8761.578     4224.023        6.838        1.293      332.962       61.055        0.034      340.578       14.693      861.024
09/30/2013  08:05:00     -208.917      -80.760      -10.544      101.995       85.503       51.174    10403.006     7310.772     2618.769        3.530        1.017      223.984       40.256        0.032      340.589       14.710      861.048
09/30/2013  08:06:00     -265.566      -78.408      -10.127      182.165      114.665       71.769    33184.208    13148.018     5150.770        6.412        2.574      276.899       85.803        0.096      340.587       14.707      861.032
09/30/2013  08:07:00     -391.020      -77.091      -18.466      186.216      114.026       76.073    34676.378    13001.872     5787.108       10.631        2.673      398.547       87.849        0.049      340.586       14.706      861.010
09/30/2013  08:08:00     -233.282     -175.744       -0.490      161.633      115.257       76.544    26125.138    13284.122     5859.001        6.528        2.263      292.073       77.984        0.071      340.601       14.731      861.052
09/30/2013  08:09:00     -246.860      -99.279        6.851      134.569      105.924       60.648    18108.755    11219.867     3678.144        5.192        1.650      266.076       65.535        0.061      340.652       14.816      861.043
09/30/2013  08:10:00     -267.572     -146.039        3.091      185.293      164.180       85.035    34333.602    26955.192     7230.885        8.071        3.426      304.831       91.053        0.089      340.651       14.815      861.055
09/30/2013  08:11:00     -194.941      -65.127       14.919      151.615      119.967       70.254    22987.118    14392.070     4935.564        4.238        2.116      205.532       64.406        0.098      340.678       14.864      861.136
09/30/2013  08:12:00     -350.481     -274.658       -2.069      216.782      196.517       98.100    46994.449    38618.792     9623.595       14.674        4.762      445.279       95.636        0.046      340.675       14.856      861.117
09/30/2013  08:13:00     -359.168     -165.012      -16.550      167.083      141.698       70.079    27916.599    20078.409     4910.999       10.469        2.645      395.260       58.516        0.022      340.679       14.862      861.048
09/30/2013  08:14:00     -497.861     -191.036      -15.468      167.319      127.068       72.767    27995.751    16146.218     5294.985       16.701        2.472      533.255       73.519        0.019      340.679       14.862      861.023
09/30/2013  08:15:00     -380.117     -181.646      -16.998      143.084      144.372       71.987    20473.019    20843.158     5182.175       11.213        2.325      421.289       62.189        0.022      340.679       14.863      861.008
09/30/2013  08:16:00     -347.900     -155.000      -22.706      160.493      175.537       70.905    25758.139    30813.284     5027.579       10.357        3.080      380.867       73.606        0.037      340.671       14.849      861.019
09/30/2013  08:17:00     -369.460     -187.855       -5.133      132.019      138.167       70.445    17429.019    19090.013     4962.533       10.664        2.074      414.476       61.550        0.022      340.693       14.887      861.057
09/30/2013  08:18:00     -405.938     -192.397      -33.058      168.628      105.044       71.657    28435.236    11034.335     5134.705       12.374        2.230      449.224       77.844        0.030      340.678       14.862      861.093
09/30/2013  08:19:00     -384.505     -114.096      -15.832      136.495      127.435       68.036    18630.954    16239.732     4628.883       10.030        1.975      401.077       65.457        0.027      340.664       14.837      861.064
09/30/2013  08:20:00     -233.748     -112.824       11.517      250.884      152.222       97.784    62942.600    23171.627     9561.627        8.157        4.784      259.552      123.470        0.226      340.691       14.884      861.065
09/30/2013  08:21:00     -298.025     -196.479       -1.729      168.553      123.776       80.245    28409.996    15320.457     6439.281        8.879        2.508      356.964       95.852        0.072      340.675       14.856      861.068
09/30/2013  08:22:00     -252.216     -161.718       -7.008      138.389      114.509       78.589    19151.651    13112.223     6176.302        6.412        1.922      299.609       77.214        0.066      340.705       14.908      861.078
09/30/2013  08:23:00     -204.626     -160.056        7.389      165.522      142.286       77.783    27397.601    20245.357     6050.265        6.061        2.685      259.788       97.354        0.140      340.693       14.887      861.037
09/30/2013  08:24:00     -197.529      -72.861       -7.667      107.286      104.995       53.202    11510.277    11023.979     2830.404        3.487        1.268      210.539       52.380        0.062      340.686       14.874      861.070
09/30/2013  08:25:00     -259.332      -57.447        8.766      151.495      124.344       75.821    22950.791    15461.372     5748.877        5.739        2.208      265.619       81.316        0.094      340.727       14.944      861.077
09/30/2013  08:26:00     -305.648     -227.901       -0.925      215.191      148.108       93.185    46307.146    21935.908     8683.501       11.113        3.846      381.261      101.426        0.071      340.730       14.949      861.054
09/30/2013  08:27:00     -236.787     -171.517       -2.787      162.642      107.915       72.222    26452.470    11645.619     5216.059        6.440        2.166      292.380       80.743        0.076      340.722       14.936      861.087
09/30/2013  08:28:00     -144.283     -105.308        5.433      123.768      118.341       61.486    15318.555    14004.518     3780.489        3.251        1.655      178.626       72.042        0.163      340.729       14.948      861.081
09/30/2013  08:29:00     -229.029     -104.370       -0.415      182.254      114.041       60.223    33216.372    13005.431     3626.785        5.659        2.492      251.689       70.681        0.079      340.768       15.014      861.114
09/30/2013  08:30:00     -317.091     -197.800        0.046      194.048      129.251       89.123    37654.818    16705.749     7942.993       10.098        3.115      373.727       98.627        0.070      340.772       15.021      861.170
09/30/2013  08:31:00     -299.103     -195.172       -4.335      202.402      137.620       88.870    40966.556    18939.362     7897.878        9.768        3.390      357.148      105.016        0.086      340.757       14.994      861.170
09/30/2013  08:32:00     -291.565     -194.770       -8.088      168.827      141.520       72.980    28502.423    20027.977     5326.086        8.842        2.693      350.636       84.409        0.058      340.743       14.971      861.141
09/30/2013  08:33:00     -274.329     -197.957       -8.987      175.480      156.107       78.589    30793.281    24369.515     6176.182        8.792        3.067      338.294       81.989        0.059      340.737       14.960      861.144
09/30/2013  08:34:00     -246.095     -177.364        2.628      173.344      163.648       86.339    30048.185    26780.604     7454.427        7.814        3.214      303.349      103.918        0.117      340.764       15.007      861.170
09/30/2013  08:35:00     -173.720     -120.947       -1.091      127.642      104.707       57.047    16292.552    10963.562     3254.332        3.765        1.526      211.676       55.847        0.070      340.782       15.039      861.114
09/30/2013  08:36:00     -202.865     -140.867       -4.090      125.810       82.130       55.075    15828.075     6745.403     3033.229        4.331        1.280      246.977       53.566        0.047      340.789       15.050      861.102
09/30/2013  08:37:00     -222.795     -127.479       -1.641      195.334      105.902       73.064    38155.196    11215.251     5338.351        6.029        2.735      256.687       97.320        0.144      340.834       15.126      861.131
09/30/2013  08:38:00      -76.950        9.398       18.683       95.754       81.216       53.809     9168.886     6596.111     2895.407        1.251        0.933       77.522       46.718        0.363      340.815       15.097      861.110
09/30/2013  08:39:00     -108.992      -59.671       22.021       78.188       90.529       56.106     6113.380     8195.573     3147.887        1.669        0.873      124.258       41.909        0.114      340.827       15.116      861.098
09/30/2013  08:40:00     -209.098     -108.929        5.949      139.616      125.534       66.882    19492.581    15758.792     4473.143        4.767        1.986      235.770       77.634        0.108      340.817       15.098      861.138
09/30/2013  08:41:00     -308.050     -142.132       -9.017      134.282       86.076       62.494    18031.786     7409.047     3905.453        7.226        1.467      339.258       64.969        0.037      340.810       15.084      861.120
09/30/2013  08:42:00     -170.612     -108.816       -4.188      121.033       72.760       42.974    14648.905     5293.950     1846.794        3.137        1.089      202.359       46.050        0.052      340.834       15.126      861.124
09/30/2013  08:43:00     -219.860      -67.406       -0.623      107.709       94.211       51.396    11601.142     8875.794     2641.587        3.800        1.156      229.960       55.262        0.058      340.806       15.078      861.111
09/30/2013  08:44:00     -209.121     -141.325       12.236      146.820      146.244       60.386    21556.097    21387.231     3646.502        5.521        2.329      252.397       65.026        0.066      340.809       15.083      861.129
09/30/2013  08:45:00     -112.274      -72.252        9.034       84.325       87.002       45.992     7110.749     7569.273     2115.279        1.735        0.840      133.513       47.167        0.125      340.817       15.099      861.074
09/30/2013  08:46:00     -139.321      -26.690       -2.096       80.172       67.923       36.284     6427.532     4613.471     1316.548        1.624        0.618      141.854       40.801        0.083      340.820       15.104      861.043
09/30/2013  08:47:00     -108.715      -59.782       11.673       91.890       68.764       39.925     8443.824     4728.488     1594.018        1.514        0.738      124.068       38.256        0.095      340.846       15.149      861.080
09/30/2013  08:48:00     -193.623     -146.668       -5.916      125.651      117.400       79.223    15788.127    13782.845     6276.211        4.743        1.792      242.902       64.845        0.071      340.898       15.234      861.093
09/30/2013  08:49:00     -182.663     -153.643      -11.586      120.427      110.586       60.243    14502.645    12229.168     3629.173        4.373        1.518      238.688       72.737        0.093      340.904       15.244      861.164
09/30/2013  08:50:00     -276.517     -173.091        6.157      209.519      123.775       85.112    43898.158    15320.130     7244.024        8.645        3.323      326.225      109.441        0.113      340.878       15.199      861.172
09/30/2013  08:51:00     -356.979      -79.764      -23.786      152.842      110.507       63.580    23360.663    12211.813     4042.463        8.698        1.981      365.782       62.518        0.029      340.852       15.154      861.153
09/30/2013  08:52:00     -299.307      -31.173       -3.370      172.895      122.907       58.605    29892.783    15106.223     3434.504        6.949        2.422      300.926       53.467        0.032      340.881       15.204      861.139
09/30/2013  08:53:00     -257.724      -47.997        7.841      140.609      123.239       68.203    19770.992    15187.828     4651.643        5.419        1.981      262.155       80.080        0.093      340.911       15.256      861.145
09/30/2013  08:54:00     -245.792      -66.662      -18.591      119.122      110.100       68.729    14190.162    12122.030     4723.721        4.811        1.552      254.671       55.822        0.048      340.918       15.266      861.156
09/30/2013  08:55:00     -297.252     -117.127      -15.294      164.449      110.593       60.299    27043.566    12230.815     3635.933        7.260        2.146      319.496       63.920        0.040      340.903       15.241      861.149
09/30/2013  08:56:00     -221.560     -130.773       13.012      145.956      119.127       63.470    21303.078    14191.326     4028.433        5.293        1.976      257.275       65.133        0.064      340.913       15.259      861.191
09/30/2013  08:57:00     -277.481     -122.844       -6.772      140.175      152.149       75.280    19649.062    23149.196     5667.151        7.029        2.423      303.458       74.556        0.060      340.873       15.190      861.204
09/30/2013  08:58:00     -136.601      -51.142       -5.649       76.537       68.044       38.802     5857.988     4629.943     1505.609        1.665        0.600      145.861       33.594        0.053      340.875       15.197      861.151
09/30/2013  08:59:00     -209.152      -92.387      -22.577       65.698       77.807       44.179     4316.187     6053.952     1951.781        3.255        0.616      228.648       38.210        0.028      340.871       15.188      861.124
09/30/2013  09:00:00     -340.498      -86.827      -20.495      143.716       93.566       68.162    20654.354     8754.545     4646.092        7.897        1.703      351.394       68.765        0.038      340.867       15.180      861.094
09/30/2013  09:01:00     -173.871     -101.849       -4.036      159.174       99.076       51.177    25336.339     9816.054     2619.038        3.919        1.889      201.505       74.745        0.138      340.931       15.291      861.129
09/30/2013  09:02:00     -276.918       29.260       -3.117      260.993      127.041       85.660    68117.547    16139.329     7337.560        8.455        4.580      278.459      114.783        0.170      340.951       15.324      861.104
09/30/2013  09:03:00     -281.528      -81.149      -12.246      168.374      110.251       70.585    28349.829    12155.363     4982.232        6.573        2.274      292.990       75.745        0.067      340.967       15.351      861.174
09/30/2013  09:04:00     -147.755      -31.167        4.255      133.587      118.064       71.375    17845.605    13939.017     5094.331        2.984        1.844      151.007       74.431        0.243      340.979       15.371      861.202
09/30/2013  09:05:00     -331.809      -82.906      -21.036      176.136      174.791       54.351    31023.791    30551.825     2954.026        9.096        3.226      342.010       58.510        0.029      340.957       15.335      861.198
09/30/2013  09:06:00     -335.668      -71.296        2.332      176.476      133.874       62.930    31143.678    17922.193     3960.155        8.538        2.651      343.156       80.814        0.055      341.009       15.421      861.242
09/30/2013  09:07:00     -141.554     -100.363        7.439      151.428      120.887       57.508    22930.301    14613.778     3307.123        3.550        2.043      173.523       70.856        0.167      341.079       15.542      861.273
09/30/2013  09:08:00     -232.409     -212.271       -7.491      128.531      118.754       57.868    16520.135    14102.623     3348.701        6.654        1.699      314.759       59.826        0.036      341.087       15.553      861.272
09/30/2013  09:09:00     -190.094      -68.813       -6.532      100.122      128.798       59.009    10024.437    16588.921     3482.049        3.550        1.505      202.166       51.771        0.066      341.068       15.522      861.343
09/30/2013  09:10:00     -191.527     -157.331        3.444      145.672      113.684       49.133    21220.276    12924.152     2414.055        4.900        1.828      247.862       44.592        0.032      341.007       15.419      861.402
09/30/2013  09:11:00     -196.203     -220.773       -6.903      144.829      100.269       74.053    20975.518    10053.819     5483.775        6.189        1.826      295.358       83.313        0.080      340.982       15.375      861.398
09/30/2013  09:12:00      -99.934      -78.515        6.718      105.838      103.507       45.788    11201.623    10713.774     2096.510        2.010        1.201      127.088       54.287        0.182      341.038       15.471      861.419
09/30/2013  09:13:00      -91.489       33.373       21.904      122.247       54.953       49.260    14944.396     3019.834     2426.575        1.517        1.020       97.386       69.191        0.505      341.021       15.445      861.420
09/30/2013  09:14:00     -308.610       -1.196      -28.487      158.307       86.727       45.164    25061.020     7521.505     2039.755        6.533        1.731      308.612       53.693        0.030      340.979       15.370      861.446
09/30/2013  09:15:00     -244.136      -45.178        2.559      158.323      155.687       70.736    25066.315    24238.305     5003.632        5.797        2.715      248.281       77.611        0.098      341.008       15.419      861.475
09/30/2013  09:16:00     -219.816     -228.922       -7.637      117.724       97.343       54.848    13858.865     9475.723     3008.269        6.356        1.317      317.371       32.753        0.011      341.001       15.407      861.532
09/30/2013  09:17:00     -111.242     -158.644        6.060      110.617       88.384       50.637    12236.083     7811.724     2564.093        3.009        1.131      193.759       50.739        0.069      341.016       15.433      861.532
09/30/2013  09:18:00      -61.018       17.450       20.092       60.260       70.959       40.515     3631.298     5035.232     1641.454        0.737        0.515       63.464       40.839        0.414      341.050       15.494      861.469
09/30/2013  09:19:00     -328.678      -53.970      -16.175      179.371      102.269       60.443    32173.884    10458.915     3653.301        7.874        2.314      333.080       79.890        0.058      340.987       15.383      861.468
09/30/2013  09:20:00     -130.942     -115.205       18.799      133.084      113.984       57.930    17711.482    12992.359     3355.915        3.241        1.703      174.408       79.188        0.206      341.027       15.452      861.521
09/30/2013  09:21:00     -152.812        2.910        2.267       95.693       91.435       42.891     9157.143     8360.438     1839.598        2.136        0.968      152.840       44.664        0.085      341.022       15.444      861.591
09/30/2013  09:22:00     -118.328     -175.069       14.481      139.622      142.927       55.173    19494.224    20428.103     3044.067        4.390        2.148      211.307       51.738        0.060      341.041       15.476      861.590
09/30/2013  09:23:00     -149.337      -15.871      -10.260      110.399      153.657       45.345    12187.871    23610.453     2056.167        3.025        1.893      150.178       57.806        0.148      341.037       15.470      861.521
09/30/2013  09:24:00     -180.454       -4.497       -9.170      117.583       79.217       58.568    13825.725     6275.407     3430.230        2.809        1.177      180.510       49.215        0.074      341.038       15.472      861.490
09/30/2013  09:25:00     -285.085      -17.301       -5.522      141.931      122.857       73.407    20144.299    15093.732     5388.547        6.111        2.031      285.609       64.921        0.052      341.027       15.452      861.515
09/30/2013  09:26:00     -142.097      -99.626       18.488      130.576      117.325       72.569    17050.137    13765.198     5266.300        3.326        1.804      173.542       74.475        0.184      341.062       15.513      861.571
09/30/2013  09:27:00     -153.494     -127.073        7.108      114.266       84.839       52.916    13056.820     7197.616     2800.144        3.140        1.153      199.268       52.445        0.069      341.092       15.562      861.588
09/30/2013  09:28:00     -343.375     -148.169       -7.554      143.581      108.520       72.372    20615.635    11776.610     5237.647        8.877        1.881      373.979       68.365        0.033      341.050       15.491      861.581
09/30/2013  09:29:00     -140.798     -176.328        4.634      112.864      109.615       67.553    12738.264    12015.408     4563.398        4.012        1.466      225.645       76.335        0.114      341.083       15.548      861.589
09/30/2013  09:30:00     -166.616     -140.113        6.542      134.595      106.816       57.682    18115.888    11409.690     3327.163        4.014        1.643      217.698       79.340        0.133      341.110       15.594      861.585
09/30/2013  09:31:00     -116.410     -128.495       19.215       87.449      120.849       50.345     7647.263    14604.553     2534.639        2.760        1.239      173.385       46.849        0.073      341.135       15.636      861.567
09/30/2013  09:32:00     -222.019     -126.139       -7.487      117.075      109.087       55.171    13706.543    11900.080     3043.847        4.695        1.433      255.349       51.210        0.040      341.123       15.614      861.543
09/30/2013  09:33:00     -246.787     -172.309      -14.838      155.139      109.544       65.973    24068.114    11999.851     4352.501        6.561        2.021      300.989       60.751        0.041      341.153       15.663      861.575
09/30/2013  09:34:00     -244.791     -124.978        1.491      122.337      134.718       63.064    14966.280    18148.820     3977.087        5.631        1.855      274.849       67.373        0.060      341.172       15.695      861.598
09/30/2013  09:35:00     -256.468     -202.965      -15.958      153.977      119.308       65.688    23709.001    14234.449     4314.933        7.473        2.113      327.063       77.360        0.056      341.160       15.675      861.617
09/30/2013  09:36:00     -293.206     -254.848       -2.734      140.631      135.884       79.796    19777.105    18464.378     6367.453        9.776        2.230      388.481       79.773        0.042      341.124       15.617      861.595
09/30/2013  09:37:00     -208.256     -261.882       -8.454      161.149      160.223       77.914    25969.105    25671.472     6070.637        8.486        2.886      334.593       81.833        0.060      341.134       15.633      861.566
09/30/2013  09:38:00     -115.748      -93.545       14.785       89.507       66.264       41.420     8011.460     4390.958     1715.608        1.824        0.706      148.823       33.629        0.051      341.154       15.669      861.554
09/30/2013  09:39:00     -194.276     -122.639       -1.744      108.733      112.440       57.639    11822.909    12642.841     3322.255        4.028        1.389      229.747       55.243        0.058      341.170       15.691      861.553
09/30/2013  09:40:00     -257.592     -141.166       -8.249      129.256      113.806       56.187    16707.001    12951.875     3156.962        5.958        1.641      293.737       54.803        0.035      341.196       15.737      861.582
09/30/2013  09:41:00     -180.091     -141.432       13.363      137.925      106.981       62.280    19023.253    11444.863     3878.772        4.347        1.717      228.988       67.974        0.088      341.255       15.837      861.597
09/30/2013  09:42:00     -171.896      -73.998        5.462      124.250      129.293       56.889    15438.135    16716.732     3236.346        3.522        1.770      187.146       57.081        0.093      341.288       15.893      861.612
09/30/2013  09:43:00     -212.983     -102.847       -0.893       95.547      119.450       52.597     9129.157    14268.365     2766.453        4.105        1.308      236.515       66.381        0.079      341.283       15.885      861.574
09/30/2013  09:44:00     -104.586      -51.975       -8.291       52.054       56.451       32.084     2709.576     3186.681     1029.356        1.032        0.346      116.789       24.978        0.046      341.300       15.916      861.545
09/30/2013  09:45:00      -29.776       -5.394       26.810       46.272       55.183       29.532     2141.089     3045.188      872.155        0.385        0.303       30.261       31.352        1.073      341.346       15.995      861.506
09/30/2013  09:46:00      -67.465      -86.224       11.242       58.396       62.501       30.618     3410.048     3906.334      937.470        1.018        0.413      109.481       35.492        0.105      341.283       15.887      861.515
09/30/2013  09:47:00      -68.051      -89.687       11.667       92.244       77.099       44.190     8509.028     5944.319     1952.762        1.461        0.820      112.582       35.179        0.098      341.320       15.950      861.537
09/30/2013  09:48:00      -39.269     -217.329       -4.976       63.344       65.664       36.075     4012.513     4311.743     1301.410        2.921        0.481      220.848       26.871        0.015      341.331       15.967      861.521
09/30/2013  09:49:00     -132.402     -133.738        5.483       83.051       76.624       37.538     6897.419     5871.309     1409.120        2.481        0.709      188.192       35.753        0.036      341.302       15.918      861.522
09/30/2013  09:50:00     -267.542     -197.120        9.367      178.018      136.317       84.023    31690.493    18582.269     7059.946        8.392        2.867      332.318       94.259        0.080      341.281       15.881      861.546
09/30/2013  09:51:00     -157.980     -150.951       -1.116      111.603       71.846       53.809    12455.156     5161.825     2895.441        3.412        1.026      218.504       57.458        0.069      341.302       15.916      861.564
09/30/2013  09:52:00     -179.698     -259.782      -14.817      179.661      149.659       61.777    32278.139    22397.958     3816.339        7.923        2.925      315.876       39.355        0.016      341.300       15.914      861.570
09/30/2013  09:53:00     -168.533      -68.669       19.883       88.284       79.981       44.871     7794.082     6396.904     2013.451        2.486        0.810      181.986       46.133        0.064      341.335       15.972      861.600
09/30/2013  09:54:00     -174.315     -167.052       12.019      127.348       85.230       56.988    16217.527     7264.220     3247.684        4.258        1.336      241.437       52.119        0.047      341.324       15.956      861.616
09/30/2013  09:55:00     -133.835     -224.996       11.372      156.691      121.990       66.130    24552.141    14881.498     4373.230        5.623        2.190      261.792       64.885        0.061      341.321       15.949      861.576
09/30/2013  09:56:00      -76.515      -71.512       21.190       92.976       72.302       49.274     8644.494     5227.522     2427.892        1.386        0.815      104.731       48.637        0.216      341.369       16.032      861.572
09/30/2013  09:57:00      -84.721      -40.796        2.176       54.553       43.102       29.351     2976.066     1857.778      861.473        0.727        0.285       94.032       24.702        0.069      341.388       16.064      861.599
09/30/2013  09:58:00     -139.589      -67.472        5.640      121.901       86.295       59.256    14859.771     7446.811     3511.270        2.494        1.291      155.040       43.889        0.080      341.339       15.982      861.610
09/30/2013  09:59:00     -128.532        4.737       11.995       98.832       98.868       49.188     9767.771     9774.940     2419.433        1.932        1.098      128.619       48.506        0.142      341.362       16.020      861.658
09/30/2013  10:00:00     -208.348     -149.028        2.507      145.093      107.683       54.167    21052.077    11595.715     2934.116        5.060        1.779      256.160       61.445        0.058      341.341       15.984      861.699
09/30/2013  10:01:00     -209.654     -228.526        2.768      127.174      119.089       63.673    16173.109    14182.154     4054.198        6.529        1.720      310.127       64.729        0.044      341.316       15.940      861.711
09/30/2013  10:02:00     -155.449      -75.178        0.233       84.085       45.121       43.216     7070.246     2035.884     1867.602        2.039        0.549      172.673       38.797        0.050      341.359       16.016      861.654
09/30/2013  10:03:00      -46.014     -126.566        5.011      102.996       59.739       44.440    10608.119     3568.717     1974.918        1.715        0.808      134.671       30.856        0.052      341.375       16.042      861.638
09/30/2013  10:04:00      -27.404      -54.471       -6.906      115.995       51.372       37.968    13454.783     2639.056     1441.584        1.065        0.877       60.976       25.934        0.181      341.421       16.120      861.664
09/30/2013  10:05:00     -169.509     -115.986        2.697      116.290      113.290       55.280    13523.386    12834.715     3055.917        3.580        1.471      205.393       48.920        0.057      341.340       15.983      861.676
09/30/2013  10:06:00     -173.292     -121.158        1.034      136.159      102.401       68.966    18539.275    10486.024     4756.312        3.924        1.689      211.446       73.895        0.122      341.367       16.028      861.661
09/30/2013  10:07:00      -41.529      -54.510       10.926       63.148       57.076       48.613     3987.731     3257.649     2363.232        0.721        0.480       68.527       24.908        0.132      341.398       16.082      861.605
09/30/2013  10:08:00      -93.869      -68.570        2.982       96.505       69.482       43.736     9313.205     4827.722     1912.850        1.478        0.803      116.246       46.777        0.162      341.404       16.091      861.640
09/30/2013  10:09:00     -159.186     -128.312        6.788      140.520      111.181       61.869    19745.829    12361.132     3827.822        3.889        1.797      204.460       66.009        0.104      341.402       16.087      861.762
09/30/2013  10:10:00     -218.927     -255.750        0.600      157.595      138.739       75.012    24836.117    19248.448     5626.785        8.151        2.486      336.656       83.509        0.062      341.357       16.011      861.786
09/30/2013  10:11:00     -223.811     -210.364        3.703      185.923      110.567       68.323    34567.222    12225.158     4668.085        7.290        2.573      307.155       66.380        0.047      341.336       15.976      861.731
09/30/2013  10:12:00     -212.699     -144.095       10.157      174.283      126.696       78.661    30374.397    16051.901     6187.595        5.935        2.631      256.913       90.059        0.123      341.351       16.000      861.661
09/30/2013  10:13:00     -302.422     -192.639        8.126      176.247      138.192       80.190    31062.950    19096.905     6430.498        9.260        2.830      358.565       85.310        0.057      341.343       15.987      861.657
09/30/2013  10:14:00     -152.862     -206.773        0.910      132.794       98.155       66.254    17634.245     9634.325     4389.582        4.888        1.583      257.141       70.472        0.075      341.387       16.059      861.712
09/30/2013  10:15:00     -189.924      -85.506        3.390      120.954      125.941       57.976    14629.927    15861.079     3361.201        3.862        1.693      208.285       64.233        0.095      341.364       16.023      861.716
09/30/2013  10:16:00      -92.942      -79.641       -8.191       71.387       60.759       35.759     5096.131     3691.625     1278.680        1.256        0.503      122.397       22.417        0.034      341.422       16.122      861.710
09/30/2013  10:17:00     -146.826      -89.959        1.326      102.785       80.592       43.426    10564.855     6495.081     1885.837        2.430        0.947      172.193       45.094        0.069      341.434       16.143      861.723
09/30/2013  10:18:00     -236.589     -229.137      -15.256      152.234      137.200       68.963    23175.153    18823.739     4755.862        7.772        2.338      329.360       61.322        0.035      341.440       16.151      861.734
09/30/2013  10:19:00     -285.277     -206.545       11.606      207.015      125.213       85.541    42855.128    15678.393     7317.191        9.500        3.293      352.198       86.934        0.061      341.432       16.138      861.724
09/30/2013  10:20:00     -149.239     -152.393        2.273      106.260       92.584       46.561    11291.161     8571.808     2167.915        3.376        1.102      213.298       45.851        0.046      341.460       16.184      861.679
09/30/2013  10:21:00      -67.983       -0.046       21.305       86.817       62.923       46.965     7537.250     3959.251     2205.687        0.939        0.685       67.983       46.338        0.465      341.476       16.214      861.613
09/30/2013  10:22:00      -52.783      -76.858       -0.258       62.989       71.476       34.903     3967.631     5108.848     1218.217        0.949        0.515       93.237       21.964        0.055      341.527       16.299      861.657
09/30/2013  10:23:00     -192.525     -123.681      -11.633       75.091       81.268       43.805     5638.623     6604.508     1918.885        3.333        0.708      228.830       38.238        0.028      341.502       16.255      861.700
09/30/2013  10:24:00      -13.665      -75.518       13.239       54.698       66.512       32.939     2991.892     4423.835     1084.960        0.728        0.425       76.745       35.053        0.209      341.551       16.342      861.647
09/30/2013  10:25:00     -183.079     -115.019      -13.445      139.896      100.989       36.399    19570.845    10198.871     1324.865        3.901        1.555      216.211       42.637        0.039      341.529       16.300      861.638
09/30/2013  10:26:00     -144.745      -89.136       12.474      145.286      104.987       57.817    21108.087    11022.313     3342.822        3.226        1.774      169.989       70.244        0.171      341.495       16.245      861.664
09/30/2013  10:27:00      -90.959     -134.495       13.462       64.960      137.937       38.839     4219.765    19026.605     1508.497        2.564        1.238      162.366       24.414        0.023      341.550       16.338      861.693
09/30/2013  10:28:00     -321.442      -30.297      -14.311      128.035       87.920       53.783    16392.956     7729.955     2892.581        6.573        1.351      322.867       61.783        0.037      341.500       16.251      861.660
09/30/2013  10:29:00     -308.836      -94.908      -12.020      176.678      103.783       55.433    31215.280    10770.924     3072.777        7.479        2.253      323.090       57.414        0.032      341.490       16.236      861.613
09/30/2013  10:30:00     -227.767       -5.198       -5.028       53.067       50.056       36.177     2816.059     2505.580     1308.793        2.928        0.332      227.826       25.898        0.013      341.531       16.304      861.642
09/30/2013  10:31:00     -153.994      -99.286        4.513      129.733      128.454       48.185    16830.714    16500.484     2321.775        3.462        1.783      183.226       46.060        0.063      341.592       16.411      861.626
09/30/2013  10:32:00     -154.704     -171.797       -0.931      134.850       86.920       49.918    18184.648     7555.060     2491.810        4.083        1.412      231.188       45.467        0.039      341.665       16.533      861.598
09/30/2013  10:33:00     -232.469     -157.678      -21.828      117.533       91.133       59.769    13813.960     8305.198     3572.383        5.253        1.285      280.899       67.671        0.058      341.685       16.567      861.643
09/30/2013  10:34:00     -315.665     -106.169      -22.976      157.186      103.426       57.544    24707.326    10697.016     3311.332        7.507        1.936      333.041       57.535        0.030      341.701       16.593      861.671
09/30/2013  10:35:00     -145.251      -82.004        3.130       97.243       91.450       40.722     9456.216     8363.071     1658.297        2.365        0.974      166.801       46.485        0.078      341.733       16.649      861.635
09/30/2013  10:36:00     -212.190      -27.082       -1.625      142.564       66.341       49.300    20324.434     4401.068     2430.495        3.645        1.358      213.912       43.641        0.042      341.733       16.648      861.635
09/30/2013  10:37:00     -114.929      -86.676       -5.422       78.821       51.145       32.315     6212.814     2615.847     1044.234        1.531        0.494      143.950       30.244        0.044      341.760       16.696      861.689
09/30/2013  10:38:00      -59.642     -200.857       13.732       46.221       73.394       34.935     2136.400     5386.696     1220.430        2.641        0.437      209.525       28.866        0.019      341.776       16.719      861.753
09/30/2013  10:39:00     -161.338      -47.536        1.174      113.751       77.621       53.858    12939.323     6025.013     2900.639        2.507        1.093      168.196       45.118        0.072      341.742       16.663      861.709
09/30/2013  10:40:00      -58.498      -98.694        1.576       63.492       64.548       51.490     4031.265     4166.390     2651.243        1.200        0.542      114.728       44.716        0.152      341.807       16.775      861.657
09/30/2013  10:41:00     -121.276      -88.144      -10.008       73.413       47.819       34.199     5389.486     2286.624     1169.585        1.571        0.442      149.924       30.952        0.043      341.819       16.795      861.692
09/30/2013  10:42:00      -22.132      -73.880       12.347       77.256       39.150       33.207     5968.453     1532.690     1102.725        0.735        0.430       77.124       28.114        0.133      341.849       16.845      861.722
09/30/2013  10:43:00     -146.814      -55.152       -5.665      116.889       48.520       33.838    13663.153     2354.156     1145.015        2.089        0.858      156.831       36.064        0.053      341.842       16.834      861.674
09/30/2013  10:44:00     -157.335       53.158        5.382      173.327       65.850       49.792    30042.165     4336.174     2479.274        3.223        1.843      166.072       74.144        0.199      341.886       16.908      861.664
09/30/2013  10:45:00      -52.094     -163.207        5.288      140.891      138.811       49.927    19850.168    19268.532     2492.666        3.549        2.081      171.319       65.449        0.146      341.844       16.837      861.670
09/30/2013  10:46:00     -194.832     -155.986       -8.850       98.439       83.802       45.181     9690.181     7022.858     2041.364        4.056        0.938      249.582       37.816        0.023      341.804       16.768      861.615
09/30/2013  10:47:00     -131.470     -119.246       -1.238       59.849       51.627       40.425     3581.903     2665.307     1634.148        1.969        0.394      177.493       39.255        0.049      341.853       16.851      861.653
09/30/2013  10:48:00     -158.877      -73.256       -5.451       64.724       70.455       29.691     4189.252     4963.946      881.575        2.033        0.502      174.952       30.897        0.031      341.889       16.913      861.685
09/30/2013  10:49:00      -20.472       -2.146        5.343       46.965       58.039       31.599     2205.708     3368.567      998.504        0.351        0.329       20.584       31.978        2.414      341.938       16.997      861.674
09/30/2013  10:50:00      -91.888     -100.293       -8.831      172.236       76.711       39.066    29665.117     5884.565     1526.144        2.782        1.854      136.022       56.882        0.175      341.874       16.890      861.654
09/30/2013  10:51:00     -203.051      -93.457       10.293      147.666      110.287       68.305    21805.174    12163.216     4665.575        4.434        1.932      223.526       62.449        0.078      341.941       17.000      861.627
09/30/2013  10:52:00      -85.657      -10.145       19.969       80.868       65.579       49.208     6539.557     4300.604     2421.467        1.055        0.663       86.256       44.463        0.266      341.953       17.022      861.574
09/30/2013  10:53:00      -73.341     -166.430       19.031       88.649      102.426       54.737     7858.688    10491.146     2996.114        2.739        1.067      181.873       44.731        0.060      342.005       17.109      861.584
09/30/2013  10:54:00     -194.148     -138.508        1.518      132.139      140.776       66.985    17460.674    19817.911     4487.023        4.931        2.088      238.491       62.532        0.069      342.029       17.152      861.602
09/30/2013  10:55:00      -86.369     -157.126       11.845       89.337      137.623       49.348     7981.175    18940.123     2435.218        3.082        1.468      179.299       41.186        0.053      342.041       17.172      861.607
09/30/2013  10:56:00     -203.848     -266.816      -12.721      149.246      191.578       67.723    22274.502    36702.013     4586.393        8.822        3.178      335.775       70.479        0.044      342.034       17.158      861.571
09/30/2013  10:57:00     -162.983     -159.256       16.183      176.269      142.025       81.186    31070.644    20171.094     6591.180        5.500        2.892      227.873       95.787        0.177      342.123       17.308      861.569
09/30/2013  10:58:00     -274.111     -146.136        1.777      149.995      137.437       69.890    22498.585    18888.835     4884.582        7.137        2.314      310.632       81.347        0.069      342.123       17.310      861.548
09/30/2013  10:59:00     -264.764     -145.236       -0.725      124.519       89.316       53.634    15505.026     7977.297     2876.560        5.877        1.318      301.983       60.135        0.040      342.162       17.376      861.566
09/30/2013  11:00:00     -136.287      -41.152       10.302       79.273       65.797       42.041     6284.286     4329.226     1767.418        1.637        0.619      142.365       32.304        0.051      342.199       17.439      861.568
09/30/2013  11:01:00      -87.058     -105.304       -2.562       53.887       56.364       33.889     2903.777     3176.890     1148.484        1.295        0.361      136.631       27.939        0.042      342.219       17.475      861.549
09/30/2013  11:02:00      -99.344      -93.085       -0.200       47.159       78.446       36.979     2224.011     6153.851     1367.423        1.414        0.487      136.140       31.210        0.053      342.234       17.503      861.557
09/30/2013  11:03:00     -121.393     -175.938       -3.755       72.698       88.629       39.609     5285.030     7855.026     1568.875        3.020        0.735      213.753       37.944        0.032      342.216       17.470      861.593
09/30/2013  11:04:00      -68.447     -172.584        0.655       60.003       90.766       42.752     3600.349     8238.401     1827.718        2.407        0.683      185.662       25.726        0.019      342.256       17.536      861.579
09/30/2013  11:05:00      -81.351     -141.216       -8.725       64.080       96.271       36.412     4106.234     9268.129     1325.851        2.067        0.735      162.972       27.363        0.028      342.274       17.567      861.551
09/30/2013  11:06:00     -191.216     -164.166       -0.076      116.451      135.523       50.499    13560.888    18366.386     2550.195        4.899        1.724      252.020       46.659        0.034      342.249       17.524      861.497
09/30/2013  11:07:00     -226.264      -99.886       -3.252      129.304      118.517       55.410    16719.553    14046.329     3070.277        4.750        1.692      247.331       65.995        0.071      342.295       17.601      861.519
09/30/2013  11:08:00     -139.412      -36.814       30.607      212.105      117.146       64.705    44988.737    13723.200     4186.773        4.230        3.145      144.191       91.895        0.406      342.277       17.573      861.526
09/30/2013  11:09:00     -408.701     -133.096       -7.175      194.201      163.493       88.291    37714.010    26730.040     7795.268       12.851        3.612      429.827       98.187        0.052      342.263       17.547      861.499
09/30/2013  11:10:00     -309.977     -231.967       -1.624      162.752      132.029       87.522    26488.364    17431.614     7660.114       10.073        2.579      387.162       84.254        0.047      342.248       17.522      861.511
09/30/2013  11:11:00     -267.764     -181.937        8.219      192.416      170.478       94.556    37023.726    29062.892     8940.860        8.993        3.751      323.726      100.634        0.097      342.338       17.675      861.515
09/30/2013  11:12:00     -207.573      -68.091        1.500      123.059       94.377       55.286    15143.477     8906.998     3056.513        3.741        1.355      218.456       59.854        0.075      342.396       17.772      861.561
09/30/2013  11:13:00     -240.232     -131.395      -11.137      119.710      100.888       60.634    14330.533    10178.453     3676.482        5.164        1.409      273.818       62.446        0.052      342.394       17.768      861.600
09/30/2013  11:14:00     -332.704     -167.957       -7.175      151.593      112.125       65.721    22980.416    12572.028     4319.193        8.940        1.994      372.695       62.983        0.029      342.293       17.600      861.623
09/30/2013  11:15:00     -187.434     -153.362       -2.020      145.058       70.815       49.364    21041.836     5014.818     2436.826        4.357        1.425      242.181       52.975        0.048      342.376       17.737      861.618
09/30/2013  11:16:00      -69.555      -65.007        4.642       78.847       64.607       37.107     6216.801     4174.051     1376.922        1.042        0.588       95.205       38.554        0.164      342.444       17.856      861.629
09/30/2013  11:17:00      -92.222      -35.129       -1.879      109.348       38.016       40.124    11957.074     1445.225     1609.941        1.237        0.751       98.687       55.317        0.314      342.436       17.841      861.641
09/30/2013  11:18:00      -84.361     -100.679       -0.225       73.627       76.526       38.092     5420.967     5856.219     1451.015        1.499        0.636      131.351       41.597        0.100      342.438       17.849      861.653
09/30/2013  11:19:00      -77.194     -189.467       -3.123      119.684       89.692       43.070    14324.148     8044.662     1855.047        3.304        1.211      204.589       34.493        0.028      342.449       17.864      861.669
09/30/2013  11:20:00     -186.406     -107.665        4.421      217.520      144.474       70.683    47314.966    20872.833     4996.134        5.976        3.659      215.265       72.779        0.114      342.354       17.703      861.676
09/30/2013  11:21:00     -354.987     -145.204        5.303      148.020      138.993       72.918    21909.950    19318.932     5317.041        9.683        2.327      383.536       76.225        0.039      342.307       17.622      861.631
09/30/2013  11:22:00     -346.285     -249.142       -7.978      194.486      241.132      100.596    37824.661    58144.664    10119.459       14.405        5.304      426.597      114.788        0.072      342.299       17.608      861.624
09/30/2013  11:23:00     -369.659     -206.119       -3.729      182.034      182.055       91.602    33136.434    33144.158     8390.995       12.689        3.734      423.241       96.094        0.052      342.343       17.684      861.627
09/30/2013  11:24:00     -297.434     -160.713      -11.655      132.235      118.813       52.078    17486.136    14116.539     2712.142        7.437        1.716      338.077       41.989        0.015      342.380       17.746      861.639
09/30/2013  11:25:00     -246.828      -75.796        4.650      130.257      102.298       61.143    16966.905    10464.957     3738.427        4.892        1.559      258.204       61.271        0.056      342.456       17.876      861.634
09/30/2013  11:26:00     -252.963     -168.573       -6.377      161.179      134.157       52.947    25978.603    17998.038     2803.354        6.960        2.339      303.986       59.959        0.039      342.478       17.913      861.607
09/30/2013  11:27:00     -296.301     -124.103       -6.953      171.311      161.404       66.858    29347.546    26051.324     4470.059        8.154        2.993      321.241       73.291        0.052      342.385       17.755      861.574
09/30/2013  11:28:00     -243.547     -203.202       -7.821      142.152      133.615       74.724    20207.067    17852.964     5583.711        7.215        2.182      317.185       72.953        0.053      342.412       17.800      861.602
09/30/2013  11:29:00     -248.449      -80.798        1.930      153.909      154.498       75.896    23688.022    23869.784     5760.274        6.078        2.666      261.257       75.603        0.084      342.438       17.845      861.609
09/30/2013  11:30:00     -319.454      -92.096      -11.183      184.224      205.073       83.169    33938.625    42054.820     6917.006        9.677        4.146      332.465       81.626        0.060      342.542       18.021      861.599
09/30/2013  11:31:00     -385.314     -120.804       -6.989      210.442      172.534       77.379    44286.004    29768.130     5987.557       12.156        4.002      403.807       94.249        0.054      342.434       17.839      861.604
09/30/2013  11:32:00     -103.312      -77.272       33.457      106.453      101.356       58.265    11332.228    10273.091     3394.866        2.138        1.250      129.013       65.017        0.254      342.544       18.027      861.621
09/30/2013  11:33:00     -305.903      -64.591       -6.723      191.687      105.821       60.164    36743.807    11198.049     3619.664        7.467        2.578      312.648       73.351        0.055      342.431       17.834      861.615
09/30/2013  11:34:00     -144.063      -88.445       13.579      127.791       93.738       53.032    16330.511     8786.808     2812.409        2.834        1.396      169.047       47.724        0.080      342.468       17.897      861.619
09/30/2013  11:35:00     -137.125      -75.524        0.231       96.571       98.954       47.348     9325.872     9791.900     2241.862        2.293        1.068      156.547       39.650        0.064      342.498       17.948      861.652
09/30/2013  11:36:00     -261.724     -154.120       -9.377      188.847      124.159       67.901    35663.063    15415.398     4610.576        7.400        2.784      303.731       67.251        0.049      342.488       17.929      861.639
09/30/2013  11:37:00     -348.942     -132.317       -1.779      181.494      145.847       72.357    32940.076    21271.229     5235.539        9.935        2.972      373.187       64.651        0.030      342.500       17.951      861.642
09/30/2013  11:38:00     -378.772     -196.450      -11.394      186.658      163.657       81.499    34841.047    26783.722     6642.154       12.522        3.413      426.686       81.650        0.037      342.474       17.907      861.667
09/30/2013  11:39:00     -241.572     -213.391      -18.364      130.600      121.571       63.411    17056.293    14779.562     4021.017        7.004        1.793      322.324       59.024        0.034      342.475       17.909      861.650
09/30/2013  11:40:00     -213.031     -228.841       -1.188      209.173      235.425       81.580    43753.159    55424.788     6655.332       10.177        5.292      312.650       87.824        0.079      342.492       17.936      861.625
09/30/2013  11:41:00     -220.668     -254.880       10.597      152.811      213.016       68.833    23351.226    45375.982     4737.996        9.360        3.673      337.132       63.983        0.036      342.540       18.019      861.631
09/30/2013  11:42:00     -233.564     -132.228       15.291      200.879      137.871       84.063    40352.294    19008.284     7066.660        6.934        3.321      268.396      109.806        0.167      342.715       18.316      861.631
09/30/2013  11:43:00     -187.100      -43.950        6.428      219.238      137.293       72.016    48065.369    18849.468     5186.285        5.453        3.605      192.192       94.100        0.240      342.624       18.162      861.632
09/30/2013  11:44:00     -325.039     -103.565      -26.093      181.473      150.810       61.500    32932.461    22743.696     3782.262        8.825        2.973      341.140       43.908        0.017      342.546       18.028      861.613
09/30/2013  11:45:00     -281.511      -48.495       17.226      190.400      124.577       67.696    36252.064    15519.477     4582.769        6.911        2.818      285.658       67.877        0.056      342.670       18.240      861.635
09/30/2013  11:46:00     -164.034     -156.864       23.097      141.683      149.006       64.542    20074.021    22202.872     4165.715        4.924        2.322      226.966       76.560        0.114      342.630       18.173      861.642
09/30/2013  11:47:00     -266.612     -111.318       -1.281      168.630      141.612       59.566    28436.097    20053.996     3548.130        6.775        2.602      288.918       77.374        0.072      342.618       18.151      861.639
09/30/2013  11:48:00     -296.988     -252.481      -13.033      161.097      123.043       75.409    25952.365    15139.667     5686.460        9.944        2.339      389.806       59.603        0.023      342.511       17.969      861.629
09/30/2013  11:49:00     -199.485     -187.672        7.264      141.213      113.174       59.485    19941.214    12808.314     3538.444        5.567        1.814      273.888       64.219        0.055      342.609       18.134      861.619
09/30/2013  11:50:00     -362.664     -150.709      -27.308      154.833       96.816       53.960    23973.268     9373.383     2911.719        9.561        1.813      392.732       68.525        0.030      342.636       18.182      861.586
09/30/2013  11:51:00     -361.552     -137.762       -9.994      212.771      158.477       87.274    45271.437    25115.026     7616.747       11.389        3.900      386.909      101.000        0.068      342.584       18.091      861.548
09/30/2013  11:52:00     -365.284     -255.127      -31.129      166.938      142.100       72.797    27868.418    20192.386     5299.387       12.642        2.668      445.558       74.114        0.028      342.587       18.098      861.571
09/30/2013  11:53:00     -255.347      -44.601      -10.381       77.138      103.076       58.485     5950.240    10624.570     3420.469        4.364        1.000      259.213       34.954        0.018      342.716       18.316      861.593
09/30/2013  11:54:00     -360.543     -232.135      -18.389      145.237      164.743       69.128    21093.754    27140.339     4778.732       11.860        2.651      428.809       67.384        0.025      342.631       18.172      861.604
09/30/2013  11:55:00     -334.591     -144.386      -15.988      180.939      123.535       66.389    32738.773    15260.970     4407.482        9.272        2.620      364.415       75.359        0.043      342.689       18.273      861.597
09/30/2013  11:56:00     -301.074     -158.379       10.842      194.615      187.891       69.926    37875.193    35302.869     4889.600        9.694        3.903      340.190       66.598        0.038      342.709       18.304      861.576
09/30/2013  11:57:00     -363.569     -146.051      -25.280      161.585      145.338       74.218    26109.699    21123.030     5508.272       10.344        2.637      391.808       61.432        0.025      342.610       18.137      861.558
09/30/2013  11:58:00     -315.162     -196.558      -17.811      154.530      162.039       68.133    23879.497    26256.493     4642.154        9.652        2.739      371.433       73.010        0.039      342.683       18.261      861.544
09/30/2013  11:59:00     -223.088      -96.814       -5.126      122.322      135.241       65.956    14962.618    18290.258     4350.249        4.838        1.880      243.189       63.450        0.068      342.855       18.553      861.557
09/30/2013  12:00:00     -280.815     -309.007       -3.857      152.395      151.814       79.010    23224.364    23047.427     6242.591       11.343        2.626      417.543       82.823        0.039      342.794       18.450      861.510
09/30/2013  12:01:00     -358.596     -129.919       -9.873      178.953      165.189       76.686    32024.067    27287.429     5880.747       10.537        3.260      381.405       80.160        0.044      342.799       18.458      861.530
09/30/2013  12:02:00     -428.530     -275.834       -5.037      186.942      125.680       81.115    34947.166    15795.407     6579.582       15.852        2.866      509.630       87.737        0.030      342.794       18.450      861.491
09/30/2013  12:03:00     -324.083     -194.439       -7.780      161.127      149.300       86.186    25961.980    22290.482     7428.100        9.928        2.784      377.938       86.907        0.053      342.878       18.594      861.506
09/30/2013  12:04:00     -412.390     -200.232      -17.859      216.407      137.106       70.347    46832.118    18798.036     4948.680       14.051        3.529      458.430       87.808        0.037      342.822       18.497      861.492
09/30/2013  12:05:00     -459.529     -224.791      -13.962      291.109      224.004      109.069    84744.398    50177.655    11895.962       20.433        7.341      511.564      145.739        0.081      342.704       18.296      861.493
09/30/2013  12:06:00     -541.403     -298.041       -9.351      219.184      210.772      103.073    48041.598    44424.659    10624.087       24.254        5.155      618.017      104.082        0.028      342.656       18.215      861.493
09/30/2013  12:07:00     -450.785     -253.192        9.872      255.218      183.451      103.291    65135.995    33654.293    10669.123       18.841        5.473      517.024      108.850        0.044      342.625       18.162      861.500
09/30/2013  12:08:00     -270.783      -83.065        3.737      183.177      157.204       90.855    33553.747    24713.073     8254.673        7.337        3.326      283.237      100.282        0.125      342.793       18.448      861.495
09/30/2013  12:09:00     -349.454     -176.403       -0.757      209.027      203.847       93.041    43692.095    41553.485     8656.633       12.355        4.695      391.454       97.390        0.062      342.801       18.461      861.469
09/30/2013  12:10:00     -421.764     -222.853       -5.434      264.237      155.694       94.909    69820.997    24240.773     9007.718       16.530        5.153      477.020      120.327        0.064      342.795       18.452      861.459
09/30/2013  12:11:00     -435.224     -233.474      -18.953      283.510      182.208       80.976    80377.747    33199.686     6557.181       18.219        6.007      493.892       95.976        0.038      342.764       18.400      861.451
09/30/2013  12:12:00     -151.487     -233.978       17.719      143.132      149.108       66.977    20486.828    22233.101     4485.878        6.260        2.360      278.736       69.758        0.063      342.940       18.697      861.452
09/30/2013  12:13:00     -280.406     -193.492      -11.689      133.302       95.707       68.961    17769.452     9159.737     4755.616        7.394        1.584      340.685       63.434        0.035      342.952       18.720      861.462
09/30/2013  12:14:00     -304.459     -122.406        0.066      195.704      114.821       64.030    38300.012    13183.863     4099.821        8.162        2.779      328.144       81.430        0.062      343.035       18.858      861.459
09/30/2013  12:15:00     -314.651     -280.260        7.908      182.173      163.209       84.304    33186.937    26637.267     7107.206       12.226        3.347      421.368       82.764        0.039      342.904       18.638      861.428
09/30/2013  12:16:00     -433.887     -296.298       -1.575      238.519      212.628       95.122    56891.466    45210.489     9048.247       19.358        5.558      525.405      110.124        0.044      342.842       18.532      861.416
09/30/2013  12:17:00     -429.116     -327.519       -6.545      223.625      209.893      109.408    50008.118    44055.207    11970.215       19.872        5.302      539.823      106.439        0.039      342.874       18.586      861.408
09/30/2013  12:18:00     -265.103     -219.861       -0.698      218.920      158.359       76.139    47925.836    25077.555     5797.109        9.869        3.940      344.410       69.918        0.041      342.940       18.699      861.398
09/30/2013  12:19:00     -311.548     -238.058      -10.106      229.735      161.962       76.713    52777.951    26231.620     5884.850       11.935        4.245      392.089       86.118        0.048      342.957       18.728      861.405
09/30/2013  12:20:00     -287.131     -242.453        7.248      215.846      176.528       85.818    46589.369    31162.234     7364.670       11.318        4.256      375.803      104.930        0.078      343.098       18.966      861.394
09/30/2013  12:21:00     -263.549     -179.795        1.719      177.132      121.970       75.696    31375.697    14876.617     5729.846        7.687        2.599      319.036       78.293        0.060      343.142       19.041      861.390
09/30/2013  12:22:00     -154.228     -141.013        3.422      184.120      149.374       83.323    33900.038    22312.507     6942.688        5.341        3.158      208.976       82.244        0.155      343.266       19.254      861.398
09/30/2013  12:23:00     -243.638      -40.895       11.561      202.085      121.244       93.509    40838.350    14700.109     8743.840        6.271        3.214      247.046      107.021        0.188      343.096       18.965      861.385
09/30/2013  12:24:00     -259.778     -202.802       -8.072      213.798      156.247       89.741    45709.394    24413.242     8053.478        9.341        3.909      329.565       96.450        0.086      342.984       18.774      861.328
09/30/2013  12:25:00     -460.176     -159.621      -31.339      175.617      151.312       80.593    30841.417    22895.259     6495.198       14.922        3.012      487.074       80.801        0.028      343.004       18.807      861.304
09/30/2013  12:26:00     -232.628     -242.566       10.429      185.814      187.300       93.934    34526.849    35081.253     8823.595        9.573        3.922      336.086      103.828        0.095      343.052       18.888      861.301
09/30/2013  12:27:00     -291.892     -118.197        1.689      146.999      128.017       70.125    21608.778    16388.302     4917.509        7.104        2.146      314.916       73.233        0.054      343.156       19.065      861.288
09/30/2013  12:28:00     -387.356     -276.677        1.188      198.459      126.934       92.694    39386.124    16112.130     8592.245       14.533        3.205      476.020      102.642        0.046      343.100       18.970      861.275
09/30/2013  12:29:00     -356.851     -232.551       -9.685      155.287      143.748       76.433    24114.011    20663.596     5842.063       11.606        2.531      425.937       57.783        0.018      343.206       19.150      861.269
09/30/2013  12:30:00     -224.750     -296.745      -21.877      124.706      165.373       77.493    15551.675    27348.152     6005.226        9.397        2.445      372.250       66.546        0.032      343.210       19.157      861.304
09/30/2013  12:31:00     -323.679     -212.243       -5.381      172.477      174.129       79.591    29748.460    30320.776     6334.707       10.811        3.320      387.060       75.444        0.038      343.286       19.287      861.232
09/30/2013  12:32:00     -269.394     -183.776        9.216      226.640      174.278       92.592    51365.656    30372.982     8573.203        9.835        4.516      326.109      109.032        0.112      343.468       19.599      861.232
09/30/2013  12:33:00     -318.434     -221.989       -4.463      156.778      111.436       77.140    24579.422    12418.010     5950.612        9.681        2.147      388.174       56.630        0.021      343.414       19.504      861.255
09/30/2013  12:34:00     -451.273     -187.358        1.859      228.764      161.273      110.277    52332.836    26009.017    12161.051       16.461        4.525      488.621      115.870        0.056      343.282       19.279      861.277
09/30/2013  12:35:00     -346.081      -69.251        2.684      208.210      221.619       90.815    43351.410    49115.006     8247.406       11.262        5.036      352.941      104.567        0.088      343.046       18.878      861.227
09/30/2013  12:36:00     -384.609     -262.870      -16.867      171.963      125.872       74.720    29571.200    15843.819     5583.059       13.414        2.550      465.859       72.614        0.024      343.053       18.890      861.217
09/30/2013  12:37:00     -497.004     -295.882      -15.030      212.401      167.179      103.184    45114.017    27948.925    10646.854       20.923        4.185      578.411      111.240        0.037      343.084       18.943      861.183
09/30/2013  12:38:00     -501.853     -106.075       -2.733      277.034      209.969      112.608    76748.053    44086.778    12680.481       19.829        6.676      512.941      127.943        0.062      343.146       19.049      861.143
09/30/2013  12:39:00     -336.562     -156.508       -4.533      218.600      188.540       95.712    47786.161    35547.261     9160.737       11.512        4.625      371.172      120.354        0.105      343.271       19.260      861.135
09/30/2013  12:40:00     -455.593     -213.665       -7.854      231.274      194.159       82.496    53487.629    37697.701     6805.649       17.562        4.900      503.208       82.978        0.027      343.231       19.193      861.130
09/30/2013  12:41:00     -313.147     -233.835        9.363      191.239      109.028       88.099    36572.466    11887.163     7761.485       10.451        2.811      390.819      112.392        0.083      343.226       19.184      861.160
09/30/2013  12:42:00     -348.183     -254.490       -0.726      187.961      127.560       87.367    35329.524    16271.677     7632.957       12.260        2.962      431.273       93.521        0.047      343.223       19.180      861.147
09/30/2013  12:43:00     -318.411     -215.406      -10.315      172.510      150.441       78.850    29759.782    22632.481     6217.341       10.324        2.930      384.429       84.295        0.048      343.234       19.199      861.165
09/30/2013  12:44:00     -403.878     -313.459       20.258      288.466      191.523      123.578    83212.744    36681.146    15271.605       19.845        6.758      511.247      159.343        0.097      343.148       19.050      861.109
09/30/2013  12:45:00     -315.758     -221.576        7.631      291.858      142.068      125.100    85181.217    20183.236    15650.114       13.491        6.051      385.745      153.868        0.159      343.254       19.234      861.122
09/30/2013  12:46:00     -365.361     -223.915       35.040      333.018      157.855      118.243   110900.770    24918.114    13981.514       16.730        7.490      428.517      130.381        0.093      343.177       19.102      861.102
09/30/2013  12:47:00     -327.951     -252.813       -0.231      219.764      195.167      107.760    48296.381    38089.997    11612.242       13.471        4.900      414.085      129.686        0.098      343.220       19.175      861.119
09/30/2013  12:48:00     -367.609     -223.573      -26.419      209.986      182.880       78.648    44094.016    33445.256     6185.576       13.476        4.186      430.257       93.589        0.047      343.053       18.891      861.098
09/30/2013  12:49:00     -221.888     -104.289       -6.121      204.871      123.216       69.448    41971.972    15182.069     4823.059        6.105        3.099      245.174       71.146        0.084      343.298       19.308      861.075
09/30/2013  12:50:00     -217.419     -229.369       -9.441      114.692      113.696       62.839    13154.266    12926.778     3948.732        6.499        1.501      316.040       48.232        0.023      343.419       19.513      861.103
09/30/2013  12:51:00      -94.401     -245.388        9.598      163.133      129.207       70.782    26612.393    16694.346     5010.089        5.876        2.416      262.920       57.042        0.047      343.462       19.587      861.076
09/30/2013  12:52:00     -463.543     -365.956      -13.047      248.819      191.542      112.979    61910.964    36688.478    12764.313       23.014        5.568      590.589      133.205        0.051      343.213       19.163      861.081
09/30/2013  12:53:00     -328.300     -439.144        0.099      236.901      256.494      103.284    56122.200    65789.290    10667.610       21.658        6.629      548.296      122.104        0.050      343.228       19.186      861.057
09/30/2013  12:54:00     -331.176     -364.621        0.739      183.285      218.772      100.227    33593.457    47861.149    10045.351       16.705        4.575      492.571       92.806        0.035      343.371       19.433      861.068
09/30/2013  12:55:00     -372.899     -259.260        1.949      213.477      171.375      100.426    45572.483    29369.416    10085.390       14.563        4.251      454.169      114.860        0.064      343.331       19.362      861.051
09/30/2013  12:56:00     -289.258     -183.445       14.549      245.105      127.081       96.466    60076.314    16149.586     9305.677       10.152        4.277      342.524       92.590        0.073      343.363       19.419      861.070
09/30/2013  12:57:00     -440.362     -321.986      -14.358      224.479      175.192      105.609    50391.014    30692.231    11153.178       19.500        4.612      545.522      114.835        0.044      343.324       19.353      861.074
09/30/2013  12:58:00     -384.929     -262.850        2.707      224.469      206.656      103.813    50386.452    42706.801    10777.078       16.055        5.194      466.112      123.031        0.070      343.300       19.311      861.069
09/30/2013  12:59:00     -300.177     -259.554        8.879      225.583      181.356      106.264    50887.742    32889.822    11291.969       12.629        4.753      396.830      118.449        0.089      343.300       19.313      861.088
09/30/2013  13:00:00     -423.038     -292.824      -16.136      221.252      161.092       89.797    48952.468    25950.770     8063.583       17.395        4.148      514.497       64.940        0.016      343.249       19.224      861.030
09/30/2013  13:01:00     -301.171     -245.757      -15.402      175.152      149.580       77.786    30678.063    22374.122     6050.723       10.521        2.955      388.716       68.245        0.031      343.456       19.577      861.029
09/30/2013  13:02:00     -443.204     -132.163      -13.544      172.947      165.146       91.101    29910.690    27273.225     8299.436       13.977        3.274      462.489      102.738        0.049      343.300       19.311      861.025
09/30/2013  13:03:00     -471.099     -353.039       -8.896      305.241      224.057      118.574    93172.045    50201.754    14059.682       25.201        7.872      588.702      142.563        0.059      343.184       19.112      861.024
09/30/2013  13:04:00     -330.404     -288.201       -8.494      196.317      172.168      104.453    38540.262    29641.649    10910.478       13.568        3.955      438.436      113.776        0.067      343.193       19.130      860.990
09/30/2013  13:05:00     -226.936      -81.852       -2.986      163.126      130.151       82.598    26610.229    16939.187     6822.471        5.428        2.519      241.246       78.067        0.105      343.485       19.626      860.976
09/30/2013  13:06:00     -299.393     -154.428       -2.059      139.189      137.921       74.208    19373.472    19022.168     5506.789        7.869        2.195      336.874       62.409        0.034      343.539       19.718      861.012
09/30/2013  13:07:00     -429.398     -144.596        9.894      232.081      179.050       95.716    53861.807    32058.913     9161.572       15.022        4.754      453.090       98.922        0.048      343.518       19.683      860.999
09/30/2013  13:08:00     -448.379     -216.295      -12.360      214.938      179.947       94.661    46198.510    32380.923     8960.691       16.774        4.377      497.823      101.346        0.041      343.203       19.146      860.997
09/30/2013  13:09:00     -305.001     -147.606        5.378      203.205      127.889       76.868    41292.072    16355.550     5908.715        8.919        3.178      338.841       91.304        0.073      343.434       19.540      860.978
09/30/2013  13:10:00     -405.489     -281.506       -2.825      199.565      158.557       89.261    39826.230    25140.349     7967.566       15.829        3.647      493.626       95.164        0.037      343.367       19.425      860.986
09/30/2013  13:11:00     -484.729     -342.715       -2.653      231.244      179.755      102.366    53473.590    32311.770    10478.844       22.432        4.813      593.646      105.568        0.032      343.296       19.304      860.939
09/30/2013  13:12:00     -343.221     -248.419       -5.946      183.141      138.111       93.330    33540.499    19074.664     8710.406       12.042        3.066      423.689       97.658        0.053      343.404       19.487      860.919
09/30/2013  13:13:00     -275.339     -236.611      -11.972      217.585      157.598       58.407    47343.365    24837.095     3411.386       10.375        3.780      363.038       57.539        0.025      343.457       19.579      860.929
09/30/2013  13:14:00     -162.818     -167.887        4.100      137.724      100.751       52.867    18967.971    10150.832     2794.951        4.331        1.596      233.872       63.230        0.073      343.708       20.008      860.904
09/30/2013  13:15:00     -571.275     -174.825       -6.553      224.599      172.380       91.166    50444.885    29714.761     8311.177       22.270        4.424      597.427       89.241        0.022      343.531       19.706      860.866
09/30/2013  13:16:00     -417.757     -270.406      -31.256      209.836      205.068       94.745    44031.042    42052.726     8976.550       17.182        4.753      497.634       87.978        0.031      343.630       19.874      860.873
09/30/2013  13:17:00     -494.699     -280.940       -9.199      246.734      179.826       88.645    60877.821    32337.361     7857.871       21.239        5.054      568.906       73.805        0.017      343.523       19.692      860.877
09/30/2013  13:18:00     -582.314     -343.903      -21.307      264.764      184.552      115.935    70099.714    34059.297    13440.985       28.768        5.880      676.283      125.392        0.034      343.302       19.314      860.891
09/30/2013  13:19:00     -510.689     -371.389      -16.795      255.055      204.432      130.004    65052.849    41792.262    16900.913       26.136        6.187      631.453      131.222        0.043      343.239       19.207      860.850
09/30/2013  13:20:00     -463.923     -251.875      -14.912      246.795      173.008       81.254    60907.873    29931.862     6602.168       18.815        4.872      527.888       76.436        0.021      343.345       19.389      860.826
09/30/2013  13:21:00     -216.587     -219.638        9.287      169.828      231.841       73.753    28841.634    53750.352     5439.468        9.162        4.402      308.465       91.076        0.087      343.566       19.764      860.848
09/30/2013  13:22:00     -193.409     -395.422        7.344      199.173      246.745      102.429    39669.891    60883.332    10491.737       15.241        5.552      440.188       96.645        0.048      343.571       19.773      860.798
09/30/2013  13:23:00     -304.510     -254.343       -2.876      196.354      127.796       78.394    38554.895    16331.764     6145.602       10.922        3.052      396.758       82.343        0.043      343.631       19.876      860.815
09/30/2013  13:24:00     -357.950     -236.093        7.083      169.143      149.964       81.034    28609.213    22489.137     6566.538       12.078        2.883      428.799       91.604        0.046      343.633       19.877      860.792
09/30/2013  13:25:00     -420.732     -228.609       -9.691      331.560      193.113       88.317   109932.225    37292.639     7799.896       19.217        7.751      478.829      115.583        0.058      343.519       19.684      860.798
09/30/2013  13:26:00     -440.506     -239.110       17.452      247.372      260.052      112.164    61193.050    67627.107    12580.733       19.643        7.070      501.218      126.192        0.063      343.505       19.660      860.760
09/30/2013  13:27:00     -309.639     -244.570       -3.151      213.210      160.596       94.964    45458.308    25791.175     9018.154       11.797        4.013      394.577       99.136        0.063      343.474       19.608      860.750
09/30/2013  13:28:00     -399.534     -239.075        2.419      219.086      182.379      107.601    47998.832    33261.921    11578.065       15.480        4.642      465.601      111.110        0.057      343.489       19.633      860.727
09/30/2013  13:29:00     -256.064     -235.187       -0.909      236.054      129.401       81.530    55721.404    16744.639     6647.207        9.998        3.956      347.680       93.697        0.073      343.572       19.775      860.749
09/30/2013  13:30:00     -393.936     -296.215       -1.520      238.583      196.029      110.339    56921.708    38427.402    12174.639       17.521        5.376      492.878      105.726        0.046      343.500       19.653      860.740
09/30/2013  13:31:00     -498.025     -350.082      -15.956      230.509      204.904      105.468    53134.454    41985.687    11123.567       23.852        5.312      608.758      101.083        0.028      343.449       19.565      860.658
09/30/2013  13:32:00     -350.107     -184.547        7.764      230.770      153.141       93.089    53254.629    23452.095     8665.573       12.102        4.269      395.769       94.090        0.057      343.660       19.926      860.687
09/30/2013  13:33:00     -434.559     -258.801       -3.035      265.892      165.759      111.016    70698.442    27475.980    12324.524       18.314        5.525      505.786      136.224        0.073      343.548       19.733      860.691
09/30/2013  13:34:00     -474.449     -347.565      -15.019      280.256      229.160      115.034    78543.665    52514.360    13232.718       24.518        7.215      588.136      140.213        0.057      343.336       19.372      860.686
09/30/2013  13:35:00     -437.636     -252.514       -5.380      262.337      179.834       92.047    68820.669    32340.159     8472.687       18.245        5.482      505.261      103.864        0.042      343.342       19.384      860.667
09/30/2013  13:36:00     -363.851     -229.232        0.815      209.582      148.854       90.009    43924.517    22157.566     8101.576       12.954        3.709      430.041       91.377        0.045      343.494       19.643      860.667
09/30/2013  13:37:00     -498.390     -382.030      -25.074      280.285      212.510       95.899    78559.936    45160.349     9196.669       26.392        6.646      627.965      105.281        0.028      343.431       19.534      860.652
09/30/2013  13:38:00     -537.350     -287.225       -9.824      364.788      261.826      122.015   133070.298    68552.659    14887.605       29.388       10.826      609.297      150.081        0.061      343.422       19.519      860.607
09/30/2013  13:39:00     -468.908     -295.040       12.258      316.342      238.361      122.705   100072.077    56816.140    15056.625       23.947        8.597      554.006      161.349        0.085      343.403       19.487      860.600
09/30/2013  13:40:00     -494.273     -307.736       -0.740      314.555      262.791      143.024    98945.133    69058.967    20455.921       26.370        9.423      582.243      158.462        0.074      343.315       19.337      860.596
09/30/2013  13:41:00     -372.569     -316.366      -17.590      247.845      153.855       92.932    61427.342    23671.355     8636.301       16.645        4.687      488.769      106.118        0.047      343.352       19.400      860.619
09/30/2013  13:42:00     -486.156     -347.404        3.519      283.857      174.933      110.976    80575.080    30601.615    12315.624       24.025        6.175      597.526      115.812        0.038      343.313       19.335      860.590
09/30/2013  13:43:00     -334.668     -172.809        6.078      216.290      161.481       79.980    46781.264    26076.037     6396.859       11.056        3.963      376.651       89.278        0.056      343.486       19.628      860.539
09/30/2013  13:44:00     -464.410     -105.923        9.495      266.083      220.012      125.988    70800.264    48405.292    15872.944       18.101        6.754      476.336      138.029        0.084      343.733       20.049      860.526
09/30/2013  13:45:00     -623.666     -155.046       -9.710      311.583      223.991      129.538    97083.761    50172.140    16780.210       28.853        8.202      642.650      152.369        0.056      343.434       19.538      860.540
09/30/2013  13:46:00     -546.703     -136.641      -21.847      230.753      172.891       90.561    53247.057    29891.382     8201.281       20.467        4.567      563.520      106.546        0.036      343.478       19.616      860.502
09/30/2013  13:47:00     -422.315     -207.535       -3.262      228.717      238.682      103.116    52311.286    56968.860    10632.817       17.065        5.996      470.553      103.310        0.048      343.721       20.029      860.475
09/30/2013  13:48:00     -216.673     -329.911        6.642      145.577      171.349       86.542    21192.739    29360.541     7489.506       10.693        2.902      394.700       64.097        0.026      343.813       20.187      860.517
09/30/2013  13:49:00     -292.422      -24.011       -0.205      179.962      140.924       90.093    32386.363    19859.701     8116.832        7.321        3.018      293.406       87.378        0.089      344.045       20.583      860.554
09/30/2013  13:50:00     -388.003     -256.456        6.015      234.474      176.941       90.431    54978.127    31308.064     8177.788       15.539        4.723      465.097      102.225        0.048      343.686       19.970      860.531
09/30/2013  13:51:00     -263.915     -156.823        3.941      210.288      190.708       97.751    44220.918    36369.491     9555.340        9.218        4.507      306.993       94.870        0.096      343.785       20.139      860.538
09/30/2013  13:52:00     -321.914     -138.122       -7.537      255.363      168.066       77.398    65210.420    28246.293     5990.385       11.109        4.972      350.295       78.408        0.050      343.686       19.970      860.607
09/30/2013  13:53:00     -550.393     -412.067      -31.231      281.338      223.198       99.992    79150.953    49817.281     9998.378       30.631        6.948      687.555      107.706        0.025      343.388       19.462      860.592
09/30/2013  13:54:00     -407.021     -232.402        0.041      260.357      188.395      103.663    67785.600    35492.572    10746.036       16.683        5.701      468.697      129.104        0.076      343.660       19.924      860.583
09/30/2013  13:55:00     -315.974     -159.381        4.168      193.594      121.453       81.312    37478.572    14750.948     6611.646        9.204        2.942      353.895       88.646        0.063      343.688       19.972      860.619
09/30/2013  13:56:00     -286.403     -113.692        8.928      182.277      121.657       74.852    33224.876    14800.475     5602.782        7.432        2.681      308.144       69.444        0.051      343.694       19.984      860.626
09/30/2013  13:57:00     -313.594      -79.528       -3.552      252.608      165.328       72.092    63810.666    27333.379     5197.302       10.049        4.817      323.521      102.045        0.099      343.947       20.417      860.619
09/30/2013  13:58:00     -324.569     -373.093        0.589      229.627      296.371      116.653    52728.350    87836.020    13607.881       19.933        7.709      494.513      139.157        0.079      343.569       19.770      860.659
09/30/2013  13:59:00     -352.215     -369.808      -17.302      203.930      176.399      106.327    41587.338    31116.701    11305.456       17.254        4.200      510.699       97.892        0.037      343.703       19.999      860.646
09/30/2013  14:00:00     -569.540     -240.975      -22.891      355.956      206.239      120.069   126704.829    42534.629    14416.628       28.327        9.183      618.421      146.274        0.056      343.570       19.770      860.625
09/30/2013  14:01:00     -508.216     -337.202      -17.385      325.566      210.919      113.871   105993.200    44486.956    12966.577       26.784        8.172      609.908      123.558        0.041      343.562       19.758      860.606
09/30/2013  14:02:00     -381.630     -434.170      -11.473      309.825      338.014      117.419    95991.558   114253.740    13787.146       27.911       11.202      578.053      142.730        0.061      343.649       19.906      860.623
09/30/2013  14:03:00     -598.860     -228.052      -22.316      321.765      238.386      133.467   103532.844    56828.098    17813.412       29.462        8.909      640.813      149.355        0.054      343.531       19.705      860.611
09/30/2013  14:04:00     -438.404     -326.847       -1.674      292.266      212.722      129.198    85419.219    45250.547    16692.204       22.317        7.368      546.834      153.119        0.078      343.625       19.866      860.639
09/30/2013  14:05:00     -359.924     -265.280       -4.233      181.440      172.471       88.488    32920.353    29746.192     7830.144       13.520        3.525      447.123       93.054        0.043      343.677       19.954      860.679
09/30/2013  14:06:00     -339.572     -257.051        8.307      263.761      197.368       87.238    69569.684    38954.083     7610.445       14.877        5.807      425.893      106.729        0.063      343.620       19.855      860.663
09/30/2013  14:07:00     -410.460     -338.403       -9.232      217.823      205.613       99.022    47447.001    42276.868     9805.364       19.128        4.976      531.972      102.516        0.037      343.517       19.682      860.647
09/30/2013  14:08:00     -370.583     -189.043        4.439      273.428      184.480      103.761    74762.959    34032.990    10766.306       14.630        5.978      416.016      104.912        0.064      343.527       19.699      860.684
09/30/2013  14:09:00     -483.280     -188.466      -43.757      223.488      210.057       92.816    49947.030    44123.919     8614.794       18.682        5.134      518.728       67.458        0.017      343.491       19.636      860.646
09/30/2013  14:10:00     -231.245      -73.364       20.966      254.463      160.780      103.255    64751.405    25850.069    10661.503        8.026        5.063      242.604      111.473        0.211      343.837       20.227      860.650
09/30/2013  14:11:00     -501.366     -356.283      -16.074      221.954      208.400      114.046    49263.760    43430.509    13006.425       24.211        5.285      615.065      129.641        0.044      343.642       19.895      860.640
09/30/2013  14:12:00     -330.227     -216.854       -2.193      220.969      183.701       81.512    48827.110    33745.915     6644.262       12.263        4.461      395.064      101.157        0.066      343.773       20.117      860.650
09/30/2013  14:13:00     -259.648      -46.224       13.191      160.248      125.217       76.306    25679.535    15679.225     5822.633        5.845        2.359      263.730       81.418        0.095      344.092       20.664      860.663
09/30/2013  14:14:00     -280.633      -70.429       20.962      205.040      128.131       76.055    42041.423    16417.589     5784.384        7.419        3.212      289.336       96.959        0.112      344.151       20.765      860.650
09/30/2013  14:15:00     -328.059     -251.098        6.799      260.384      184.286      105.168    67799.807    33961.150    11060.398       14.175        5.641      413.125      124.996        0.092      344.029       20.555      860.653
09/30/2013  14:16:00     -437.145     -365.251        1.788      229.791      183.960      123.524    52803.683    33841.221    15258.141       21.318        5.095      569.652      131.152        0.053      343.657       19.919      860.613
09/30/2013  14:17:00     -444.198     -326.234      -17.667      199.000      148.208       83.038    39600.936    21965.501     6895.267       18.624        3.423      551.127       83.775        0.023      343.655       19.915      860.641
09/30/2013  14:18:00     -398.156     -237.556      -10.078      195.984      234.698       94.604    38409.861    55083.119     8949.934       15.873        5.122      463.639      116.409        0.063      343.872       20.286      860.656
09/30/2013  14:19:00     -555.678     -269.347      -15.328      240.449      193.620       96.656    57815.694    37488.530     9342.286       24.308        5.232      617.516      118.066        0.037      343.716       20.021      860.643
09/30/2013  14:20:00     -405.607     -146.501      -13.004      214.886      174.984       93.087    46176.093    30619.342     8665.215       13.579        4.273      431.253       93.179        0.047      343.990       20.489      860.634
09/30/2013  14:21:00     -524.502     -264.457      -19.924      358.785      195.543       99.329   128726.741    38237.186     9866.303       26.110        8.842      587.401      112.990        0.037      343.620       19.856      860.683
09/30/2013  14:22:00     -419.907     -255.184      -10.366      280.756      212.331      112.388    78823.726    45084.402    12631.085       18.902        6.827      491.366      119.007        0.059      343.540       19.721      860.668
09/30/2013  14:23:00     -410.953     -317.907      -10.007      254.700      187.911      112.523    64872.220    35310.541    12661.353       19.142        5.642      519.564      127.639        0.060      343.604       19.829      860.648
09/30/2013  14:24:00     -343.686     -234.205       -0.973      205.898      205.722       86.309    42393.834    42321.605     7449.249       13.255        4.608      415.898       90.822        0.048      343.729       20.041      860.633
09/30/2013  14:25:00     -421.457     -148.764       -2.079      211.286      159.539       97.086    44641.917    25452.703     9425.749       13.963        3.976      446.942      103.692        0.054      343.911       20.353      860.646
09/30/2013  14:26:00     -253.378      -40.893       25.638      226.987      134.540       78.654    51522.901    18100.958     6186.396        7.115        3.791      256.657       99.930        0.152      344.152       20.765      860.659
09/30/2013  14:27:00     -415.344     -187.959       -7.505      266.410      209.783      122.046    70974.095    44008.912    14895.113       16.886        6.494      455.894      139.537        0.094      343.950       20.419      860.689
09/30/2013  14:28:00     -491.234     -163.246      -11.300      349.514      165.772      122.058   122159.948    27480.224    14898.196       21.628        8.227      517.649      160.141        0.096      343.805       20.173      860.646
09/30/2013  14:29:00     -486.731     -279.423       -9.573      242.148      227.921      102.286    58635.423    51948.181    10462.377       21.804        6.052      561.235      122.025        0.047      343.799       20.160      860.665
09/30/2013  14:30:00     -269.547     -160.481       15.490      216.855      127.255       85.593    47026.199    16193.718     7326.144        8.458        3.527      313.704       86.835        0.077      343.913       20.357      860.682
09/30/2013  14:31:00     -317.703     -160.286       -0.794      169.239      134.301       76.861    28641.982    18036.793     5907.687        8.960        2.629      355.847       63.929        0.032      343.961       20.437      860.656
09/30/2013  14:32:00     -446.222     -111.817      -31.737      158.783      178.426       73.270    25211.947    31835.811     5368.545       13.751        3.121      460.018       53.599        0.014      343.990       20.487      860.654
09/30/2013  14:33:00     -593.829     -220.664      -20.082      325.712      207.596      117.436   106088.216    43095.951    13791.277       28.232        8.149      633.502      153.265        0.059      343.691       19.978      860.602
09/30/2013  14:34:00     -581.280     -368.934      -49.685      208.036      219.563      105.055    43278.951    48207.851    11036.502       28.947        5.126      688.476      110.199        0.026      343.673       19.948      860.597
09/30/2013  14:35:00     -461.883     -284.295       -7.552      271.561      211.401      113.834    73745.452    44690.340    12958.281       21.278        6.570      542.365      126.562        0.054      343.696       19.986      860.602
09/30/2013  14:36:00     -514.260     -432.395       -9.013      251.256      190.473      127.034    63129.357    36279.955    16137.532       28.350        5.777      671.884      139.759        0.043      343.722       20.030      860.525
09/30/2013  14:37:00     -284.996     -113.842       10.574      153.202      163.485       82.652    23470.918    26727.422     6831.411        7.565        2.851      306.892       73.598        0.058      344.160       20.779      860.574
09/30/2013  14:38:00     -362.665     -116.119       -2.421      205.092      149.991       79.641    42062.786    22497.205     6342.743       10.794        3.545      380.801      102.650        0.073      344.060       20.609      860.622
09/30/2013  14:39:00     -467.114     -118.632      -14.186      256.608      173.775       93.251    65847.457    30197.794     8695.695       16.858        5.237      481.943      103.638        0.046      343.943       20.408      860.589
09/30/2013  14:40:00     -435.921      -84.826      -26.854      240.144      149.895      100.490    57669.234    22468.395    10098.170       14.407        4.512      444.098       93.670        0.044      343.835       20.223      860.585
09/30/2013  14:41:00     -316.365     -161.097       -5.251      203.419      174.563       84.239    41379.281    30472.195     7096.188       10.249        3.947      355.019       98.624        0.077      343.973       20.458      860.552
09/30/2013  14:42:00     -335.463     -194.510       -1.597      282.276      167.248      110.488    79679.918    27971.959    12207.569       13.509        5.993      387.775      125.753        0.105      344.021       20.541      860.549
09/30/2013  14:43:00     -405.555     -218.129        0.487      321.476      234.858      127.741   103346.673    55158.079    16317.679       19.340        8.741      460.495      155.669        0.114      344.019       20.538      860.530
09/30/2013  14:44:00     -548.177     -314.289      -34.577      269.303      256.461      122.209    72524.132    65772.267    14935.153       27.682        7.662      631.882      127.572        0.041      343.839       20.231      860.547
09/30/2013  14:45:00     -578.735     -271.591       -7.005      301.976      241.529      131.577    91189.306    58336.073    17312.438       28.776        8.342      639.293      155.052        0.059      343.759       20.094      860.567
09/30/2013  14:46:00     -448.529     -368.701       -3.876      281.908      238.965      141.838    79471.841    57104.285    20118.035       24.688        7.835      580.620      170.111        0.086      343.765       20.104      860.568
09/30/2013  14:47:00     -356.261     -207.381        6.871      253.258      172.769      105.263    64139.695    29848.961    11080.268       13.750        5.253      412.224      122.223        0.088      343.812       20.183      860.557
09/30/2013  14:48:00     -276.624     -152.317        3.541      211.251      152.073       97.395    44626.859    23126.087     9485.707        8.847        3.862      315.787      119.702        0.144      344.014       20.528      860.518
09/30/2013  14:49:00     -377.911     -147.256        3.529      284.477      167.406      110.335    80927.216    28024.918    12173.828       14.280        6.056      405.587      126.650        0.098      343.986       20.482      860.486
09/30/2013  14:50:00     -522.550     -247.809      -26.814      269.134      174.621      111.373    72433.075    30492.523    12404.002       22.524        5.766      578.332      128.682        0.050      343.882       20.305      860.493
09/30/2013  14:51:00     -402.596     -172.230        3.469      240.447      163.782       80.745    57814.816    26824.570     6519.798       14.144        4.558      437.889       97.794        0.050      344.009       20.520      860.504
09/30/2013  14:52:00     -356.102     -114.597       17.360      235.812      171.746       81.352    55607.437    29496.761     6618.152       11.596        4.586      374.086       93.558        0.063      344.209       20.862      860.484
09/30/2013  14:53:00     -497.072     -287.810       -6.191      295.064      276.499      133.849    87062.861    76451.807    17915.624       25.566        9.072      574.382      159.448        0.077      343.980       20.471      860.496
09/30/2013  14:54:00     -599.712     -319.658      -14.213      280.526      224.391      114.330    78694.760    50351.505    13071.444       30.205        7.106      679.585      121.331        0.032      343.792       20.150      860.463
09/30/2013  14:55:00     -523.444     -368.828      -27.724      233.849      204.016      113.575    54685.239    41622.644    12899.243       25.998        5.460      640.334      129.031        0.041      343.831       20.217      860.452
09/30/2013  14:56:00     -571.342     -326.373       -7.092      358.983      199.317      114.338   128869.009    39727.088    13073.288       30.730        9.083      657.990      149.680        0.052      343.817       20.191      860.446
09/30/2013  14:57:00     -467.121     -199.307      -18.832      233.004      174.151       97.139    54290.917    30328.741     9435.945       17.615        4.703      507.863       91.831        0.033      343.981       20.474      860.453
09/30/2013  14:58:00     -454.405     -258.256       -4.232      327.045      235.800      138.366   106958.242    55601.697    19145.075       22.741        9.085      522.666      178.921        0.117      343.886       20.310      860.455
09/30/2013  14:59:00     -218.867     -151.171       30.917      217.303      158.250      114.221    47220.757    25043.010    13046.492        7.849        4.266      265.999      125.607        0.223      343.944       20.409      860.413
09/30/2013  15:00:00     -330.347     -178.188       -2.192      187.863      182.327       83.269    35292.490    33243.287     6933.720       10.816        3.773      375.340       85.685        0.052      344.146       20.755      860.419
09/30/2013  15:01:00     -578.088     -315.676      -12.974      288.999      185.953      103.680    83520.495    34578.586    10749.479       28.140        6.442      658.663      118.211        0.032      344.102       20.679      860.392
09/30/2013  15:02:00     -372.502     -270.776       12.379      247.826      137.106       94.007    61417.862    18797.933     8837.232       15.062        4.453      460.519      116.495        0.064      344.131       20.728      860.451
09/30/2013  15:03:00     -406.667     -287.450        3.728      279.625      191.381      126.686    78190.254    36626.661    16049.311       18.942        6.543      498.001      143.456        0.083      343.668       19.938      860.382
09/30/2013  15:04:00     -244.878     -201.331       21.944      203.285      159.149      101.466    41324.829    25328.309    10295.421        8.895        3.847      317.016      100.861        0.101      343.944       20.409      860.344
09/30/2013  15:05:00     -542.387     -217.688       -7.596      215.549      224.443      109.557    46461.235    50374.831    12002.635       22.521        5.442      584.442      123.439        0.045      343.950       20.419      860.279
09/30/2013  15:06:00     -373.783     -227.785      -13.602      238.925      223.284      102.857    57085.012    49855.829    10579.479       15.463        5.876      437.721      101.380        0.054      344.110       20.693      860.301
09/30/2013  15:07:00     -601.620     -321.356       15.062      376.569      247.059      153.586   141803.856    61038.144    23588.527       34.589       11.322      682.067      192.451        0.080      343.806       20.173      860.318
09/30/2013  15:08:00     -483.151     -365.798        2.443      271.313      220.269      116.729    73610.691    48518.399    13625.550       25.147        6.788      606.006      138.641        0.052      343.636       19.883      860.330
09/30/2013  15:09:00     -532.537     -246.319      -16.195      365.140      239.565      156.023   133327.092    57391.460    24343.171       27.975       10.753      586.744      179.300        0.093      343.640       19.891      860.316
09/30/2013  15:10:00     -561.142     -269.270      -21.678      276.189      243.557      140.328    76280.431    59319.970    19692.031       27.154        7.765      622.403      153.047        0.060      343.699       19.990      860.280
09/30/2013  15:11:00     -675.100     -485.721      -13.873      306.827      250.003      135.178    94142.634    62501.564    18273.101       43.336        8.746      831.676      149.192        0.032      343.552       19.740      860.314
09/30/2013  15:12:00     -615.878     -355.130      -15.568      314.126      256.911      124.338    98675.327    66003.480    15460.038       34.287        9.007      710.931      156.085        0.048      343.598       19.819      860.301
09/30/2013  15:13:00     -755.808     -402.791      -27.786      350.445      250.688      121.306   122811.679    62844.607    14715.109       46.727       10.019      856.438      144.535        0.028      343.536       19.714      860.290
09/30/2013  15:14:00     -542.166     -305.635      -19.910      251.588      187.702      112.140    63296.731    35231.956    12575.474       24.941        5.555      622.380      107.477        0.030      343.719       20.025      860.271
09/30/2013  15:15:00     -435.863     -286.373        1.708      297.099      221.214      125.422    88267.636    48935.799    15730.613       21.243        7.647      521.523      131.839        0.064      343.828       20.211      860.291
09/30/2013  15:16:00     -427.571     -292.018        0.156      253.283      226.606      108.614    64152.453    51350.478    11797.089       19.767        6.365      517.776      122.620        0.056      343.895       20.327      860.279
09/30/2013  15:17:00     -451.123     -186.633        5.077      247.999      175.734       90.728    61503.309    30882.437     8231.625       16.947        5.031      488.205      108.091        0.049      343.913       20.356      860.258
09/30/2013  15:18:00     -600.560     -331.024      -42.966      234.469      177.994       91.875    54975.756    31681.752     8441.039       28.358        4.755      685.747       95.815        0.020      343.847       20.243      860.249
09/30/2013  15:19:00     -626.166     -195.349      -20.045      262.609      248.508      100.445    68963.521    61755.982    10089.208       28.570        7.040      655.930       80.280        0.015      344.038       20.569      860.233
09/30/2013  15:20:00     -595.858     -411.105      -18.313      318.166      285.042      155.736   101229.882    81248.936    24253.641       36.552       10.337      723.915      167.594        0.054      343.823       20.203      860.228
09/30/2013  15:21:00     -671.739     -368.158      -19.967      300.929      223.414      133.748    90558.434    49913.830    17888.597       37.273        7.918      766.011      141.583        0.034      343.675       19.950      860.196
09/30/2013  15:22:00     -480.855     -128.744        7.947      248.686      247.590      123.129    61844.771    61300.720    15160.780       19.306        6.915      497.792      131.094        0.069      343.908       20.348      860.211
09/30/2013  15:23:00     -524.468     -468.411      -23.406      307.445      257.503      129.423    94522.587    66307.842    16750.356       33.627        8.879      703.190      155.052        0.049      343.692       19.979      860.211
09/30/2013  15:24:00     -432.942     -379.754       18.142      361.665      242.112      146.688   130801.412    58618.205    21517.459       27.142       10.547      575.892      187.145        0.106      343.775       20.120      860.165
09/30/2013  15:25:00     -500.015     -392.289      -26.231      227.122      197.896      101.203    51584.439    39162.984    10242.069       25.277        5.049      635.536       99.536        0.025      343.717       20.020      860.193
09/30/2013  15:26:00     -376.298     -284.212        2.810      260.250      174.449      111.835    67730.181    30432.417    12507.113       16.650        5.533      471.568      122.869        0.068      343.837       20.226      860.153
09/30/2013  15:27:00     -611.687     -410.808       -9.787      292.223      273.643      146.278    85394.242    74880.635    21397.176       36.231        9.084      736.834      150.473        0.042      343.785       20.138      860.124
09/30/2013  15:28:00     -667.785     -400.274      -31.379      312.450      305.253      137.696    97624.771    93179.139    18960.133       40.841       10.488      778.560      154.254        0.039      343.692       19.979      860.120
09/30/2013  15:29:00     -405.686     -235.971       -0.453      277.189      213.558      103.649    76833.527    45606.976    10743.215       17.670        6.659      469.322      125.910        0.072      343.836       20.225      860.153
09/30/2013  15:30:00     -413.029     -174.656        5.680      281.712      200.490      111.832    79361.576    40196.396    12506.440       16.657        6.603      448.439      145.244        0.105      343.847       20.243      860.153
09/30/2013  15:31:00     -500.910     -300.455        2.592      280.146      259.905      131.422    78481.876    67550.380    17271.624       25.221        8.165      584.110      138.908        0.057      343.748       20.073      860.112
09/30/2013  15:32:00     -696.971     -450.334      -40.309      263.877      222.949      127.531    69631.258    49706.389    16264.127       41.287        6.780      829.801      133.965        0.026      343.540       19.721      860.071
09/30/2013  15:33:00     -527.239     -306.223       -3.618      302.898      194.907      122.877    91746.977    37988.630    15098.756       25.827        7.242      609.716      151.737        0.062      343.691       19.978      860.102
09/30/2013  15:34:00     -554.773     -287.854       -5.173      294.491      184.251      107.506    86725.057    33948.389    11557.642       26.142        6.612      625.007      114.378        0.033      343.635       19.882      860.126
09/30/2013  15:35:00     -528.648     -441.781        1.330      308.105      267.598      121.853    94928.969    71608.726    14848.065       32.798        9.069      688.940      149.416        0.047      343.642       19.895      860.078
09/30/2013  15:36:00     -559.096     -274.927      -19.905      279.489      187.359      108.846    78114.362    35103.353    11847.539       25.679        6.253      623.035      120.259        0.037      343.824       20.205      860.084
09/30/2013  15:37:00     -480.587     -200.185        9.011      290.953      200.032      102.453    84653.828    40012.737    10496.698       20.311        6.758      520.614      128.330        0.061      343.844       20.240      860.122
09/30/2013  15:38:00     -461.158     -258.743       -6.337      303.308      227.743      124.289    91995.891    51866.968    15447.799       21.945        7.966      528.786      149.445        0.080      343.819       20.197      860.104
09/30/2013  15:39:00     -584.412     -382.119      -12.395      342.144      294.004      136.792   117062.809    86438.436    18712.019       35.492       11.111      698.250      157.299        0.051      343.624       19.863      860.081
09/30/2013  15:40:00     -610.239     -364.405      -29.898      283.853      236.010      122.077    80572.422    55700.509    14902.898       32.860        7.559      710.762      138.366        0.038      343.583       19.792      860.029
09/30/2013  15:41:00     -644.498     -407.202      -11.548      326.976      259.523      129.754   106913.531    67352.360    16836.092       38.617        9.555      762.359      153.187        0.040      343.602       19.827      860.013
09/30/2013  15:42:00     -580.381     -354.957      -34.101      237.265      225.142      111.091    56294.904    50689.104    12341.233       29.164        5.966      680.321      128.835        0.036      343.622       19.860      860.039
09/30/2013  15:43:00     -549.596     -363.143       14.091      297.490      286.512      134.185    88500.033    82089.023    18005.616       31.132        9.430      658.733      156.986        0.057      343.634       19.881      860.042
09/30/2013  15:44:00     -753.643     -589.877      -36.086      345.570      270.057      172.029   119418.499    72930.580    29593.963       56.954       11.097      957.044      199.027        0.043      343.466       19.595      860.039
09/30/2013  15:45:00     -572.912     -413.392        7.895      284.327      226.205      133.679    80841.710    51168.542    17870.145       32.450        7.494      706.485      150.486        0.045      343.547       19.731      860.039
09/30/2013  15:46:00     -594.306     -280.397       -3.794      282.959      270.385      129.747    80066.040    73108.000    16834.199       30.089        8.500      657.132      138.763        0.045      343.564       19.762      860.052
09/30/2013  15:47:00     -636.451     -262.910       -1.448      298.332      215.052      115.750    89002.260    46247.447    13398.092       31.139        7.432      688.616      137.114        0.040      343.637       19.885      860.050
09/30/2013  15:48:00     -538.028     -244.915      -13.315      232.465      203.098      100.785    54040.186    41248.832    10157.548       22.752        5.272      591.150      109.939        0.035      343.814       20.188      860.103
09/30/2013  15:49:00     -740.560     -366.678       -1.869      296.993      309.426      145.844    88205.062    95744.410    21270.551       44.401       10.261      826.366      159.381        0.037      343.632       19.877      860.095
09/30/2013  15:50:00     -616.187     -271.333       -2.232      315.643      223.865      124.305    99630.406    50115.742    15451.755       30.922        8.260      673.282      140.689        0.044      343.598       19.818      860.108
09/30/2013  15:51:00     -481.315     -411.818       -2.661      342.072      245.993      132.995   117013.091    60512.731    17687.627       29.820        9.761      633.449      166.656        0.069      343.537       19.716      860.076
09/30/2013  15:52:00     -385.667     -283.856      -19.911      162.600      191.775      100.811    26438.872    36777.765    10162.934       15.153        3.669      478.866       99.328        0.043      343.700       19.992      860.117
09/30/2013  15:53:00     -493.160     -361.964      -14.375      293.565      332.239      120.029    86180.537   110382.678    14407.052       29.266       10.549      611.739      142.177        0.054      343.666       19.935      860.115
09/30/2013  15:54:00     -538.861     -341.195      -15.331      339.804      251.580      121.153   115466.472    63292.383    14678.039       30.019        9.672      637.797      152.756        0.057      343.565       19.763      860.076
09/30/2013  15:55:00     -374.448     -187.449       -1.777      276.796      253.064      110.011    76616.055    64041.167    12102.358       16.402        7.638      418.746      127.416        0.093      343.704       19.998      860.139
09/30/2013  15:56:00     -485.690     -331.604       -5.950      233.481      181.949      105.670    54513.552    33105.348    11166.135       22.232        4.939      588.095      124.024        0.044      343.631       19.874      860.138
09/30/2013  15:57:00     -527.319     -363.129      -10.816      272.934      224.169      137.604    74492.740    50251.918    18934.820       27.683        7.184      640.256      161.044        0.063      343.670       19.942      860.101
09/30/2013  15:58:00     -528.433     -228.007      -19.786      250.463      215.699      117.055    62731.527    46526.000    13701.904       22.726        6.148      575.524      126.164        0.048      343.700       19.993      860.110
09/30/2013  15:59:00     -450.748     -256.748       -5.232      275.786      258.608      121.243    76058.124    66877.978    14699.784       21.335        7.882      518.742      137.204        0.070      343.680       19.958      860.112
09/30/2013  16:00:00     -430.249     -373.821       -8.480      248.774      189.442      124.319    61888.342    35888.148    15455.164       21.906        5.662      569.962      131.207        0.053      343.553       19.743      860.134
09/30/2013  16:01:00     -355.427     -249.143        6.849      279.900      203.067      114.764    78344.204    41236.251    13170.735       16.057        6.638      434.051      133.172        0.094      343.678       19.957      860.100
09/30/2013  16:02:00     -376.210     -272.572      -11.245      231.089      199.387      106.675    53402.187    39755.143    11379.518       16.023        5.227      464.574      119.838        0.067      343.646       19.902      860.122
09/30/2013  16:03:00     -423.552     -219.044        0.655      168.499      219.739      107.086    28391.834    48285.438    11467.518       15.774        4.407      476.840       91.488        0.037      343.728       20.041      860.108
09/30/2013  16:04:00     -397.175      -88.394        4.053      254.144      165.216      107.686    64589.279    27296.268    11596.251       13.451        5.174      406.892      123.088        0.092      343.761       20.098      860.122
09/30/2013  16:05:00     -396.260     -168.481       -1.027      181.999      231.364      103.827    33123.672    53529.273    10779.998       14.140        4.872      430.590      109.939        0.065      343.763       20.100      860.116
09/30/2013  16:06:00     -535.486     -278.559       -1.530      306.047      214.362      130.945    93664.737    45951.115    17146.715       26.052        7.838      603.606      154.717        0.066      343.627       19.868      860.054
09/30/2013  16:07:00     -523.107     -301.649      -27.433      260.809      160.201      106.276    68021.146    25664.333    11294.666       23.516        5.249      603.848      124.675        0.043      343.692       19.978      860.079
09/30/2013  16:08:00     -462.040     -183.798      -12.799      376.100      268.848      116.967   141450.845    72279.267    13681.241       23.737       11.371      497.255      175.452        0.124      343.730       20.043      860.100
09/30/2013  16:09:00     -458.549     -190.463      -20.976      270.685      185.878      117.414    73270.569    34550.724    13786.015       18.427        6.080      496.532      114.888        0.054      343.627       19.867      860.057
09/30/2013  16:10:00     -490.778     -129.010      -22.799      188.582      154.862       81.516    35563.032    23982.197     6644.864       16.209        3.310      507.451       82.666        0.027      343.641       19.893      860.081
09/30/2013  16:11:00     -484.586     -178.216      -11.838      273.868      217.927      122.862    75003.473    47492.107    15095.013       20.213        6.880      516.318      129.374        0.063      343.688       19.972      860.094
09/30/2013  16:12:00     -422.783     -237.992       15.913      259.994      230.124      128.170    67596.744    52957.181    16427.587       18.628        6.849      485.166      129.609        0.071      343.568       19.768      860.106
09/30/2013  16:13:00     -468.760     -279.999       -8.011      268.240      182.694      117.520    71952.964    33377.008    13810.982       20.865        5.957      546.018      110.512        0.041      343.455       19.575      860.120
09/30/2013  16:14:00     -332.351     -224.456       -4.731      181.645      163.180       95.109    32994.747    26627.719     9045.751       11.475        3.433      401.046       93.641        0.055      343.516       19.680      860.091
09/30/2013  16:15:00     -440.170     -365.102      -38.054      215.141      293.316      125.567    46285.803    86034.124    15767.160       23.826        7.404      571.882      123.486        0.047      343.461       19.586      860.081
09/30/2013  16:16:00     -440.017     -300.562       -6.634      231.235      205.492      109.052    53469.808    42226.949    11892.433       19.577        5.379      532.872      126.491        0.056      343.568       19.768      860.074
09/30/2013  16:17:00     -326.206     -246.967       11.278      245.106      229.793      114.854    60076.796    52804.727    13191.401       14.678        6.304      409.149      120.392        0.087      343.401       19.483      860.086
09/30/2013  16:18:00     -455.623     -309.811       -8.833      270.553      188.617       91.674    73199.141    35576.306     8404.112       21.039        5.859      550.976      111.950        0.041      343.454       19.574      860.074
09/30/2013  16:19:00     -590.373      -76.262      -26.384      288.536      252.203      103.431    83253.265    63606.177    10697.885       25.627        7.878      595.278      123.393        0.043      343.484       19.625      860.078
09/30/2013  16:20:00     -358.679     -209.563       -6.726      203.578      179.407       89.200    41443.922    32186.982     7956.584       12.708        4.079      415.412       92.346        0.049      343.592       19.809      860.062
09/30/2013  16:21:00     -429.943     -243.140       -0.808      213.673      178.756      101.794    45655.966    31953.627    10362.073       16.595        4.399      493.931      115.701        0.055      343.615       19.848      860.105
09/30/2013  16:22:00     -546.575     -351.556      -29.905      281.482      194.956      117.923    79232.124    38007.840    13905.831       27.716        6.557      649.874      133.310        0.042      343.527       19.699      860.087
09/30/2013  16:23:00     -510.686     -247.620      -21.837      211.869      212.575      106.715    44888.598    45188.112    11388.119       21.201        5.073      567.552      102.128        0.032      343.575       19.780      860.095
09/30/2013  16:24:00     -435.044      -79.700       -6.715      253.325      191.769       97.902    64173.625    36775.443     9584.722       15.307        5.527      442.284      122.761        0.077      343.718       20.025      860.117
09/30/2013  16:25:00     -552.454     -348.571      -10.265      273.538      220.941      132.802    74823.156    48815.051    17636.294       28.402        7.064      653.229      149.992        0.053      343.547       19.733      860.095
09/30/2013  16:26:00     -555.903     -421.301      -16.428      278.559      263.228      134.834    77594.870    69288.921    18180.306       32.589        8.253      697.512      156.538        0.050      343.544       19.728      860.091
09/30/2013  16:27:00     -402.940     -202.210       -8.437      245.615      165.156      101.800    60326.726    27276.468    10363.167       15.062        4.898      450.832      112.247        0.062      343.721       20.028      860.094
09/30/2013  16:28:00     -540.711     -178.287      -13.349      238.005      188.898      103.896    56646.501    35682.519    10794.352       21.371        5.156      569.346      113.131        0.039      343.708       20.007      860.081
09/30/2013  16:29:00     -482.476     -134.736        1.692      231.835      164.208      112.205    53747.409    26964.328    12589.876       17.210        4.665      500.936      116.624        0.054      343.737       20.054      860.110
09/30/2013  16:30:00     -480.335     -394.717        2.435      391.387      291.815      171.861   153183.851    85155.805    29536.173       32.715       13.394      621.711      181.724        0.085      343.544       19.727      860.035
09/30/2013  16:31:00     -453.774     -194.450      -15.676      313.743      219.906      119.926    98434.853    48358.486    14382.231       20.254        8.059      493.681      135.856        0.076      343.600       19.824      860.062
09/30/2013  16:32:00     -471.762     -211.883        2.110      295.652      186.222      108.206    87410.075    34678.517    11708.532       20.060        6.690      517.160      136.270        0.069      343.624       19.865      860.104
09/30/2013  16:33:00     -287.692     -147.277       -6.157      251.388      228.259      109.189    63195.774    52102.155    11922.166       11.583        6.361      323.199      116.688        0.130      343.697       19.988      860.081
09/30/2013  16:34:00     -695.981     -219.677      -28.161      382.431      243.372      139.230   146253.720    59229.702    19385.105       37.911       11.243      729.827      180.242        0.061      343.557       19.749      860.032
09/30/2013  16:35:00     -860.962     -234.549      -39.290      329.337      257.945      122.241   108462.724    66535.466    14942.842       49.384        9.497      892.339      151.784        0.029      343.508       19.665      860.027
09/30/2013  16:36:00     -435.381     -239.456       -2.543      343.737      248.891      133.657   118154.940    61946.872    17864.214       22.239        9.898      496.886      171.829        0.120      343.602       19.826      860.024
09/30/2013  16:37:00     -463.670     -274.890      -14.992      257.043      241.110      115.636    66071.069    58133.870    13371.662       21.415        6.879      539.031      138.308        0.066      343.597       19.816      860.050
09/30/2013  16:38:00     -580.133     -153.921      -33.125      241.499      149.471      108.687    58321.824    22341.432    11812.898       22.689        4.624      600.205      106.212        0.031      343.604       19.829      860.079
09/30/2013  16:39:00     -225.826     -213.195       -7.115      209.348      167.508       96.723    43826.662    28058.970     9355.343        8.885        4.062      310.563      107.419        0.120      343.693       19.982      860.059
09/30/2013  16:40:00     -427.296     -150.773      -12.765      254.567      221.614      106.267    64804.145    49112.928    11292.650       16.532        6.260      453.116      115.075        0.064      343.609       19.837      860.034
09/30/2013  16:41:00     -415.533     -132.341        9.750      408.993      244.744      138.427   167275.105    59899.862    19161.937       21.826       12.317      436.099      198.039        0.206      343.601       19.824      859.989
09/30/2013  16:42:00     -447.422     -229.083       16.212      301.549      273.998      129.816    90931.919    75074.807    16852.094       21.786        9.143      502.658      151.725        0.091      343.585       19.796      859.962
09/30/2013  16:43:00     -352.581     -121.595       15.304      267.789      247.430      128.522    71710.849    61221.523    16517.972       14.436        7.473      372.960      138.185        0.137      343.637       19.885      859.993
09/30/2013  16:44:00     -221.227     -139.806        7.192      186.322      160.426       99.433    34715.735    25736.612     9886.872        6.942        3.517      261.700      105.580        0.163      343.758       20.093      860.000
09/30/2013  16:45:00     -200.104     -107.463        0.354      209.000      126.195       80.740    43680.820    15925.106     6518.961        5.884        3.306      227.134       96.371        0.180      343.732       20.049      859.961
09/30/2013  16:46:00     -266.151      -35.570        5.197      164.660      147.382       80.508    27113.017    21721.346     6481.505        6.371        2.766      268.517       81.238        0.092      343.802       20.167      859.954
09/30/2013  16:47:00     -384.374     -145.653      -17.121      251.280      212.751      107.262    63141.509    45262.881    11505.210       14.456        5.995      411.045      123.412        0.090      343.628       19.871      859.901
09/30/2013  16:48:00     -394.653      -66.177      -20.334      333.863      149.507       96.273   111464.174    22352.237     9268.525       15.179        7.154      400.163      128.645        0.103      343.670       19.942      859.880
09/30/2013  16:49:00     -514.198     -221.283      -12.454      227.201      222.683      113.838    51620.331    49587.646    12958.998       21.382        5.708      559.790      110.716        0.039      343.590       19.805      859.888
09/30/2013  16:50:00     -473.754     -253.906      -34.046      254.051      208.209      100.067    64541.886    43350.923    10013.319       20.396        5.895      537.505       97.610        0.033      343.534       19.710      859.884
09/30/2013  16:51:00     -397.126     -229.437        6.914      344.036      278.123      140.181   118360.905    77352.278    19650.656       21.284       10.768      458.640      133.968        0.085      343.561       19.756      859.825
09/30/2013  16:52:00     -503.363     -151.761        6.889      284.241      207.201      124.866    80792.809    42932.421    15591.441       20.786        6.966      525.743      139.902        0.071      343.601       19.824      859.861
09/30/2013  16:53:00     -394.877     -210.119      -27.415      223.430      198.927      107.539    49920.881    39571.780    11564.651       15.092        5.053      447.301      115.803        0.067      343.618       19.853      859.847
09/30/2013  16:54:00     -556.283     -265.663      -13.312      286.642      206.127      105.019    82163.369    42488.442    11029.044       25.792        6.784      616.464      126.069        0.042      343.563       19.759      859.841
09/30/2013  16:55:00     -569.316     -180.158      -14.730      299.483      256.880      140.432    89689.943    65987.270    19721.159       26.606        8.770      597.141      159.156        0.071      343.485       19.628      859.803
09/30/2013  16:56:00     -471.330     -264.243      -10.352      301.250      196.557      125.482    90751.453    38634.597    15745.701       21.858        7.257      540.348      142.039        0.069      343.506       19.662      859.757
09/30/2013  16:57:00     -586.243      -80.595      -31.944      282.495      195.347      103.813    79803.639    38160.532    10777.179       23.994        6.437      591.757      122.678        0.043      343.555       19.746      859.781
09/30/2013  16:58:00     -507.888     -191.975      -19.493      283.606      177.845       97.034    80432.549    31628.919     9415.554       20.831        6.074      542.959      101.495        0.035      343.543       19.726      859.815
09/30/2013  16:59:00     -575.764     -119.079      -55.193      264.866      185.051      101.873    70154.243    34243.707    10378.174       23.173        5.739      587.948      120.625        0.042      343.530       19.703      859.806
09/30/2013  17:00:00     -620.933     -313.469      -27.426      253.431      208.310      112.184    64227.019    43392.900    12585.339       30.237        6.010      695.573      125.024        0.032      343.443       19.556      859.794
09/30/2013  17:01:00     -508.013     -140.830      -30.085      271.739      208.094      102.663    73841.935    43303.274    10539.794       20.322        6.384      527.172      121.153        0.053      343.594       19.812      859.776
09/30/2013  17:02:00     -447.844     -253.148      -28.987      340.111      247.085      115.534   115675.310    61051.094    13348.217       22.774        9.504      514.440      143.747        0.078      343.517       19.682      859.762
09/30/2013  17:03:00     -411.491     -189.630       -3.797      248.584      191.148      126.790    61793.771    36537.617    16075.623       15.983        5.720      453.083      126.871        0.078      343.516       19.680      859.783
09/30/2013  17:04:00     -610.556     -148.611      -16.894      258.093      189.382      115.459    66612.205    35865.471    13330.711       25.546        5.790      628.382      126.547        0.041      343.419       19.513      859.762
09/30/2013  17:05:00     -446.128     -114.855        7.990      290.082      178.309      110.253    84147.674    31794.103    12155.731       17.017        6.405      460.676      132.316        0.082      343.545       19.729      859.741
09/30/2013  17:06:00     -605.576     -188.918      -17.583      257.186      157.873       95.025    66144.885    24923.908     9029.840       25.139        5.005      634.360      105.713        0.028      343.521       19.688      859.733
09/30/2013  17:07:00     -721.401      -60.736      -32.546      307.796      237.835      135.711    94738.444    56565.317    18417.611       34.741        8.486      723.953      140.673        0.038      343.533       19.707      859.736
09/30/2013  17:08:00     -511.332     -173.656      -29.129      314.182      225.555      125.260    98710.568    50875.279    15689.945       22.884        8.264      540.015      158.873        0.087      343.478       19.614      859.729
09/30/2013  17:09:00     -387.752     -254.088        2.575      237.760      215.682      129.476    56529.799    46518.543    16764.102       16.734        5.991      463.586      132.700        0.082      343.443       19.556      859.716
09/30/2013  17:10:00     -504.233     -136.296      -19.899      250.553      241.212      101.973    62776.824    58183.182    10398.532       20.227        6.568      522.329      115.114        0.049      343.481       19.620      859.716
09/30/2013  17:11:00     -483.257     -138.767      -18.611      267.199      213.014      102.818    71395.388    45374.910    10571.525       19.022        6.367      502.786      129.164        0.066      343.484       19.624      859.716
09/30/2013  17:12:00     -301.255      -93.113        6.832      177.370      138.683       84.621    31460.151    19232.888     7160.797        7.865        2.893      315.317       90.627        0.083      343.620       19.855      859.719
09/30/2013  17:13:00     -376.290      -13.488       12.524      207.258      148.016       92.475    42955.906    21908.854     8551.677       10.766        3.671      376.532      108.629        0.083      343.585       19.796      859.709
09/30/2013  17:14:00     -602.206      -95.866      -19.952      233.354      226.047      103.115    54453.884    51097.127    10632.637       24.419        5.809      609.789      117.035        0.037      343.466       19.594      859.684
09/30/2013  17:15:00     -612.191     -136.482      -31.836      245.730      231.164      120.817    60383.434    53437.010    14596.774       26.139        6.421      627.220      130.382        0.043      343.469       19.599      859.626
09/30/2013  17:16:00     -597.169      -98.207      -33.909      300.544      201.246      119.093    90326.608    40499.813    14183.097       25.618        7.250      605.191      126.498        0.044      343.457       19.578      859.620
09/30/2013  17:17:00     -748.930     -231.077      -41.381      293.124      217.026      114.759    85921.530    47100.194    13169.703       38.107        7.310      783.768      113.222        0.021      343.392       19.467      859.629
09/30/2013  17:18:00     -641.052     -110.074      -39.985      307.702      197.634      114.105    94680.282    39059.132    13020.055       28.568        7.338      650.434      153.280        0.056      343.435       19.541      859.591
09/30/2013  17:19:00     -424.234     -176.372      -30.542      221.244      210.677      106.775    48948.804    44384.777    11400.830       15.835        5.237      459.436      118.546        0.067      343.539       19.719      859.619
09/30/2013  17:20:00     -466.390      -32.117      -10.180      271.907      158.305      116.561    73933.386    25060.631    13586.408       16.559        5.629      467.494      122.990        0.069      343.480       19.618      859.631
09/30/2013  17:21:00     -500.513     -158.940      -46.598      222.417      173.722       89.012    49469.237    30179.483     7923.091       18.274        4.379      525.143       86.308        0.027      343.481       19.620      859.608
09/30/2013  17:22:00     -538.455      -80.460      -22.730      286.120      166.165       97.163    81864.814    27610.882     9440.565       20.790        5.946      544.433      107.688        0.039      343.467       19.596      859.609
09/30/2013  17:23:00     -442.266     -165.096      -11.180      250.358      208.950      130.881    62679.291    43660.151    17129.803       17.320        6.173      472.077      138.457        0.086      343.468       19.597      859.609
09/30/2013  17:24:00     -523.377     -107.482      -12.951      259.788      230.556      104.898    67489.962    53156.265    11003.555       20.862        6.582      534.299      112.022        0.044      343.456       19.577      859.631
09/30/2013  17:25:00     -479.744     -137.821       -6.120      224.463      217.276      100.918    50383.594    47209.021    10184.417       17.846        5.389      499.148      105.210        0.044      343.402       19.485      859.646
09/30/2013  17:26:00     -244.365      -35.972       18.545      220.494      203.542       98.718    48617.713    41429.348     9745.150        8.055        4.990      246.999      114.596        0.215      343.454       19.574      859.606
09/30/2013  17:27:00     -779.557      -21.798      -31.752      338.481      318.516      139.620   114569.082   101452.686    19493.605       42.231       11.776      779.861      154.845        0.039      343.397       19.477      859.536
09/30/2013  17:28:00     -395.070      -72.079        5.078      230.810      188.159      106.045    53273.346    35403.690    11245.534       13.059        4.996      401.592      115.286        0.082      343.488       19.632      859.604
09/30/2013  17:29:00     -248.468     -116.849        6.116      209.773      134.555       86.735    44004.894    18105.041     7523.003        7.252        3.482      274.573      100.278        0.133      343.544       19.729      859.631
09/30/2013  17:30:00     -302.710     -233.091       -7.286      229.936      211.756      106.936    52870.474    44840.415    11435.350       12.756        5.457      382.054      118.360        0.096      343.513       19.675      859.629
09/30/2013  17:31:00     -235.294     -195.906       12.734      258.790      193.314      102.307    66972.150    37370.130    10466.693       10.433        5.740      306.174      120.528        0.155      343.531       19.705      859.635
09/30/2013  17:32:00     -220.822     -141.092       14.280      230.109      135.856       92.249    52950.190    18456.895     8509.849        7.438        3.996      262.048      124.666        0.226      343.542       19.724      859.670
09/30/2013  17:33:00     -474.908     -125.771      -22.906      262.188      267.419       92.106    68742.525    71512.804     8483.509       19.528        7.437      491.280       87.733        0.032      343.505       19.661      859.669
09/30/2013  17:34:00     -374.274     -232.282       -8.421      204.571      190.817      121.333    41849.272    36411.125    14721.694       14.353        4.649      440.495      112.895        0.066      343.461       19.587      859.669
09/30/2013  17:35:00     -441.650     -132.219      -12.522      232.754      249.664      106.174    54174.283    62331.883    11272.864       17.021        6.389      461.017      114.402        0.062      343.424       19.522      859.620
09/30/2013  17:36:00     -528.085     -339.550      -19.218      294.850      242.969      134.479    86936.676    59033.764    18084.560       27.926        8.203      627.828      150.812        0.058      343.421       19.517      859.644
09/30/2013  17:37:00     -432.741     -310.813       -0.929      274.914      237.351      113.395    75577.722    56335.730    12858.329       21.429        7.239      532.794      122.022        0.052      343.361       19.415      859.660
09/30/2013  17:38:00     -530.022     -279.994       -2.785      279.824      224.754      122.160    78301.480    50514.344    14923.100       25.150        7.187      599.433      120.525        0.040      343.395       19.474      859.712
09/30/2013  17:39:00     -519.980     -112.305      -30.870      236.140      143.981       89.279    55762.144    20730.548     7970.738       18.419        4.223      531.970      102.161        0.037      343.416       19.508      859.780
09/30/2013  17:40:00     -684.706     -199.230      -54.022      331.036      262.051      113.588   109585.131    68670.902    12902.328       35.126        9.558      713.102      148.368        0.043      343.338       19.375      859.761
09/30/2013  17:41:00     -447.084     -151.800       10.049      310.421      239.406      138.243    96361.270    57315.383    19111.192       19.787        8.639      472.152      166.984        0.125      343.298       19.307      859.778
09/30/2013  17:42:00     -703.959     -209.766       -9.148      332.605      211.295      119.687   110626.087    44645.599    14324.944       35.459        8.480      734.548      148.336        0.041      343.263       19.247      859.839
09/30/2013  17:43:00     -555.035     -137.784      -29.164      219.481      187.150       87.359    48172.121    35025.254     7631.550       20.935        4.541      571.882       99.459        0.030      343.295       19.302      859.873
09/30/2013  17:44:00     -438.971      -70.038      -16.193      196.780      159.193       90.642    38722.247    25342.407     8215.980       13.506        3.614      444.523       93.576        0.044      343.312       19.331      859.887
09/30/2013  17:45:00     -393.514     -129.188        3.164      188.166      158.513       83.856    35406.288    25126.367     7031.876       11.954        3.378      414.178       90.485        0.048      343.336       19.373      859.948
09/30/2013  17:46:00     -380.227     -243.925       -3.227      297.474      194.317      116.108    88490.494    37759.053    13481.052       17.188        6.987      451.744      150.803        0.111      343.319       19.343      859.967
09/30/2013  17:47:00     -541.615     -112.723      -16.919      232.648      173.026       84.204    54124.899    29937.905     7090.366       19.873        4.558      553.221       82.589        0.022      343.283       19.281      859.977
09/30/2013  17:48:00     -480.951     -106.158       -5.416      244.218      148.520       99.355    59642.632    22058.309     9871.488       16.707        4.579      492.527      119.653        0.059      343.270       19.258      860.048
09/30/2013  17:49:00     -505.952      -57.923       -9.658      219.359      152.773       82.953    48118.394    23339.605     6881.137       16.887        3.917      509.257       98.041        0.037      343.225       19.184      860.075
09/30/2013  17:50:00     -565.608     -204.224        4.959      222.127      201.091       96.111    49340.541    40437.537     9237.386       23.031        4.951      601.348       93.519        0.024      343.215       19.165      860.012
09/30/2013  17:51:00     -586.144     -188.376      -17.001      153.160      150.044       76.396    23458.018    22513.144     5836.368       21.556        2.590      615.670       76.157        0.015      343.208       19.155      860.061
09/30/2013  17:52:00     -452.009      -95.688        0.288      188.597      117.035       76.517    35568.986    13697.133     5854.884       13.428        2.756      462.027       89.986        0.038      343.209       19.155      860.087
09/30/2013  17:53:00     -301.452      -17.691      -25.274      139.484       86.030       45.065    19455.761     7401.225     2030.820        6.035        1.444      301.970       46.750        0.024      343.212       19.161      860.142
09/30/2013  17:54:00     -195.093       37.372      -17.005       79.214       59.704       35.838     6274.852     3564.544     1284.338        2.543        0.556      198.641       32.981        0.028      343.212       19.161      860.089
09/30/2013  17:55:00     -225.034       -1.250      -20.150       60.700       70.138       43.601     3684.536     4919.335     1901.051        3.077        0.525      225.037       31.114        0.019      343.285       19.286      860.069
09/30/2013  17:56:00     -281.713      -15.214      -21.468      105.116      116.346       51.701    11049.369    13536.487     2672.962        5.365        1.363      282.123       51.414        0.033      343.269       19.258      860.060
09/30/2013  17:57:00     -236.267      -62.804       -8.893      135.276      104.553       48.508    18299.529    10931.274     2352.981        4.571        1.579      244.472       55.281        0.051      343.248       19.224      860.084
09/30/2013  17:58:00     -296.217      -21.916      -27.051      165.499      154.988       65.158    27389.790    24021.354     4245.623        7.230        2.783      297.027       73.014        0.060      343.216       19.168      860.091
09/30/2013  17:59:00     -220.540      -24.013       -3.970      174.857      105.118       88.254    30574.906    11049.860     7788.812        4.931        2.471      221.844       96.538        0.189      343.205       19.149      860.080
09/30/2013  18:00:00      -46.793        8.757       17.348       76.582       68.645       59.081     5864.785     4712.179     3490.509        0.831        0.703       47.605       39.840        0.700      343.229       19.195      860.060
09/30/2013  18:01:00     -103.461      -36.138      -13.245       69.345       44.271       41.685     4808.763     1959.893     1737.613        1.034        0.425      109.590       30.681        0.078      343.268       19.260      860.008
09/30/2013  18:02:00     -283.273      -74.694        2.769      160.080       98.042       66.898    25625.450     9612.277     4475.305        6.276        1.986      292.956       79.225        0.073      343.154       19.063      860.001
09/30/2013  18:03:00     -463.021     -137.082       -7.664      155.450      166.104       74.587    24164.772    27590.421     5563.230       14.527        2.866      482.887       68.681        0.020      343.093       18.958      859.977
09/30/2013  18:04:00     -422.350     -121.433      -21.905      200.649      124.036       81.930    40259.961    15384.917     6712.493       12.797        3.118      439.461       89.395        0.041      343.078       18.934      859.993
09/30/2013  18:05:00     -442.709      -58.627      -14.047      160.178      121.059       77.073    25656.841    14655.308     5940.194       12.293        2.313      446.574       93.640        0.044      343.090       18.953      859.974
09/30/2013  18:06:00     -463.251      -65.076      -27.314      185.955      148.101       85.960    34579.180    21933.814     7389.138       14.173        3.195      467.800       97.749        0.044      343.066       18.912      859.974
09/30/2013  18:07:00     -312.506      -45.667       -0.193      120.320      114.490       69.763    14476.824    13107.976     4866.875        6.609        1.623      315.825       54.164        0.029      343.056       18.895      859.959
09/30/2013  18:08:00     -215.268     -123.018        2.801      143.527      115.831       60.599    20600.138    13416.841     3672.236        4.958        1.884      247.939       66.725        0.072      343.081       18.938      859.931
09/30/2013  18:09:00     -449.046     -221.600      -17.090      206.474      193.961       75.634    42631.657    37620.876     5720.455       16.849        4.299      500.749       86.148        0.030      343.014       18.825      859.949
09/30/2013  18:10:00     -181.844      -62.590       21.894      201.129      134.621       85.578    40452.822    18122.833     7323.599        5.167        3.295      192.314       87.970        0.209      343.001       18.801      859.920
09/30/2013  18:11:00     -433.884     -139.411      -15.948      236.651      197.470       98.112    56003.752    38994.247     9625.973       15.626        5.231      455.731      100.291        0.048      342.980       18.765      859.897
09/30/2013  18:12:00     -658.113      -21.166      -39.818      231.870      189.507      100.755    53763.644    35912.864    10151.622       26.747        4.991      658.454      111.059        0.028      342.966       18.743      859.936
09/30/2013  18:13:00     -519.289      -90.833      -28.624      171.416      171.747       83.655    29383.543    29497.150     6998.084       17.229        3.294      527.173       81.107        0.024      343.039       18.866      859.983
09/30/2013  18:14:00     -272.845       63.891      -23.550      135.447      124.669       65.014    18345.947    15542.407     4226.770        5.859        1.906      280.226       68.461        0.060      342.958       18.730      859.964
09/30/2013  18:15:00     -204.343       57.623       -2.860      230.676      108.497       75.232    53211.318    11771.515     5659.803        5.785        3.532      212.312      117.527        0.306      342.900       18.632      859.898
09/30/2013  18:16:00     -153.662      -37.443       17.082      181.573      105.865       60.126    32968.664    11207.496     3615.183        3.654        2.390      158.158       66.490        0.177      342.905       18.640      859.872
09/30/2013  18:17:00     -412.224     -215.487       -9.290      284.705      222.009      120.531    81056.847    49287.965    14527.638       18.063        7.244      465.148      129.331        0.077      342.971       18.752      859.903
09/30/2013  18:18:00     -414.783     -305.892      -28.662      232.884      188.936      100.731    54234.947    35696.803    10146.712       18.324        5.004      515.378      112.189        0.047      342.866       18.573      859.905
09/30/2013  18:19:00     -218.258      -70.625       16.649      146.025      162.295       77.963    21323.416    26339.714     6078.171        5.331        2.687      229.400       65.645        0.082      342.884       18.603      859.905
09/30/2013  18:20:00     -114.341      -11.025       12.373      112.406       97.328       54.248    12635.183     9472.686     2942.861        1.919        1.253      114.871       32.156        0.078      342.867       18.576      859.904
09/30/2013  18:21:00     -165.675      -18.216        4.163      145.964      112.479       55.311    21305.441    12651.562     3059.261        3.240        1.851      166.673       67.132        0.162      342.849       18.546      859.841
09/30/2013  18:22:00     -228.484      -57.482      -12.954      127.818      113.943       50.607    16337.495    12983.005     2561.068        4.377        1.594      235.603       44.479        0.036      342.826       18.506      859.844
09/30/2013  18:23:00     -490.846     -144.212       -5.120      220.538      174.777      103.370    48636.814    30547.151    10685.269       17.579        4.493      511.593      114.803        0.050      342.775       18.417      859.852
09/30/2013  18:24:00     -544.327     -113.922      -35.115      178.148      140.943       85.221    31736.824    19864.792     7262.575       18.467        2.943      556.121       87.288        0.025      342.755       18.384      859.911
09/30/2013  18:25:00     -147.996      -51.001       17.359      152.115      108.671       73.422    23138.831    11809.339     5390.724        3.256        2.017      156.537       77.857        0.247      342.751       18.377      859.922
09/30/2013  18:26:00     -323.620       -3.431      -29.102      157.481      122.343       68.603    24800.370    14967.866     4706.381        7.502        2.224      323.638       72.595        0.050      342.748       18.372      859.896
09/30/2013  18:27:00     -236.221      -43.220        0.539      139.022      112.111       63.564    19327.192    12568.788     4040.400        4.680        1.797      240.142       69.424        0.084      342.719       18.322      859.892
09/30/2013  18:28:00     -288.865      -69.321      -18.732      140.706      116.069       64.923    19798.205    13471.983     4214.939        6.303        1.874      297.066       67.397        0.051      342.709       18.305      859.894
09/30/2013  18:29:00     -501.918      -25.577      -20.184      255.716      143.030       87.693    65390.833    20457.649     7689.989       17.324        4.677      502.570      116.690        0.054      342.685       18.264      859.883
09/30/2013  18:30:00     -367.851      -40.287      -11.713      186.085      126.629       79.173    34627.755    16034.965     6268.306        9.699        2.847      370.050       86.364        0.054      342.678       18.254      859.901
09/30/2013  18:31:00     -344.191       12.572      -10.400      190.430      155.594       79.509    36263.753    24209.639     6321.688        9.275        3.340      344.421       72.581        0.044      342.649       18.203      859.920
09/30/2013  18:32:00     -502.931      -94.944      -23.048      206.063      171.073       86.601    42461.777    29266.017     7499.755       17.084        3.961      511.814       91.483        0.032      342.629       18.170      859.900
09/30/2013  18:33:00     -248.000      -71.249       19.193      175.317      131.051       65.248    30736.162    17174.467     4257.286        5.955        2.608      258.032       70.510        0.075      342.629       18.169      859.901
09/30/2013  18:34:00     -522.269      -53.637      -22.359      285.374      193.022      105.509    81438.441    37257.592    11132.201       20.296        6.491      525.016      138.243        0.069      342.579       18.085      859.881
09/30/2013  18:35:00     -616.624       68.206      -44.212      170.663      141.178       72.871    29125.780    19931.357     5310.131       22.059        2.718      620.384       71.778        0.013      342.577       18.081      859.944
09/30/2013  18:36:00     -372.368     -118.289      -21.090      175.757      121.498       75.727    30890.421    14761.727     5734.609       10.223        2.569      390.704       88.091        0.051      342.564       18.059      859.970
09/30/2013  18:37:00     -368.877      -68.916      -13.224      147.007      141.717       71.639    21610.938    20083.739     5132.205        9.390        2.341      375.259       70.113        0.035      342.551       18.037      859.984
09/30/2013  18:38:00     -309.271     -181.459      -13.271      223.581      181.422       82.618    49988.473    32914.076     6825.724       10.922        4.486      358.575      107.647        0.090      342.535       18.010      859.972
09/30/2013  18:39:00     -235.193      -21.594       -3.095      145.516      102.837       66.586    21175.007    10575.497     4433.694        4.598        1.809      236.183       60.304        0.065      342.562       18.056      859.967
09/30/2013  18:40:00     -304.607      -65.167       -4.848      151.899      133.604       73.590    23073.189    17849.972     5415.552        7.169        2.317      311.500       74.978        0.058      342.510       17.968      859.953
09/30/2013  18:41:00     -360.031      -34.688      -12.561      160.223      130.745       69.756    25671.426    17094.139     4865.833        8.930        2.382      361.698       80.282        0.049      342.495       17.942      859.953
09/30/2013  18:42:00     -423.254      -21.244      -26.817      191.435      168.240       83.957    36647.258    28304.566     7048.696       12.614        3.600      423.787       78.611        0.034      342.507       17.961      859.949
09/30/2013  18:43:00     -444.114     -132.609      -18.276      151.919      161.118       69.985    23079.379    25959.120     4897.833       13.454        2.697      463.489       62.699        0.018      342.526       17.996      859.983
09/30/2013  18:44:00     -133.778      -14.103       -1.375      102.276       82.685       65.125    10460.375     6836.816     4241.274        1.981        1.077      134.519       65.521        0.237      342.470       17.902      859.994
09/30/2013  18:45:00     -148.830     -118.895       -0.341      199.921      115.617       80.844    39968.310    13367.245     6535.705        4.807        2.994      190.490       92.195        0.234      342.497       17.946      859.966
09/30/2013  18:46:00     -485.929      -34.516      -26.360      222.409      162.845       94.825    49465.673    26518.436     8991.789       16.148        4.249      487.154      110.338        0.051      342.481       17.919      859.980
09/30/2013  18:47:00     -403.940     -138.426      -27.527      132.614      133.016       66.563    17586.456    17693.160     4430.613       11.139        1.986      427.000       65.283        0.023      342.492       17.937      859.994
09/30/2013  18:48:00     -245.604       17.926       -8.120      113.104      106.288       56.532    12792.545    11297.112     3195.861        4.399        1.364      246.257       58.588        0.057      342.463       17.885      859.947
09/30/2013  18:49:00     -224.668      -53.382        2.896      117.698       97.580       56.930    13852.741     9521.762     3241.082        3.997        1.331      230.922       55.910        0.059      342.399       17.777      859.941
09/30/2013  18:50:00     -315.730     -118.276       11.538      164.156      148.829       74.695    26947.227    22149.996     5579.395        8.423        2.734      337.157       80.078        0.056      342.395       17.772      859.959
09/30/2013  18:51:00     -197.512     -108.585        2.643      122.951       99.756       78.564    15117.042     9951.327     6172.327        4.102        1.562      225.392       76.388        0.115      342.409       17.797      859.961
09/30/2013  18:52:00     -223.498     -120.483        8.879      159.411      141.432       75.886    25412.011    20002.906     5758.622        5.785        2.559      253.904       84.746        0.111      342.430       17.832      859.942
09/30/2013  18:53:00     -487.243      -97.906      -17.946      229.045      174.952       89.767    52461.556    30608.280     8058.192       16.920        4.556      496.982      115.080        0.054      342.381       17.747      859.921
09/30/2013  18:54:00     -394.165      -29.202       -1.912      263.124      165.842      110.990    69234.406    27503.591    12318.684       13.262        5.453      395.245      132.909        0.113      342.387       17.758      859.964
09/30/2013  18:55:00     -569.655        9.793      -33.874      193.915      163.338       86.095    37602.851    26679.396     7412.348       19.871        3.585      569.739       95.101        0.028      342.373       17.735      859.942
09/30/2013  18:56:00     -448.233      -92.077      -27.324      156.276      168.112       95.318    24422.278    28261.742     9085.607       13.594        3.088      457.593       79.893        0.030      342.391       17.764      859.984
09/30/2013  18:57:00     -398.248      -87.604      -10.808      182.633      120.616       81.004    33354.985    14548.127     6561.704       11.042        2.723      407.769       90.969        0.050      342.352       17.696      859.971
09/30/2013  18:58:00     -387.009      -65.756        2.245      237.809      148.583       91.804    56553.212    22076.986     8427.943       12.056        4.353      392.555      107.060        0.074      342.347       17.689      859.997
09/30/2013  18:59:00     -307.259      -82.526       -4.853      245.418      130.264       74.249    60229.806    16968.666     5512.918        9.196        4.136      318.148       90.581        0.081      342.343       17.683      860.026
09/30/2013  19:00:00     -518.742     -132.130      -16.312      205.172      153.594       84.761    42095.377    23590.999     7184.453       17.983        3.644      535.305       86.798        0.026      342.344       17.685      859.997
09/30/2013  19:01:00     -503.341     -135.013      -26.362      194.734      162.637       84.104    37921.492    26450.666     7073.567       17.185        3.572      521.134       83.865        0.026      342.335       17.669      859.997
09/30/2013  19:02:00     -165.429       40.049        5.084       97.963      123.276       68.071     9596.696    15196.854     4633.645        2.921        1.471      170.207       40.016        0.055      342.343       17.682      860.014
09/30/2013  19:03:00     -261.445      -60.551       -9.449      211.117      105.849       71.271    44570.181    11204.063     5079.499        6.647        3.043      268.365       65.931        0.060      342.274       17.567      859.995
09/30/2013  19:04:00     -278.998     -187.351        3.216      223.187      162.639      103.952    49812.483    26451.564    10806.113        9.999        4.354      336.066      121.165        0.130      342.284       17.583      860.008
09/30/2013  19:05:00     -344.272     -160.404      -31.505      258.331      149.528      100.314    66734.760    22358.518    10062.985       12.218        4.958      379.806      131.878        0.121      342.325       17.653      860.040
09/30/2013  19:06:00     -195.733      -84.416       -4.838      155.805      120.625       65.410    24275.280    14550.274     4278.458        4.427        2.155      213.161       64.277        0.091      342.309       17.627      860.038
09/30/2013  19:07:00     -254.375     -167.592      -10.438      142.171      144.547       72.367    20212.634    20893.916     5236.971        6.961        2.317      304.620       71.459        0.055      342.303       17.616      860.024
09/30/2013  19:08:00     -360.853      -93.603       -6.622      202.161      137.375       77.967    40869.038    18871.936     6078.814       10.241        3.291      372.795       97.845        0.069      342.293       17.598      860.015
09/30/2013  19:09:00     -409.914     -173.436      -12.271      191.766      175.203       86.185    36774.157    30696.162     7427.803       13.656        3.745      445.095       94.704        0.045      342.316       17.637      860.018
09/30/2013  19:10:00     -266.031     -181.135        6.313      139.801      142.229       77.035    19544.256    20228.954     5934.437        7.466        2.285      321.842       80.255        0.062      342.304       17.618      860.019
09/30/2013  19:11:00     -354.297     -105.406       -6.964      181.047      182.050       81.177    32777.947    33142.037     6589.647       10.458        3.625      369.644       83.660        0.051      342.290       17.593      860.015
09/30/2013  19:12:00     -229.217      -14.674        3.910      127.469      129.401       67.366    16248.337    16744.631     4538.121        4.514        1.877      229.686       65.754        0.082      342.305       17.618      860.034
09/30/2013  19:13:00     -301.519     -110.391      -14.513      214.188      154.954       84.711    45876.549    24010.715     7176.013        9.017        3.853      321.092      103.576        0.104      342.293       17.599      860.032
09/30/2013  19:14:00     -398.296     -136.287      -21.768      173.793      146.247       83.914    30203.979    21388.200     7041.550       11.815        2.932      420.968       85.927        0.042      342.348       17.692      860.054
09/30/2013  19:15:00     -466.911     -190.814      -23.996      200.964      192.279       91.071    40386.590    36971.038     8293.851       17.030        4.283      504.396       96.158        0.036      342.303       17.615      860.042
09/30/2013  19:16:00     -298.727      -55.019      -26.716      189.828      108.637       74.253    36034.837    11802.010     5513.581        7.315        2.668      303.751       91.311        0.090      342.275       17.568      860.063
09/30/2013  19:17:00     -396.514      -71.447      -17.066      185.437      115.832       75.098    34386.840    13417.161     5639.656       10.802        2.672      402.899       69.976        0.030      342.252       17.528      860.071
09/30/2013  19:18:00     -370.559      -54.705      -15.503      160.464      104.850       72.053    25748.803    10993.536     5191.607        9.123        2.097      374.575       68.019        0.033      342.199       17.439      860.070
09/30/2013  19:19:00     -252.803       -0.832        5.008      170.567      141.182       80.171    29093.040    19932.294     6427.336        5.968        2.773      252.804       84.364        0.111      342.162       17.376      860.063
09/30/2013  19:20:00     -259.350      -90.161       -9.577      103.848       72.697       55.650    10784.386     5284.800     3096.888        4.732        0.958      274.575       56.075        0.042      342.164       17.378      860.063
09/30/2013  19:21:00     -285.442      -31.268       -6.234      156.015      122.439       63.060    24340.722    14991.430     3976.527        6.289        2.165      287.149       61.837        0.046      342.127       17.316      860.058
09/30/2013  19:22:00     -295.793      -95.168       -8.855      127.183      112.566       66.372    16175.609    12671.182     4405.190        6.493        1.663      310.726       63.158        0.041      342.134       17.327      860.071
09/30/2013  19:23:00     -264.980      -47.934      -14.523      101.354      137.816       54.058    10272.655    18993.142     2922.314        5.245        1.609      269.281       37.379        0.019      342.159       17.371      860.080
09/30/2013  19:24:00     -435.613      -50.867      -52.659      198.968      158.581       71.810    39588.233    25147.959     5156.688       13.249        3.495      438.573       86.294        0.039      342.155       17.364      860.068
09/30/2013  19:25:00     -587.400     -189.533      -26.339      219.751      178.898       90.590    48290.415    32004.538     8206.508       23.506        4.425      617.221       97.886        0.025      342.191       17.425      860.073
09/30/2013  19:26:00     -396.521     -147.163      -30.608      244.803      165.294       99.534    59928.613    27322.145     9906.928       13.847        4.858      422.949      111.478        0.069      342.200       17.440      860.095
09/30/2013  19:27:00     -483.679     -297.163      -23.692      209.743      157.396       89.661    43992.135    24773.423     8039.167       19.979        3.840      567.672       96.318        0.029      342.247       17.520      860.118
09/30/2013  19:28:00     -222.193      -52.964       14.814      151.589      109.847       62.396    22979.111    12066.269     3893.315        4.566        1.947      228.418       72.351        0.100      342.216       17.468      860.134
09/30/2013  19:29:00     -297.905      -93.657        1.172      165.283      137.682       74.763    27318.504    18956.377     5589.458        7.468        2.593      312.281       74.834        0.057      342.213       17.460      860.130
09/30/2013  19:30:00     -299.170      -70.464      -16.550      141.009      125.911       57.293    19883.579    15853.581     3282.433        6.687        1.951      307.357       54.281        0.031      342.223       17.481      860.102
09/30/2013  19:31:00     -173.194     -131.121        3.743      105.572       89.332       57.014    11145.444     7980.168     3250.553        3.478        1.119      217.230       52.601        0.059      342.168       17.386      860.102
09/30/2013  19:32:00     -381.531     -214.356       -4.881      246.731      148.853       85.570    60875.961    22157.191     7322.231       14.093        4.518      437.624      105.101        0.058      342.175       17.399      860.108
09/30/2013  19:33:00     -299.775     -127.219      -17.676      150.443      130.090       73.488    22633.161    16923.302     5400.553        7.565        2.248      325.652       79.439        0.060      342.172       17.392      860.091
09/30/2013  19:34:00     -204.227     -147.716       16.720      233.684      163.468       91.283    54608.019    26721.765     8332.515        7.672        4.483      252.049      117.500        0.217      342.139       17.336      860.116
09/30/2013  19:35:00     -344.906     -140.905       -3.667      151.448      176.791       70.361    22936.566    31255.140     4950.714        9.897        2.957      372.578       69.018        0.034      342.179       17.406      860.074
09/30/2013  19:36:00     -211.070      -71.740       12.624      194.488      112.852       83.822    37825.432    12735.521     7026.051        5.371        2.879      222.928       80.791        0.131      342.115       17.296      860.099
09/30/2013  19:37:00     -179.491      -92.394       -0.876      181.509      122.301       75.051    32945.364    14957.616     5632.709        4.713        2.677      201.875       90.066        0.199      342.099       17.269      860.083
09/30/2013  19:38:00     -267.816      -94.230        6.354      197.549      125.177       70.215    39025.433    15669.338     4930.077        7.012        2.981      283.910       96.084        0.115      342.107       17.283      860.092
09/30/2013  19:39:00     -345.563     -143.101       -5.378      210.183      126.692       76.656    44176.893    16050.944     5876.184       10.300        3.305      374.021       85.029        0.052      342.148       17.351      860.110
09/30/2013  19:40:00     -329.955     -119.198       -8.082      170.457      134.248       75.907    29055.533    18022.406     5761.880        8.798        2.642      350.825       81.682        0.054      342.145       17.347      860.099
09/30/2013  19:41:00     -363.886     -148.533      -14.346      168.235      111.870       68.517    28303.058    12514.980     4694.639       10.009        2.276      393.034       74.527        0.036      342.129       17.319      860.128
09/30/2013  19:42:00     -303.346     -179.858        1.869      211.698      139.937       75.454    44815.903    19582.478     5693.334        9.722        3.505      352.658       82.307        0.054      342.086       17.248      860.131
09/30/2013  19:43:00     -391.525     -184.237      -15.990      119.040      126.258       68.820    14170.523    15941.044     4736.141       11.116        1.742      432.707       55.237        0.016      342.099       17.269      860.161
09/30/2013  19:44:00     -301.363     -115.339      -16.342      178.993      113.831       69.188    32038.373    12957.590     4786.936        7.708        2.489      322.680       72.610        0.051      342.074       17.225      860.149
09/30/2013  19:45:00     -149.888      -72.052       12.931      137.696      110.541       63.288    18960.294    12219.376     4005.314        3.150        1.759      166.307       58.902        0.125      342.034       17.159      860.153
09/30/2013  19:46:00     -315.752     -177.050       -9.906      185.598      131.374       74.494    34446.564    17259.161     5549.368        9.419        2.863      362.003       75.042        0.043      342.058       17.197      860.140
09/30/2013  19:47:00     -357.613      -96.624       -8.862      236.777      153.491       87.852    56063.182    23559.438     7717.953       11.230        4.367      370.437      111.142        0.090      342.039       17.166      860.152
09/30/2013  19:48:00     -417.008     -255.304      -12.779      182.794      174.807       98.013    33413.585    30557.483     9606.606       15.639        3.679      488.954      106.321        0.047      342.053       17.191      860.170
09/30/2013  19:49:00     -394.412     -148.384      -10.045      160.055      164.540       79.571    25617.591    27073.382     6331.602       11.834        2.951      421.401       78.546        0.035      342.049       17.183      860.167
09/30/2013  19:50:00     -307.823      -55.212        1.733      188.975      192.340       81.771    35711.395    36994.511     6686.571        8.858        3.970      312.735       80.637        0.066      342.032       17.154      860.178
09/30/2013  19:51:00     -249.096     -135.081       -8.235      180.302      146.027       70.484    32508.905    21323.780     4967.960        6.957        2.940      283.365       73.081        0.067      342.034       17.157      860.185
09/30/2013  19:52:00     -298.002     -164.790      -21.880      175.130      109.643       67.727    30670.436    12021.561     4586.994        8.185        2.364      340.531       74.992        0.048      342.019       17.132      860.190
09/30/2013  19:53:00     -173.819      -77.546        3.059       87.714       88.429       48.684     7693.704     7819.699     2370.154        2.706        0.894      190.332       49.792        0.068      341.983       17.072      860.217
09/30/2013  19:54:00     -217.660      -94.640      -11.367      169.992       91.604       56.494    28897.172     8391.339     3191.627        4.846        2.024      237.345       70.614        0.089      342.009       17.117      860.204
09/30/2013  19:55:00     -201.850     -104.227       -1.656       82.764       66.103       44.356     6849.855     4369.596     1967.465        3.240        0.659      227.171       43.849        0.037      341.981       17.068      860.221
09/30/2013  19:56:00     -167.052      -22.313        7.946      147.551       94.474       70.668    21771.354     8925.407     4993.911        3.207        1.785      168.536       84.263        0.250      341.991       17.088      860.219
09/30/2013  19:57:00     -463.856        2.357      -27.181      179.675      134.984       70.309    32283.217    18220.757     4943.371       13.567        2.772      463.862       76.390        0.027      342.063       17.207      860.232
09/30/2013  19:58:00     -422.933      -51.946      -10.898      152.470       86.696       59.441    23247.086     7516.163     3533.202       10.799        1.715      426.111       65.447        0.024      342.043       17.173      860.244
09/30/2013  19:59:00     -288.374      -20.174      -13.701      129.839       71.097       46.358    16858.186     5054.770     2149.064        5.390        1.203      289.078       54.795        0.036      342.018       17.131      860.262
09/30/2013  20:00:00     -182.509      -10.995      -15.189       62.440       55.134       32.259     3898.702     3039.770     1040.639        2.082        0.399      182.840       32.983        0.033      341.997       17.097      860.263
09/30/2013  20:01:00     -232.663       21.252      -41.398       98.533       69.051       61.076     9708.735     4768.069     3730.280        3.725        0.910      233.632       52.210        0.050      342.066       17.212      860.252
09/30/2013  20:02:00     -131.338       11.041      -14.962       73.220       75.572       38.716     5361.188     5711.085     1498.908        1.508        0.629      131.802       39.504        0.090      342.034       17.159      860.238
09/30/2013  20:03:00     -136.025       37.989      -17.646       57.347       49.958       32.234     3288.722     2495.847     1039.051        1.354        0.341      141.231       27.714        0.039      342.040       17.171      860.214
09/30/2013  20:04:00        8.482      -13.304       16.119       25.398       24.927       23.439      645.076      621.337      549.371        0.116        0.091       15.778       17.924        1.290      341.921       16.970      860.221
09/30/2013  20:05:00      -29.497      -27.677        7.996       50.396       29.343       18.557     2539.749      860.990      344.360        0.272        0.187       40.449       22.692        0.315      341.883       16.906      860.220
09/30/2013  20:06:00      -62.539       26.950       -1.326       60.640       27.695       29.289     3677.224      767.040      857.856        0.497        0.265       68.099       23.062        0.115      341.862       16.870      860.222
09/30/2013  20:07:00     -123.176       22.246       -7.493       53.831       44.575       27.437     2897.784     1986.965      752.771        1.068        0.282      125.169       26.137        0.044      341.941       17.004      860.224
09/30/2013  20:08:00      -23.484       66.705        1.463       57.195       38.863       27.427     3271.296     1510.317      752.242        0.527        0.277       70.719       24.279        0.118      341.822       16.803      860.230
09/30/2013  20:09:00       35.140      -78.230        4.444       25.922       52.269       26.520      671.933     2732.067      703.287        0.574        0.205       85.760       12.614        0.022      341.895       16.925      860.240
09/30/2013  20:10:00      -15.302      -34.991        3.783       35.533       22.583       17.128     1262.615      509.992      293.352        0.177        0.103       38.190       15.221        0.159      341.868       16.880      860.264
09/30/2013  20:11:00      -20.531      -56.579       -0.567       23.629       34.699       16.912      558.349     1204.022      286.031        0.284        0.102       60.189       17.794        0.087      341.939       17.002      860.276
09/30/2013  20:12:00       43.612      -56.378       -1.816       44.862       38.336       25.727     2012.584     1469.623      661.894        0.461        0.207       71.277       23.888        0.112      341.637       16.489      860.271
09/30/2013  20:13:00       62.062      -53.802       -3.611       48.528       65.113       30.086     2354.938     4239.761      905.153        0.713        0.375       82.136       41.341        0.253      341.607       16.436      860.295
09/30/2013  20:14:00       26.684      -68.694        5.029       59.089       61.978       36.266     3491.567     3841.213     1315.193        0.705        0.432       73.695       36.015        0.239      341.700       16.595      860.324
09/30/2013  20:15:00       70.853      -33.986       25.101       55.030       80.412       39.226     3028.315     6466.064     1538.685        0.892        0.552       78.583       53.321        0.460      341.712       16.615      860.344
09/30/2013  20:16:00       10.244       37.408       55.486       35.129       44.176       38.037     1234.042     1951.524     1446.812        0.461        0.232       38.785       34.615        0.797      341.342       15.988      860.311
09/30/2013  20:17:00       68.006      -92.509        3.005       44.935       49.034       29.892     2019.119     2404.295      893.546        0.925        0.266      114.816       30.194        0.069      341.744       16.670      860.332
09/30/2013  20:18:00       90.482      -58.405        5.514       54.315       46.938       32.956     2950.164     2203.189     1086.114        0.893        0.312      107.695       33.627        0.097      341.738       16.658      860.339
09/30/2013  20:19:00      109.461      -46.074       -4.288       34.581       69.799       44.275     1195.836     4871.915     1960.315        1.107        0.401      118.762       39.214        0.109      341.849       16.846      860.349
09/30/2013  20:20:00       54.393      -32.549       -4.087       32.740       42.571       27.083     1071.927     1812.269      733.481        0.383        0.181       63.388       10.711        0.029      341.644       16.500      860.362
09/30/2013  20:21:00       15.472       -3.293       21.557       51.245       31.182       27.659     2626.021      972.337      764.997        0.254        0.218       15.818       22.278        1.983      341.483       16.228      860.369
09/30/2013  20:22:00        9.041      -21.694        7.428       46.182       48.776       36.107     2132.785     2379.134     1303.713        0.321        0.291       23.503       30.492        1.683      341.392       16.073      860.372
09/30/2013  20:23:00      121.293     -130.132       -4.381       50.267       75.925       37.169     2526.738     5764.580     1381.571        2.067        0.484      177.894       42.100        0.056      341.851       16.848      860.393
09/30/2013  20:24:00       91.544      -74.931       -6.402       51.321       46.455       32.423     2633.865     2158.101     1051.273        0.994        0.292      118.301       30.970        0.069      341.693       16.583      860.418
09/30/2013  20:25:00       74.406      -78.604      -17.922       57.654       79.922       55.391     3324.026     6387.593     3068.118        1.241        0.639      108.235       37.385        0.119      341.993       17.091      860.426
09/30/2013  20:26:00     -107.791      -42.524      -23.662      106.916       66.674       38.104    11431.038     4445.457     1451.925        1.565        0.866      115.875       17.557        0.023      342.172       17.395      860.374
09/30/2013  20:27:00       59.916      -83.154        5.854       62.270       78.665       59.380     3877.515     6188.163     3526.003        1.206        0.680      102.492       51.395        0.251      341.960       17.035      860.370
09/30/2013  20:28:00       48.410      -49.427       53.901       93.991      168.992       90.571     8834.239    28558.328     8203.112        2.663        2.280       69.186      118.064        2.912      341.797       16.759      860.376
09/30/2013  20:29:00       90.809       78.892       43.107       70.085       76.692       61.611     4911.934     5881.695     3795.867        1.546        0.729      120.292       51.551        0.184      341.908       16.948      860.394
09/30/2013  20:30:00       33.311       55.769       74.622       55.375       68.611       61.945     3066.372     4707.526     3837.203        1.070        0.581       64.960       52.147        0.644      341.763       16.701      860.341
09/30/2013  20:31:00       39.355      -35.797       70.070       97.078      137.313       89.682     9424.206    18854.997     8042.789        2.202        1.816       53.200       88.608        2.774      341.814       16.787      860.285
09/30/2013  20:32:00       89.733     -106.528       23.124       85.183      117.716       88.618     7256.060    13857.126     7853.126        2.444        1.448      139.285       70.486        0.256      341.946       17.009      860.291
09/30/2013  20:33:00       27.193      -38.000       51.133       67.141      125.513       91.042     4507.880    15753.497     8288.697        1.667        1.428       46.728       87.700        3.523      341.788       16.742      860.289
09/30/2013  20:34:00      121.400     -152.365      -12.470      118.516      175.798      113.095    14045.960    30904.959    12790.400        4.791        2.887      194.815      133.965        0.473      341.982       17.072      860.286
09/30/2013  20:35:00       30.186       66.689      117.953       74.151       90.367       67.207     5498.339     8166.209     4516.722        1.872        0.909       73.203       62.614        0.732      341.627       16.470      860.286
09/30/2013  20:36:00       45.784     -111.586        1.584       68.764       96.940       62.827     4728.462     9397.445     3947.249        1.631        0.904      120.613       48.815        0.164      341.997       17.098      860.324
09/30/2013  20:37:00       24.238      -68.412        8.782       42.210       51.144       34.079     1781.699     2615.693     1161.403        0.545        0.278       72.579       23.850        0.108      341.983       17.076      860.336
09/30/2013  20:38:00       -4.581     -120.205       -7.535       31.370       49.529       24.617      984.099     2453.105      605.987        0.928        0.202      120.292       28.726        0.057      342.076       17.232      860.326
09/30/2013  20:39:00       25.787      -17.461        9.416       40.711       43.103       23.323     1657.410     1857.911      543.972        0.256        0.203       31.143       18.384        0.348      341.936       16.995      860.331
09/30/2013  20:40:00       60.009      -54.714       12.387       50.544       34.554       34.821     2554.743     1193.953     1212.510        0.585        0.248       81.208       28.362        0.122      341.751       16.682      860.343
09/30/2013  20:41:00       34.109      -23.116       18.665       48.115       37.686       26.225     2315.087     1420.228      687.737        0.323        0.221       41.204       29.834        0.524      341.685       16.570      860.365
09/30/2013  20:42:00      -30.957      -11.804        1.085       32.426       23.754       17.284     1051.444      564.247      298.747        0.151        0.096       33.131       17.942        0.293      341.808       16.777      860.381
09/30/2013  20:43:00      -28.261       -5.702        8.166       37.310       22.429       15.005     1392.052      503.054      225.158        0.151        0.106       28.830       18.613        0.417      341.778       16.728      860.387
09/30/2013  20:44:00      -64.703      -31.472        1.959       26.714       20.644       14.348      713.658      426.183      205.853        0.326        0.067       71.951       13.288        0.034      341.898       16.931      860.408
09/30/2013  20:45:00       -0.497        3.395        6.082       13.534       15.065        8.708      183.160      226.946       75.826        0.027        0.024        3.431        6.271        3.341      341.730       16.644      860.428
09/30/2013  20:46:00        0.970      -16.315       -5.098       12.006       13.738       10.626      144.151      188.730      112.905        0.037        0.022       16.344        6.927        0.180      341.791       16.748      860.443
09/30/2013  20:47:00       32.875      -52.968      -15.042       31.158       22.118       16.905      970.813      489.213      285.769        0.293        0.087       62.341        5.456        0.008      341.464       16.196      860.461
09/30/2013  20:48:00      -14.413      -56.739        0.777       52.594       43.787       14.214     2766.142     1917.309      202.052        0.416        0.244       58.541       20.408        0.122      341.819       16.798      860.477
09/30/2013  20:49:00      -17.882     -103.156        5.346       35.755       26.116       24.249     1278.425      682.046      588.012        0.677        0.127      104.695       23.541        0.051      342.085       17.248      860.483
09/30/2013  20:50:00      -44.323      -68.055       -2.529       28.968       25.321       18.159      839.139      641.164      329.736        0.421        0.091       81.216       11.334        0.019      342.086       17.249      860.484
09/30/2013  20:51:00       18.765      -44.576       -3.527       18.957       25.328       16.038      359.383      641.488      257.221        0.180        0.063       48.365       11.133        0.053      342.024       17.144      860.475
09/30/2013  20:52:00       26.348      -36.988        8.091       20.920       28.619       14.645      437.627      819.042      214.488        0.180        0.074       45.413       17.789        0.153      341.876       16.894      860.472
09/30/2013  20:53:00      -12.850       -3.064       21.609       12.880       26.156       18.792      165.894      684.127      353.142        0.092        0.060       13.210       14.330        1.177      341.628       16.473      860.473
09/30/2013  20:54:00      -39.297       -6.165        0.186       29.090       18.079       12.248      846.201      326.858      150.011        0.145        0.066       39.777       11.945        0.090      341.808       16.778      860.470
09/30/2013  20:55:00     -114.535      -38.043       -6.039       27.258       17.087       11.349      743.007      291.961      128.801        0.788        0.058      120.688       10.316        0.007      341.703       16.601      860.467
09/30/2013  20:56:00      -80.354      -53.147       -8.491       28.451       17.363       11.575      809.449      301.483      133.980        0.530        0.062       96.339       10.305        0.011      341.649       16.509      860.452
09/30/2013  20:57:00      -76.612      -51.155        1.846       32.851       31.008       18.546     1079.160      961.507      343.970        0.544        0.119       92.120       11.360        0.015      341.665       16.537      860.437
09/30/2013  20:58:00     -117.812       16.254       -9.183       28.967       35.887       12.763      839.071     1287.875      162.904        0.826        0.114      118.928       12.215        0.011      341.731       16.646      860.424
09/30/2013  20:59:00      -72.185       13.194       -1.256       65.151       64.778       31.233     4244.617     4196.188      975.488        0.740        0.471       73.381       33.592        0.210      341.827       16.810      860.407
09/30/2013  21:00:00     -132.075       -2.379       -4.931       53.788       58.388       27.536     2893.184     3409.145      758.206        1.227        0.353      132.097       22.553        0.029      341.737       16.656      860.397
09/30/2013  21:01:00      -38.355       -9.990       22.434       96.113       44.534       37.306     9237.743     1983.279     1391.746        0.734        0.631       39.634       46.781        1.393      341.752       16.683      860.396
09/30/2013  21:02:00     -105.147      -50.543        4.733       63.846       51.241       26.296     4076.287     2625.618      691.495        1.051        0.370      116.664       24.808        0.045      341.656       16.519      860.391
09/30/2013  21:03:00     -150.767      -57.520       -4.928       58.007       53.736       29.688     3364.835     2887.601      881.373        1.660        0.357      161.367       29.589        0.034      341.695       16.586      860.385
09/30/2013  21:04:00     -100.990      -41.852       -2.096       51.767       46.884       25.833     2679.848     2198.116      667.348        0.875        0.277      109.319       26.562        0.059      341.644       16.498      860.378
09/30/2013  21:05:00     -174.411      -51.211       -7.054       63.296       48.958       28.534     4006.422     2396.874      814.188        2.015        0.361      181.774       23.093        0.016      341.672       16.543      860.386
09/30/2013  21:06:00     -189.960      -23.163        0.757       90.790       48.474       40.918     8242.863     2349.763     1674.275        2.444        0.613      191.367       43.454        0.052      341.726       16.637      860.395
09/30/2013  21:07:00     -214.447      -36.558       -3.009       88.247       47.700       32.800     7787.542     2275.262     1075.866        2.923        0.557      217.540       35.290        0.026      341.654       16.512      860.409
09/30/2013  21:08:00     -220.445      -36.981        0.269       61.282       55.061       33.315     3755.513     3031.709     1109.895        2.893        0.395      223.526       33.988        0.023      341.851       16.847      860.411
09/30/2013  21:09:00     -133.166      -28.186        4.301       77.644       49.092       30.789     6028.643     2410.005      947.978        1.396        0.469      136.117       35.271        0.067      341.864       16.872      860.405
09/30/2013  21:10:00     -133.867      -72.009       -1.134       60.298       59.779       34.749     3635.852     3573.501     1207.471        1.576        0.421      152.006       38.624        0.065      341.795       16.754      860.410
09/30/2013  21:11:00     -227.275      -85.003       -6.169       57.756       54.821       32.580     3335.708     3005.299     1061.450        3.316        0.370      242.651       27.241        0.013      341.700       16.591      860.421
09/30/2013  21:12:00     -109.945      -66.769        7.569       63.408       57.818       33.571     4020.602     3342.919     1127.035        1.255        0.425      128.631       33.135        0.066      341.513       16.277      860.429
09/30/2013  21:13:00     -140.145      -40.243        3.327       64.292       50.339       30.073     4133.508     2534.050      904.395        1.442        0.379      145.809       32.058        0.048      341.443       16.158      860.418
09/30/2013  21:14:00     -172.730      -57.341        2.612       58.438       40.661       27.479     3414.960     1653.305      755.097        1.948        0.291      181.999       25.184        0.019      341.488       16.232      860.403
09/30/2013  21:15:00     -123.300      -49.139       -3.509       71.118       40.685       28.660     5057.800     1655.285      821.395        1.258        0.377      132.731       30.439        0.053      341.430       16.137      860.389
09/30/2013  21:16:00     -188.741     -100.038        3.405      103.769       58.172       46.411    10767.933     3384.025     2154.024        3.097        0.815      213.613       51.393        0.058      341.562       16.358      860.388
09/30/2013  21:17:00     -281.576      -88.133       -6.442      142.398       97.098       54.671    20277.080     9428.069     2988.895        5.989        1.635      295.047       67.906        0.053      341.816       16.788      860.389
09/30/2013  21:18:00     -255.189      -31.593      -24.017       54.883       49.134       37.653     3012.195     2414.183     1417.783        3.677        0.342      257.137       29.894        0.014      341.905       16.938      860.392
09/30/2013  21:19:00     -158.897      -24.727        3.347       98.004       47.296       37.771     9604.848     2236.932     1426.642        1.957        0.663      160.809       44.122        0.075      341.707       16.603      860.388
09/30/2013  21:20:00     -111.514      -55.880        0.637       50.450       40.839       26.994     2545.187     1667.852      728.657        1.025        0.247      124.732       23.341        0.035      341.687       16.572      860.391
09/30/2013  21:21:00     -109.782      -65.731        5.657       51.935       39.575       29.263     2697.197     1566.147      856.348        1.076        0.256      127.956       27.993        0.048      341.653       16.514      860.400
09/30/2013  21:22:00      -53.891      -44.801        4.038       50.764       38.698       24.263     2576.956     1497.510      588.714        0.479        0.233       70.081       19.579        0.078      341.545       16.330      860.401
09/30/2013  21:23:00     -126.630      -29.663       -1.563       86.016       48.418       31.368     7398.732     2344.351      983.963        1.382        0.536      130.058       31.893        0.060      341.534       16.313      860.396
09/30/2013  21:24:00      -73.168      -42.626       10.571       45.659       30.424       24.390     2084.743      925.599      594.884        0.544        0.180       84.679       24.547        0.084      341.443       16.159      860.396
09/30/2013  21:25:00     -102.815      -73.616        4.467       67.198       45.165       27.149     4515.623     2039.864      737.092        1.165        0.365      126.453       28.923        0.052      341.498       16.252      860.393
09/30/2013  21:26:00     -105.821      -55.999        8.062       64.613       37.720       26.862     4174.779     1422.810      721.574        1.036        0.316      119.725       32.997        0.076      341.451       16.172      860.391
09/30/2013  21:27:00     -136.739      -87.391        3.546       47.340       42.311       29.158     2241.041     1790.240      850.217        1.561        0.244      162.280       22.543        0.019      341.512       16.275      860.391
09/30/2013  21:28:00     -188.320     -104.594      -11.639       60.057       51.564       31.746     3606.900     2658.823     1007.801        2.691        0.364      215.417       21.445        0.010      341.541       16.323      860.393
09/30/2013  21:29:00     -152.611      -85.069       -1.290       58.783       51.398       27.195     3455.493     2641.764      739.591        1.868        0.342      174.720       31.866        0.033      341.535       16.312      860.392
09/30/2013  21:30:00     -143.539     -121.620       -7.939       83.836       48.961       33.595     7028.486     2397.177     1128.642        2.300        0.528      188.136       41.415        0.048      341.486       16.229      860.396
09/30/2013  21:31:00      -71.342      -84.909       13.475       75.546       44.621       36.195     5707.257     1991.022     1310.114        1.074        0.450      110.902       43.218        0.152      341.382       16.056      860.408
09/30/2013  21:32:00      -76.661      -60.112        0.757       47.319       41.658       29.785     2239.047     1735.382      887.155        0.718        0.243       97.419       29.735        0.093      341.328       15.964      860.405
09/30/2013  21:33:00      -79.034      -61.236        5.210       45.673       39.984       24.023     2086.051     1598.756      577.127        0.714        0.213       99.981       26.479        0.070      341.314       15.941      860.399
09/30/2013  21:34:00     -115.047      -48.363      -14.152       40.384       36.563       18.275     1630.838     1336.856      333.984        0.954        0.165      124.799       22.817        0.033      341.392       16.071      860.400
09/30/2013  21:35:00      -52.890      -38.449       -4.866       28.292       18.016       11.393      800.440      324.568      129.803        0.278        0.063       65.389        8.532        0.017      341.323       15.957      860.405
09/30/2013  21:36:00     -144.695      -48.796       -8.009       43.477       41.535       26.913     1890.226     1725.179      724.297        1.386        0.217      152.701       21.984        0.021      341.196       15.742      860.410
09/30/2013  21:37:00     -110.087      -50.814       -1.332       37.024       26.618       23.990     1370.805      708.519      575.528        0.868        0.133      121.249       20.221        0.028      341.213       15.769      860.426
09/30/2013  21:38:00     -139.416      -72.180       -3.539       37.357       42.894       22.097     1395.530     1839.870      488.279        1.419        0.186      156.993       18.152        0.013      341.302       15.921      860.426
09/30/2013  21:39:00      -40.270      -53.392        8.120       54.080       43.253       25.863     2924.629     1870.858      668.877        0.500        0.273       66.876       29.675        0.197      341.255       15.842      860.428
09/30/2013  21:40:00      -87.139      -33.418        0.212       23.954       27.204       15.378      573.785      740.073      236.483        0.513        0.078       93.327       12.328        0.017      341.269       15.866      860.432
09/30/2013  21:41:00     -128.964      -13.808       -1.026       72.503       44.499       28.072     5256.687     1980.144      788.044        1.242        0.401      129.701       28.164        0.047      341.327       15.962      860.434
09/30/2013  21:42:00     -135.732      -77.751       -8.016       60.914       50.690       31.885     3710.558     2569.463     1016.649        1.591        0.365      156.424       34.623        0.049      341.570       16.372      860.451
09/30/2013  21:43:00      -94.468      -49.747        1.050       33.748       35.313       21.568     1138.947     1246.998      465.182        0.712        0.143      106.765       16.291        0.023      341.343       15.989      860.454
09/30/2013  21:44:00      -90.676       17.580       -2.951       30.850       20.140       15.394      951.699      405.608      236.960        0.507        0.080       92.365       16.679        0.033      341.330       15.967      860.462
09/30/2013  21:45:00      -68.482      -15.214       -4.974       36.502       43.033       15.875     1332.425     1851.870      252.026        0.419        0.172       70.152       15.323        0.048      341.295       15.909      860.460
09/30/2013  21:46:00      -77.449      -71.681      -10.635       45.049       44.015       24.544     2029.404     1937.321      602.389        0.791        0.228      105.530       24.376        0.053      341.682       16.564      860.462
09/30/2013  21:47:00       31.226      -10.791       -0.951       29.909       21.292       18.363      894.521      453.334      337.199        0.139        0.084       33.038       14.817        0.201      340.926       15.284      860.461
09/30/2013  21:48:00       89.335       38.241        9.790       44.543       29.187       22.997     1984.041      851.856      528.843        0.645        0.168       97.176        6.862        0.005      340.668       14.848      860.470
09/30/2013  21:49:00       68.004       28.438       18.408       47.923       39.502       40.539     2296.598     1560.401     1643.388        0.564        0.275       73.711       21.691        0.087      340.455       14.488      860.472
09/30/2013  21:50:00      163.284      107.869        6.589       54.390       52.016       39.937     2958.274     2705.654     1594.967        2.280        0.363      195.697       10.912        0.003      340.692       14.888      860.481
09/30/2013  21:51:00      101.259       70.066       16.989       41.905       29.746       30.608     1756.008      884.810      936.841        0.951        0.179      123.137       20.043        0.026      340.602       14.737      860.492
09/30/2013  21:52:00      141.109       73.944       18.216       46.217       36.989       32.157     2136.053     1368.199     1034.065        1.512        0.227      159.310       16.186        0.010      340.582       14.701      860.491
09/30/2013  21:53:00      110.495       74.286       10.011       46.866       33.097       24.512     2196.430     1095.385      600.859        1.086        0.195      133.145       15.128        0.013      340.579       14.697      860.493
09/30/2013  21:54:00      157.209       92.778       47.264       37.727       28.412       27.007     1423.361      807.235      729.379        1.926        0.148      182.544       16.052        0.008      340.646       14.809      860.479
09/30/2013  21:55:00      154.346       72.091       18.372       47.755       38.472       34.294     2280.549     1480.088     1176.067        1.715        0.247      170.352       21.096        0.015      340.603       14.737      860.475
09/30/2013  21:56:00      115.506       69.520       31.183       63.188       46.818       31.232     3992.727     2191.891      975.432        1.315        0.358      134.813       22.202        0.027      340.569       14.678      860.486
09/30/2013  21:57:00      106.668       74.964       11.762       41.362       36.278       31.861     1710.794     1316.117     1015.113        1.059        0.202      130.375       16.485        0.016      340.545       14.638      860.488
09/30/2013  21:58:00       64.034       24.108       18.118       28.995       22.679       21.410      840.718      514.358      458.376        0.341        0.091       68.422       15.113        0.049      340.445       14.472      860.486
09/30/2013  21:59:00       36.389       22.070        5.618       18.563       20.477       20.255      344.603      419.310      410.279        0.151        0.059       42.559       11.351        0.071      340.386       14.369      860.485
09/30/2013  22:00:00       70.548       59.766       12.417       39.116       31.081       19.885     1530.078      966.055      395.401        0.580        0.145       92.460        8.798        0.009      340.393       14.383      860.488
09/30/2013  22:01:00      132.119       80.963       16.281       46.385       33.590       24.199     2151.614     1128.285      585.574        1.407        0.193      154.953       18.856        0.015      340.426       14.437      860.494
09/30/2013  22:02:00      168.214       92.198       20.229       50.851       29.640       32.702     2585.797      878.538     1069.434        2.087        0.227      191.824       18.732        0.010      340.407       14.402      860.495
09/30/2013  22:03:00      127.776       62.479       56.852       72.646       61.521       53.702     5277.425     3784.844     2883.912        1.770        0.597      142.233       51.923        0.133      340.416       14.421      860.492
09/30/2013  22:04:00      155.361       96.381       54.542       98.703       62.692       43.315     9742.309     3930.292     1876.214        2.597        0.777      182.829       26.857        0.022      340.489       14.543      860.502
09/30/2013  22:05:00      144.185       50.799       31.496       94.863       66.151       64.087     8998.936     4375.974     4107.184        2.092        0.874      152.872       40.197        0.069      340.509       14.576      860.514
09/30/2013  22:06:00       86.854       34.493       30.389       64.519       50.420       42.514     4162.696     2542.158     1807.482        0.908        0.426       93.453       33.174        0.126      340.479       14.528      860.533
09/30/2013  22:07:00      128.281       45.431       37.787       67.693       51.623       53.985     4582.389     2664.946     2914.361        1.505        0.508      136.088       39.264        0.083      340.475       14.520      860.540
09/30/2013  22:08:00      152.653       80.892       49.069       62.665       43.970       55.351     3926.920     1933.337     3063.771        2.059        0.446      172.761       38.710        0.050      340.458       14.489      860.532
09/30/2013  22:09:00      129.636       93.645       50.871       49.854       39.416       37.064     2485.412     1553.654     1373.740        1.679        0.271      159.921       25.491        0.025      340.476       14.521      860.518
09/30/2013  22:10:00      161.465      101.143       41.560       42.504       31.211       26.733     1806.628      974.157      714.638        2.076        0.175      190.528       12.052        0.004      340.560       14.663      860.520
09/30/2013  22:11:00      113.904       86.137       19.026       51.373       34.337       33.306     2639.194     1179.031     1109.273        1.284        0.246      142.807       19.995        0.020      340.592       14.718      860.528
09/30/2013  22:12:00       83.890       86.900       -1.401       41.789       32.526       29.900     1746.287     1057.953      894.025        0.914        0.185      120.785       19.881        0.027      340.510       14.579      860.531
09/30/2013  22:13:00      130.918       84.208       14.156       42.332       40.277       29.135     1791.992     1622.245      848.866        1.435        0.213      155.662       22.556        0.021      340.643       14.803      860.511
09/30/2013  22:14:00      115.884       64.876       27.276       64.153       44.236       42.566     4115.578     1956.849     1811.872        1.313        0.394      132.808       37.147        0.078      340.569       14.681      860.491
09/30/2013  22:15:00      126.074       56.442       29.943       48.479       38.758       33.338     2350.232     1502.152     1111.405        1.247        0.248      138.132       21.479        0.024      340.508       14.576      860.483
09/30/2013  22:16:00       93.303       42.324       28.154       70.848       51.819       30.552     5019.385     2685.233      933.447        0.996        0.432      102.454       25.808        0.063      340.511       14.583      860.473
09/30/2013  22:17:00       13.794       10.070        6.394       23.999       11.429       19.248      575.957      130.631      370.471        0.070        0.054       17.079       12.757        0.558      340.415       14.420      860.467
09/30/2013  22:18:00      -10.397        4.424       -1.625       13.255       26.895        8.190      175.686      723.342       67.078        0.055        0.048       11.299        8.592        0.578      340.453       14.483      860.475
09/30/2013  22:19:00       30.742      -45.538       -5.604       33.266       35.589       19.812     1106.619     1266.545      392.520        0.291        0.138       54.943       24.546        0.200      340.461       14.498      860.462
09/30/2013  22:20:00        9.125        4.042        3.060       16.081       16.081       13.283      258.592      258.583      176.427        0.040        0.035        9.980       11.813        1.401      340.410       14.412      860.470
09/30/2013  22:21:00       -0.281        6.155        3.983        7.426        8.866        9.617       55.146       78.601       92.496        0.014        0.011        6.162        4.339        0.496      340.375       14.354      860.465
09/30/2013  22:22:00       11.146       20.084       29.029       16.287       10.751       10.120      265.253      115.582      102.405        0.093        0.024       22.970        6.915        0.091      340.284       14.199      860.448
09/30/2013  22:23:00       54.321       13.721       19.923       20.495       17.033       18.063      420.034      290.110      326.287        0.229        0.052       56.027       13.552        0.059      340.329       14.275      860.441
09/30/2013  22:24:00       22.528       41.893       46.710       30.389       32.958       30.332      923.504     1086.212      920.000        0.369        0.146       47.566       30.158        0.402      340.305       14.233      860.428
09/30/2013  22:25:00       29.327       27.039       39.528       22.299       19.024       19.088      497.241      361.929      364.365        0.219        0.061       39.890       14.070        0.124      340.262       14.159      860.416
09/30/2013  22:26:00       36.913       15.150       14.381       22.764       22.635       22.379      518.222      512.350      500.807        0.166        0.077       39.901        7.100        0.032      340.422       14.431      860.410
09/30/2013  22:27:00       28.584       12.246        7.475       25.541       22.316       15.119      652.320      498.007      228.589        0.120        0.069       31.097       14.665        0.222      340.370       14.342      860.399
09/30/2013  22:28:00       60.179      -13.525        7.710       19.036       11.702       11.200      362.377      136.933      125.440        0.224        0.031       61.681       10.294        0.028      340.442       14.463      860.383
09/30/2013  22:29:00       32.613      -20.615        2.554       19.385       18.848       12.843      375.768      355.232      164.933        0.120        0.045       38.582       13.947        0.131      340.421       14.429      860.366
09/30/2013  22:30:00       16.377        1.918       15.599       13.087        6.863       13.745      171.258       47.105      188.928        0.046        0.020       16.489        8.687        0.278      340.363       14.331      860.360
09/30/2013  22:31:00       18.019      -22.166        2.813        7.359       10.186        5.739       54.160      103.747       32.940        0.051        0.010       28.565        2.794        0.010      340.471       14.515      860.350
09/30/2013  22:32:00       39.597        9.114       -1.225       14.593       16.265       10.108      212.967      264.564      102.170        0.112        0.029       40.632        5.252        0.017      340.561       14.666      860.337
09/30/2013  22:33:00       19.811       13.994        5.473       20.034        9.560       10.217      401.352       91.400      104.378        0.061        0.030       24.256       12.317        0.258      340.452       14.483      860.314
09/30/2013  22:34:00       36.637       16.700       11.230        7.411        7.113        7.766       54.925       50.599       60.307        0.096        0.008       40.264        5.194        0.017      340.418       14.424      860.307
09/30/2013  22:35:00       44.110       10.231        8.563        9.059       12.079        8.361       82.074      145.906       69.903        0.121        0.015       45.281        5.702        0.016      340.314       14.249      860.306
09/30/2013  22:36:00       30.461        3.303        6.467       19.315       13.581       10.764      373.068      184.430      115.856        0.083        0.034       30.640        7.355        0.058      340.312       14.246      860.306
09/30/2013  22:37:00       34.282        1.320        8.051       18.306       17.886       10.588      335.122      319.924      112.112        0.100        0.038       34.308       11.624        0.115      340.378       14.356      860.305
09/30/2013  22:38:00       28.267        1.896        6.455        9.205       14.360        8.665       84.726      206.199       75.088        0.061        0.018       28.331        5.277        0.035      340.340       14.292      860.301
09/30/2013  22:39:00       32.125       -5.976        6.070       14.778       12.825        9.944      218.400      164.487       98.885        0.079        0.024       32.676        5.651        0.030      340.439       14.461      860.301
09/30/2013  22:40:00       37.650        9.687        9.666       27.806       21.885       14.899      773.197      478.941      221.974        0.154        0.074       38.876       10.636        0.075      340.421       14.429      860.310
09/30/2013  22:41:00       43.738       30.401        3.475       28.625       18.055       22.565      819.364      325.987      509.179        0.225        0.083       53.266       13.686        0.066      340.481       14.532      860.331
09/30/2013  22:42:00        3.017        6.521       31.323       10.359        9.298        9.622      107.308       86.445       92.592        0.066        0.014        7.185        8.103        1.272      340.318       14.254      860.326
09/30/2013  22:43:00       10.697      -29.437       -0.163       11.784       21.260       11.743      138.872      451.984      137.898        0.085        0.036       31.320        8.554        0.075      340.326       14.270      860.321
09/30/2013  22:44:00       -3.802      -35.712       -2.921       19.539       11.075        7.550      381.766      122.664       56.999        0.093        0.028       35.914        7.566        0.044      340.408       14.408      860.315
09/30/2013  22:45:00      -34.479      -35.665       -3.964       16.517       11.159        9.211      272.826      124.528       84.840        0.148        0.024       49.606        7.358        0.022      340.328       14.270      860.310
09/30/2013  22:46:00      -18.342       -1.458        7.399       28.994       12.020       13.291      840.680      144.479      176.640        0.078        0.058       18.399       13.753        0.559      340.159       13.987      860.310
09/30/2013  22:47:00       36.352      -20.307       -2.902       13.950       14.003       10.125      194.606      196.089      102.521        0.112        0.025       41.640        8.422        0.041      340.140       13.956      860.300
09/30/2013  22:48:00       32.898      -32.082        0.876       15.478       19.106       16.189      239.576      365.031      262.075        0.149        0.043       45.951       13.365        0.085      340.206       14.068      860.291
09/30/2013  22:49:00       21.578      -39.567        5.435       22.781       15.786       12.714      518.959      249.205      161.640        0.150        0.046       45.069       10.516        0.054      340.176       14.015      860.275
09/30/2013  22:50:00       11.402      -49.784        1.745       11.572       14.987        9.832      133.901      224.608       96.675        0.153        0.023       51.073        3.622        0.005      340.417       14.424      860.260
09/30/2013  22:51:00        6.313      -25.347        7.537       20.443       15.722       13.956      417.919      247.192      194.762        0.080        0.043       26.121        8.094        0.096      340.379       14.359      860.262
09/30/2013  22:52:00       -1.586      -29.554        9.960       18.714       20.471       12.245      350.227      419.061      149.930        0.095        0.046       29.597        8.844        0.089      340.399       14.395      860.258
09/30/2013  22:53:00      -21.288       -6.181       -1.713       18.512        8.619        8.557      342.685       74.280       73.230        0.049        0.025       22.167        8.589        0.150      340.156       13.980      860.245
09/30/2013  22:54:00       11.970        1.581        9.664        6.336        7.003        5.014       40.144       49.043       25.139        0.018        0.006       12.074        2.311        0.037      339.991       13.703      860.234
09/30/2013  22:55:00        5.551       -7.988        2.466        9.635       14.903        6.193       92.840      222.102       38.356        0.023        0.018        9.727        7.397        0.578      339.983       13.691      860.214
09/30/2013  22:56:00       -8.916      -21.931        3.063       22.639       17.049        6.905      512.506      290.657       47.677        0.071        0.043       23.674        8.899        0.141      340.222       14.094      860.207
09/30/2013  22:57:00      -51.449       -6.684      -11.747        7.322        7.144        4.791       53.617       51.032       22.951        0.148        0.006       51.881        2.606        0.003      340.070       13.836      860.210
09/30/2013  22:58:00      -72.904      -19.582       -7.524        9.669       10.513        7.465       93.493      110.526       55.721        0.301        0.013       75.488        4.922        0.004      340.016       13.745      860.212
09/30/2013  22:59:00      -66.676      -26.161       -7.289       17.631       12.061        8.585      310.839      145.459       73.694        0.286        0.026       71.624        3.438        0.002      339.968       13.665      860.219
09/30/2013  23:00:00      -36.323       -0.199       -5.624        7.032        8.708        6.032       49.450       75.822       36.384        0.076        0.008       36.323        3.262        0.008      339.954       13.642      860.216
09/30/2013  23:01:00      -18.550        7.329        3.732        8.788        8.440        4.442       77.221       71.228       19.732        0.029        0.008       19.945        4.541        0.052      339.974       13.676      860.205
09/30/2013  23:02:00        3.698       23.662        4.422       11.204        9.698        6.251      125.525       94.055       39.071        0.043        0.013       23.949        3.407        0.020      340.065       13.830      860.186
09/30/2013  23:03:00      -21.771        9.588       -2.911       14.669       14.618        6.544      215.186      213.681       42.828        0.052        0.024       23.789        7.996        0.113      340.138       13.951      860.182
09/30/2013  23:04:00      -81.219      -16.218      -13.287       26.017       16.781       13.138      676.872      281.591      172.606        0.408        0.057       82.822       13.959        0.028      339.518       12.907      860.192
09/30/2013  23:05:00     -138.784      -41.284      -12.941       39.539       35.006       22.993     1563.333     1225.437      528.684        1.222        0.166      144.795       15.650        0.012      339.285       12.512      860.206
09/30/2013  23:06:00     -166.256      -62.950      -14.144       40.534       40.990       28.276     1643.022     1680.192      799.526        1.796        0.206      177.775       21.793        0.015      339.140       12.269      860.215
09/30/2013  23:07:00     -105.740      -25.933      -12.441       39.749       35.126       20.356     1579.982     1233.871      414.358        0.762        0.161      108.874       19.328        0.032      339.146       12.280      860.205
09/30/2013  23:08:00      -82.469      -15.575       -4.819       26.808       29.955       16.021      718.648      897.328      256.660        0.447        0.094       83.927       13.664        0.027      339.178       12.334      860.208
09/30/2013  23:09:00      -75.139        0.485       -6.987       19.234       20.628       10.906      369.963      425.535      118.935        0.330        0.046       75.141        8.376        0.012      339.214       12.395      860.199
09/30/2013  23:10:00      -86.132       -5.454      -13.657       17.343       15.246        9.749      300.789      232.440       95.042        0.413        0.031       86.304        6.568        0.006      339.238       12.434      860.188
09/30/2013  23:11:00     -114.036      -28.498       -8.062       22.497       18.349       15.837      506.108      336.675      250.795        0.749        0.055      117.542        9.525        0.007      339.302       12.542      860.179
09/30/2013  23:12:00     -125.861      -30.968       -5.532       16.532       16.159       13.295      273.314      261.115      176.756        0.877        0.036      129.615       10.818        0.007      339.273       12.493      860.180
09/30/2013  23:13:00      -98.993      -37.457       -5.893       17.384       17.529        9.897      302.214      307.272       97.954        0.597        0.035      105.842        9.223        0.008      339.277       12.499      860.190
09/30/2013  23:14:00      -93.206      -55.019       -4.549       15.963       11.673       10.915      254.817      136.257      119.143        0.612        0.026      108.233        5.673        0.003      339.297       12.533      860.193
09/30/2013  23:15:00     -110.865      -45.127      -10.413       11.939       18.566       10.756      142.547      344.699      115.684        0.752        0.030      119.698        5.360        0.002      339.216       12.396      860.186
09/30/2013  23:16:00     -107.602      -32.230       -9.423       20.506       24.443       17.211      420.498      597.470      296.217        0.701        0.066      112.325       10.113        0.008      339.166       12.312      860.176
09/30/2013  23:17:00     -109.027      -11.691       -8.314       18.091       19.032       13.923      327.272      362.218      193.845        0.649        0.044      109.652       10.155        0.009      339.285       12.512      860.167
09/30/2013  23:18:00     -109.188      -26.146       -4.921       17.335       21.290       10.289      300.501      453.258      105.865        0.674        0.043      112.275        5.434        0.002      339.231       12.422      860.160
09/30/2013  23:19:00     -101.557      -28.257       -8.440        9.063        8.406        7.138       82.142       70.659       50.944        0.569        0.010      105.414        4.653        0.002      339.286       12.514      860.150
09/30/2013  23:20:00     -109.046      -39.744      -15.595       12.051       15.593       12.604      145.222      243.133      158.859        0.713        0.027      116.063        5.607        0.002      339.310       12.555      860.137
09/30/2013  23:21:00     -123.078      -51.237       -9.391       19.018       17.196       11.359      361.683      295.701      129.020        0.932        0.039      133.317        8.705        0.004      339.233       12.426      860.146
09/30/2013  23:22:00     -113.539      -42.422       -3.497       27.100       25.890       14.845      734.388      670.269      220.368        0.816        0.081      121.205       12.796        0.011      339.150       12.287      860.141
09/30/2013  23:23:00     -109.756      -27.494      -14.608       15.848       15.590        9.802      251.153      243.049       96.070        0.680        0.030      113.148        2.554        0.001      339.193       12.358      860.143
09/30/2013  23:24:00      -99.054      -40.988       -3.730       13.657       11.529        9.636      186.512      132.923       92.847        0.596        0.021      107.200        6.377        0.004      339.254       12.462      860.150
09/30/2013  23:25:00     -122.279      -29.462      -11.521       14.685       16.774       10.914      215.639      281.351      119.116        0.828        0.031      125.778        6.252        0.002      339.259       12.469      860.157
09/30/2013  23:26:00     -172.095      -29.115      -12.986       31.023       26.323       15.378      962.425      692.904      236.479        1.626        0.095      174.540       11.371        0.004      339.044       12.106      860.152
09/30/2013  23:27:00     -158.159      -74.495       -6.345       37.894       34.988       23.068     1435.972     1224.129      532.119        1.690        0.160      174.825       17.097        0.010      338.904       11.873      860.150
09/30/2013  23:28:00      -76.334      -53.110        1.060       42.944       34.170       17.785     1844.153     1167.561      316.294        0.599        0.166       92.992       16.330        0.031      338.970       11.983      860.147
09/30/2013  23:29:00      -45.214       -7.188       -1.045       25.306       17.071       18.090      640.399      291.411      327.246        0.168        0.063       45.782        7.853        0.029      338.995       12.026      860.131
09/30/2013  23:30:00      -65.045        4.837        0.369       15.274       16.183       11.939      233.289      261.890      142.532        0.245        0.032       65.225       10.590        0.026      339.021       12.070      860.096
09/30/2013  23:31:00      -57.128       11.178       -2.797       16.022       11.029        8.373      256.700      121.630       70.112        0.192        0.022       58.212        6.366        0.012      339.013       12.056      860.076
09/30/2013  23:32:00     -108.029      -11.175      -13.031       27.769       16.591       12.728      771.126      275.272      162.007        0.659        0.060      108.606       12.863        0.014      339.029       12.082      860.084
09/30/2013  23:33:00     -105.490        7.365      -14.231       49.906       39.430       24.028     2490.639     1554.754      577.366        0.800        0.231      105.747       25.096        0.056      338.784       11.672      860.103
09/30/2013  23:34:00      -55.994       22.513        2.439       45.225       23.819       17.705     2045.345      567.365      313.469        0.329        0.146       60.350       12.156        0.041      339.014       12.056      860.118
09/30/2013  23:35:00        5.217      -23.148        3.892       24.957       24.599       21.474      622.853      605.116      461.141        0.113        0.084       23.729       15.810        0.444      339.146       12.279      860.131
09/30/2013  23:36:00       31.281      -63.277      -14.771       14.817       12.451        9.495      219.534      155.022       90.154        0.283        0.023       70.587        8.191        0.013      339.101       12.204      860.142
09/30/2013  23:37:00      -61.914      -33.704       -1.324       53.888       14.428        9.763     2903.885      208.181       95.309        0.409        0.160       70.493        9.224        0.017      339.200       12.370      860.155
09/30/2013  23:38:00     -119.084        2.711      -12.757       15.924       15.666       10.064      253.560      245.426      101.281        0.748        0.030      119.115        5.184        0.002      338.953       11.955      860.164
09/30/2013  23:39:00      -88.625       31.154      -10.284       28.033       19.868       13.539      785.855      394.726      183.312        0.515        0.068       93.941        9.780        0.011      338.759       11.629      860.161
09/30/2013  23:40:00      -82.568       21.332       -5.632       24.746       21.453       14.643      612.377      460.234      214.414        0.430        0.064       85.279       12.277        0.021      338.967       11.979      860.147
09/30/2013  23:41:00      -52.363      -16.878       -2.513       15.769       23.468        8.467      248.654      550.763       71.696        0.195        0.044       55.016        6.579        0.014      339.233       12.425      860.143
09/30/2013  23:42:00        1.795      -16.673        0.724        9.150       15.121        8.556       83.720      228.650       73.207        0.033        0.019       16.770        4.095        0.060      339.203       12.376      860.133
09/30/2013  23:43:00        5.931      -37.893       -1.226       16.722       19.384        9.874      279.622      375.724       97.496        0.111        0.038       38.355        8.472        0.049      339.532       12.929      860.123
09/30/2013  23:44:00       19.967      -28.666        0.517       10.102        6.705        5.614      102.046       44.956       31.521        0.070        0.009       34.934        4.051        0.013      339.456       12.802      860.116
09/30/2013  23:45:00      -18.576       -9.685        5.586       14.707       10.417        7.306      216.296      108.513       53.370        0.042        0.019       20.950        7.930        0.143      339.296       12.534      860.116
09/30/2013  23:46:00       -5.066      -11.621        0.400        6.320        9.135        5.745       39.937       83.446       33.003        0.016        0.008       12.677        4.088        0.104      339.140       12.268      860.122
09/30/2013  23:47:00       10.014       11.032        1.394       10.449        7.110        4.367      109.190       50.551       19.067        0.020        0.009       14.899        3.210        0.046      339.236       12.430      860.127
09/30/2013  23:48:00       22.660       24.161        6.586        6.628        5.375        6.995       43.934       28.887       48.930        0.063        0.006       33.125        3.080        0.009      339.516       12.903      860.127
09/30/2013  23:49:00      -25.612       22.178        0.458       27.674       11.244        7.670      765.848      126.428       58.831        0.105        0.048       33.880       12.709        0.141      339.492       12.865      860.125
09/30/2013  23:50:00      -86.928       -4.827       -8.093       21.575       24.830       16.067      465.476      616.527      258.160        0.449        0.067       87.062       13.172        0.023      338.739       11.596      860.127
09/30/2013  23:51:00     -117.022      -34.159        0.895       36.711       35.894       20.003     1347.734     1288.412      400.116        0.895        0.152      121.906       12.697        0.011      338.559       11.292      860.135
09/30/2013  23:52:00      -97.417      -38.106       -4.621       56.637       44.707       23.501     3207.697     1998.693      552.288        0.836        0.288      104.604       19.494        0.035      338.604       11.367      860.157
09/30/2013  23:53:00      -62.203       -3.071       -2.161       39.883       20.133       16.280     1590.666      405.350      265.039        0.307        0.113       62.279       20.379        0.107      338.580       11.328      860.143
09/30/2013  23:54:00      -65.087      -14.917      -10.432        9.649       16.174        9.537       93.099      261.602       90.964        0.251        0.022       66.775        8.140        0.015      338.703       11.534      860.109
09/30/2013  23:55:00      -44.622       23.725       -8.292       14.811       30.833        7.536      219.357      950.658       56.789        0.192        0.061       50.537        9.399        0.035      339.075       12.160      860.078
09/30/2013  23:56:00      -16.060       54.947       -0.063       28.481       22.561        9.870      811.191      508.999       97.408        0.235        0.071       57.246       12.376        0.047      339.446       12.785      860.069
09/30/2013  23:57:00        7.362       41.836        2.811       15.876       25.006       13.011      252.041      625.280      169.291        0.143        0.052       42.479       15.245        0.129      339.527       12.922      860.089
09/30/2013  23:58:00       30.528        3.662        3.492       16.560       13.725       10.532      274.219      188.388      110.933        0.077        0.029       30.746        8.597        0.078      339.020       12.068      860.107
09/30/2013  23:59:00       23.867       13.491        8.409       16.361       18.223        9.943      267.684      332.073       98.867        0.076        0.035       27.416        9.395        0.117      338.862       11.801      860.122
